<?xml version="1.0" encoding="UTF-8" standalone="no" ?>
<gpx xmlns="http://www.topografix.com/GPX/1/1" xmlns:xsi="http://www.w3.org/2001/XMLSchema-instance" xsi:schemaLocation="http://www.topografix.com/GPX/1/1 http://www.topografix.com/GPX/1/1/gpx.xsd" version="1.1" creator="VisuGPX - https://www.visugpx.com">
  <metadata>
    <name>Portes de l'enfer</name>
  </metadata>
  <trk>
    <name><![CDATA[Portes de l'enfer_1]]></name>
    <extensions>
      <line xmlns="http://www.topografix.com/GPX/gpx_style/0/2">
        <color>0000FF</color>
        <width>4</width>
      </line>
    </extensions>
    <trkseg>
      <trkpt lat="44.41962" lon="6.73837">
        <ele>1219.1</ele>
        <time>2021-06-21T12:47:54Z</time>
      </trkpt>
      <trkpt lat="44.41964" lon="6.73853">
        <ele>1219.5</ele>
        <time>2021-06-21T12:47:58Z</time>
      </trkpt>
      <trkpt lat="44.41966" lon="6.73871">
        <ele>1220</ele>
        <time>2021-06-21T12:48:02Z</time>
      </trkpt>
      <trkpt lat="44.41962" lon="6.73888">
        <ele>1220.4</ele>
        <time>2021-06-21T12:48:06Z</time>
      </trkpt>
      <trkpt lat="44.41957" lon="6.73905">
        <ele>1220.7</ele>
        <time>2021-06-21T12:48:10Z</time>
      </trkpt>
      <trkpt lat="44.41953" lon="6.7393">
        <ele>1221.2</ele>
        <time>2021-06-21T12:48:14Z</time>
      </trkpt>
      <trkpt lat="44.41937" lon="6.73952">
        <ele>1221.3</ele>
        <time>2021-06-21T12:48:18Z</time>
      </trkpt>
      <trkpt lat="44.41919" lon="6.73967">
        <ele>1221.3</ele>
        <time>2021-06-21T12:48:22Z</time>
      </trkpt>
      <trkpt lat="44.41904" lon="6.73981">
        <ele>1221.5</ele>
        <time>2021-06-21T12:48:26Z</time>
      </trkpt>
      <trkpt lat="44.41891" lon="6.73991">
        <ele>1221.6</ele>
        <time>2021-06-21T12:48:30Z</time>
      </trkpt>
      <trkpt lat="44.41877" lon="6.74">
        <ele>1221.5</ele>
        <time>2021-06-21T12:48:34Z</time>
      </trkpt>
      <trkpt lat="44.41866" lon="6.74008">
        <ele>1221.6</ele>
        <time>2021-06-21T12:48:38Z</time>
      </trkpt>
      <trkpt lat="44.41852" lon="6.74015">
        <ele>1221.6</ele>
        <time>2021-06-21T12:48:42Z</time>
      </trkpt>
      <trkpt lat="44.41837" lon="6.7402">
        <ele>1221.5</ele>
        <time>2021-06-21T12:48:46Z</time>
      </trkpt>
      <trkpt lat="44.41825" lon="6.74026">
        <ele>1221.9</ele>
        <time>2021-06-21T12:48:50Z</time>
      </trkpt>
      <trkpt lat="44.41809" lon="6.74032">
        <ele>1222.5</ele>
        <time>2021-06-21T12:48:54Z</time>
      </trkpt>
      <trkpt lat="44.41798" lon="6.74038">
        <ele>1223</ele>
        <time>2021-06-21T12:48:58Z</time>
      </trkpt>
      <trkpt lat="44.41786" lon="6.74047">
        <ele>1223.5</ele>
        <time>2021-06-21T12:49:02Z</time>
      </trkpt>
      <trkpt lat="44.41782" lon="6.74055">
        <ele>1223.8</ele>
        <time>2021-06-21T12:49:06Z</time>
      </trkpt>
      <trkpt lat="44.41788" lon="6.74067">
        <ele>1223.8</ele>
        <time>2021-06-21T12:49:10Z</time>
      </trkpt>
      <trkpt lat="44.41787" lon="6.74078">
        <ele>1224</ele>
        <time>2021-06-21T12:49:14Z</time>
      </trkpt>
      <trkpt lat="44.41784" lon="6.74088">
        <ele>1224.7</ele>
        <time>2021-06-21T12:49:18Z</time>
      </trkpt>
      <trkpt lat="44.41778" lon="6.74097">
        <ele>1225.8</ele>
        <time>2021-06-21T12:49:22Z</time>
      </trkpt>
      <trkpt lat="44.41771" lon="6.74106">
        <ele>1226.8</ele>
        <time>2021-06-21T12:49:26Z</time>
      </trkpt>
      <trkpt lat="44.41764" lon="6.74114">
        <ele>1227.7</ele>
        <time>2021-06-21T12:49:30Z</time>
      </trkpt>
      <trkpt lat="44.41756" lon="6.74122">
        <ele>1228.6</ele>
        <time>2021-06-21T12:49:34Z</time>
      </trkpt>
      <trkpt lat="44.41747" lon="6.7413">
        <ele>1229.5</ele>
        <time>2021-06-21T12:49:38Z</time>
      </trkpt>
      <trkpt lat="44.41737" lon="6.74137">
        <ele>1230.3</ele>
        <time>2021-06-21T12:49:42Z</time>
      </trkpt>
      <trkpt lat="44.41728" lon="6.74145">
        <ele>1231.1</ele>
        <time>2021-06-21T12:49:46Z</time>
      </trkpt>
      <trkpt lat="44.41718" lon="6.74154">
        <ele>1232</ele>
        <time>2021-06-21T12:49:50Z</time>
      </trkpt>
      <trkpt lat="44.41707" lon="6.74165">
        <ele>1232.9</ele>
        <time>2021-06-21T12:49:54Z</time>
      </trkpt>
      <trkpt lat="44.41699" lon="6.74177">
        <ele>1234</ele>
        <time>2021-06-21T12:49:58Z</time>
      </trkpt>
      <trkpt lat="44.4169" lon="6.7419">
        <ele>1235</ele>
        <time>2021-06-21T12:50:02Z</time>
      </trkpt>
      <trkpt lat="44.41683" lon="6.74201">
        <ele>1235.7</ele>
        <time>2021-06-21T12:50:06Z</time>
      </trkpt>
      <trkpt lat="44.41678" lon="6.74208">
        <ele>1236</ele>
        <time>2021-06-21T12:50:10Z</time>
      </trkpt>
      <trkpt lat="44.41671" lon="6.74217">
        <ele>1236.3</ele>
        <time>2021-06-21T12:50:14Z</time>
      </trkpt>
      <trkpt lat="44.41666" lon="6.74224">
        <ele>1236.4</ele>
        <time>2021-06-21T12:50:18Z</time>
      </trkpt>
      <trkpt lat="44.41662" lon="6.74233">
        <ele>1236.9</ele>
        <time>2021-06-21T12:50:22Z</time>
      </trkpt>
      <trkpt lat="44.41657" lon="6.74243">
        <ele>1237.4</ele>
        <time>2021-06-21T12:50:26Z</time>
      </trkpt>
      <trkpt lat="44.41654" lon="6.74252">
        <ele>1237.8</ele>
        <time>2021-06-21T12:50:30Z</time>
      </trkpt>
      <trkpt lat="44.41652" lon="6.74263">
        <ele>1238.3</ele>
        <time>2021-06-21T12:50:34Z</time>
      </trkpt>
      <trkpt lat="44.41641" lon="6.74273">
        <ele>1238.5</ele>
        <time>2021-06-21T12:50:38Z</time>
      </trkpt>
      <trkpt lat="44.41632" lon="6.74285">
        <ele>1238.8</ele>
        <time>2021-06-21T12:50:42Z</time>
      </trkpt>
      <trkpt lat="44.41623" lon="6.74294">
        <ele>1239.1</ele>
        <time>2021-06-21T12:50:46Z</time>
      </trkpt>
      <trkpt lat="44.41615" lon="6.74302">
        <ele>1239.3</ele>
        <time>2021-06-21T12:50:50Z</time>
      </trkpt>
      <trkpt lat="44.41605" lon="6.74308">
        <ele>1239.3</ele>
        <time>2021-06-21T12:50:54Z</time>
      </trkpt>
      <trkpt lat="44.41594" lon="6.74317">
        <ele>1239.5</ele>
        <time>2021-06-21T12:50:58Z</time>
      </trkpt>
      <trkpt lat="44.41585" lon="6.74322">
        <ele>1239.5</ele>
        <time>2021-06-21T12:51:02Z</time>
      </trkpt>
      <trkpt lat="44.41578" lon="6.74332">
        <ele>1240</ele>
        <time>2021-06-21T12:51:06Z</time>
      </trkpt>
      <trkpt lat="44.4157" lon="6.74345">
        <ele>1240.8</ele>
        <time>2021-06-21T12:51:10Z</time>
      </trkpt>
      <trkpt lat="44.41564" lon="6.74356">
        <ele>1241.4</ele>
        <time>2021-06-21T12:51:14Z</time>
      </trkpt>
      <trkpt lat="44.41558" lon="6.7437">
        <ele>1242.1</ele>
        <time>2021-06-21T12:51:18Z</time>
      </trkpt>
      <trkpt lat="44.41553" lon="6.74385">
        <ele>1242.8</ele>
        <time>2021-06-21T12:51:22Z</time>
      </trkpt>
      <trkpt lat="44.41547" lon="6.744">
        <ele>1243.4</ele>
        <time>2021-06-21T12:51:26Z</time>
      </trkpt>
      <trkpt lat="44.41542" lon="6.74414">
        <ele>1243.9</ele>
        <time>2021-06-21T12:51:30Z</time>
      </trkpt>
      <trkpt lat="44.41536" lon="6.74428">
        <ele>1245</ele>
        <time>2021-06-21T12:51:34Z</time>
      </trkpt>
      <trkpt lat="44.41533" lon="6.74442">
        <ele>1246.2</ele>
        <time>2021-06-21T12:51:38Z</time>
      </trkpt>
      <trkpt lat="44.41529" lon="6.74457">
        <ele>1247.3</ele>
        <time>2021-06-21T12:51:42Z</time>
      </trkpt>
      <trkpt lat="44.41524" lon="6.74472">
        <ele>1248.2</ele>
        <time>2021-06-21T12:51:46Z</time>
      </trkpt>
      <trkpt lat="44.41521" lon="6.74487">
        <ele>1249.2</ele>
        <time>2021-06-21T12:51:50Z</time>
      </trkpt>
      <trkpt lat="44.41518" lon="6.74502">
        <ele>1250.1</ele>
        <time>2021-06-21T12:51:54Z</time>
      </trkpt>
      <trkpt lat="44.41516" lon="6.74518">
        <ele>1251.4</ele>
        <time>2021-06-21T12:51:58Z</time>
      </trkpt>
      <trkpt lat="44.41515" lon="6.74532">
        <ele>1252.5</ele>
        <time>2021-06-21T12:52:02Z</time>
      </trkpt>
      <trkpt lat="44.4152" lon="6.74549">
        <ele>1255</ele>
        <time>2021-06-21T12:52:06Z</time>
      </trkpt>
      <trkpt lat="44.41523" lon="6.74565">
        <ele>1257.1</ele>
        <time>2021-06-21T12:52:10Z</time>
      </trkpt>
      <trkpt lat="44.41522" lon="6.7458">
        <ele>1258.4</ele>
        <time>2021-06-21T12:52:14Z</time>
      </trkpt>
      <trkpt lat="44.4152" lon="6.74593">
        <ele>1258.9</ele>
        <time>2021-06-21T12:52:18Z</time>
      </trkpt>
      <trkpt lat="44.41516" lon="6.74607">
        <ele>1258.9</ele>
        <time>2021-06-21T12:52:22Z</time>
      </trkpt>
      <trkpt lat="44.41512" lon="6.74621">
        <ele>1258.6</ele>
        <time>2021-06-21T12:52:26Z</time>
      </trkpt>
      <trkpt lat="44.41508" lon="6.74634">
        <ele>1258.1</ele>
        <time>2021-06-21T12:52:30Z</time>
      </trkpt>
      <trkpt lat="44.41504" lon="6.74646">
        <ele>1257.5</ele>
        <time>2021-06-21T12:52:34Z</time>
      </trkpt>
      <trkpt lat="44.415" lon="6.74657">
        <ele>1256.7</ele>
        <time>2021-06-21T12:52:38Z</time>
      </trkpt>
      <trkpt lat="44.41496" lon="6.74671">
        <ele>1257.1</ele>
        <time>2021-06-21T12:52:42Z</time>
      </trkpt>
      <trkpt lat="44.41494" lon="6.74685">
        <ele>1257.7</ele>
        <time>2021-06-21T12:52:46Z</time>
      </trkpt>
      <trkpt lat="44.41491" lon="6.74699">
        <ele>1258.3</ele>
        <time>2021-06-21T12:52:50Z</time>
      </trkpt>
      <trkpt lat="44.41489" lon="6.74713">
        <ele>1258.8</ele>
        <time>2021-06-21T12:52:54Z</time>
      </trkpt>
      <trkpt lat="44.41487" lon="6.74725">
        <ele>1259.3</ele>
        <time>2021-06-21T12:52:58Z</time>
      </trkpt>
      <trkpt lat="44.41484" lon="6.74739">
        <ele>1259.8</ele>
        <time>2021-06-21T12:53:02Z</time>
      </trkpt>
      <trkpt lat="44.41481" lon="6.74751">
        <ele>1260.1</ele>
        <time>2021-06-21T12:53:06Z</time>
      </trkpt>
      <trkpt lat="44.41478" lon="6.74764">
        <ele>1260.7</ele>
        <time>2021-06-21T12:53:10Z</time>
      </trkpt>
      <trkpt lat="44.41474" lon="6.74775">
        <ele>1261</ele>
        <time>2021-06-21T12:53:14Z</time>
      </trkpt>
      <trkpt lat="44.41469" lon="6.74785">
        <ele>1261.1</ele>
        <time>2021-06-21T12:53:18Z</time>
      </trkpt>
      <trkpt lat="44.41465" lon="6.74797">
        <ele>1261.4</ele>
        <time>2021-06-21T12:53:22Z</time>
      </trkpt>
      <trkpt lat="44.4146" lon="6.7481">
        <ele>1261.6</ele>
        <time>2021-06-21T12:53:26Z</time>
      </trkpt>
      <trkpt lat="44.41459" lon="6.74821">
        <ele>1262</ele>
        <time>2021-06-21T12:53:30Z</time>
      </trkpt>
      <trkpt lat="44.41459" lon="6.74837">
        <ele>1262.8</ele>
        <time>2021-06-21T12:53:34Z</time>
      </trkpt>
      <trkpt lat="44.4146" lon="6.74851">
        <ele>1263.6</ele>
        <time>2021-06-21T12:53:38Z</time>
      </trkpt>
      <trkpt lat="44.41462" lon="6.74865">
        <ele>1264.5</ele>
        <time>2021-06-21T12:53:42Z</time>
      </trkpt>
      <trkpt lat="44.41466" lon="6.74879">
        <ele>1265.5</ele>
        <time>2021-06-21T12:53:46Z</time>
      </trkpt>
      <trkpt lat="44.41468" lon="6.74891">
        <ele>1266.2</ele>
        <time>2021-06-21T12:53:50Z</time>
      </trkpt>
      <trkpt lat="44.41473" lon="6.74904">
        <ele>1267.1</ele>
        <time>2021-06-21T12:53:54Z</time>
      </trkpt>
      <trkpt lat="44.41477" lon="6.74919">
        <ele>1268</ele>
        <time>2021-06-21T12:53:58Z</time>
      </trkpt>
      <trkpt lat="44.41483" lon="6.74933">
        <ele>1268.6</ele>
        <time>2021-06-21T12:54:02Z</time>
      </trkpt>
      <trkpt lat="44.41487" lon="6.74945">
        <ele>1269</ele>
        <time>2021-06-21T12:54:06Z</time>
      </trkpt>
      <trkpt lat="44.41492" lon="6.74958">
        <ele>1269.4</ele>
        <time>2021-06-21T12:54:10Z</time>
      </trkpt>
      <trkpt lat="44.41497" lon="6.74971">
        <ele>1269.6</ele>
        <time>2021-06-21T12:54:14Z</time>
      </trkpt>
      <trkpt lat="44.41503" lon="6.74985">
        <ele>1270.7</ele>
        <time>2021-06-21T12:54:18Z</time>
      </trkpt>
      <trkpt lat="44.41508" lon="6.74998">
        <ele>1272.2</ele>
        <time>2021-06-21T12:54:22Z</time>
      </trkpt>
      <trkpt lat="44.41512" lon="6.75012">
        <ele>1273.6</ele>
        <time>2021-06-21T12:54:26Z</time>
      </trkpt>
      <trkpt lat="44.41522" lon="6.75027">
        <ele>1276.9</ele>
        <time>2021-06-21T12:54:30Z</time>
      </trkpt>
      <trkpt lat="44.41529" lon="6.75039">
        <ele>1279.3</ele>
        <time>2021-06-21T12:54:34Z</time>
      </trkpt>
      <trkpt lat="44.41537" lon="6.75052">
        <ele>1282</ele>
        <time>2021-06-21T12:54:38Z</time>
      </trkpt>
      <trkpt lat="44.41545" lon="6.75063">
        <ele>1284.7</ele>
        <time>2021-06-21T12:54:42Z</time>
      </trkpt>
      <trkpt lat="44.4155" lon="6.75077">
        <ele>1286.8</ele>
        <time>2021-06-21T12:54:46Z</time>
      </trkpt>
      <trkpt lat="44.41548" lon="6.75092">
        <ele>1286.9</ele>
        <time>2021-06-21T12:54:50Z</time>
      </trkpt>
      <trkpt lat="44.4154" lon="6.75102">
        <ele>1285.1</ele>
        <time>2021-06-21T12:54:54Z</time>
      </trkpt>
      <trkpt lat="44.41529" lon="6.75112">
        <ele>1282.7</ele>
        <time>2021-06-21T12:54:58Z</time>
      </trkpt>
      <trkpt lat="44.41518" lon="6.75122">
        <ele>1280.5</ele>
        <time>2021-06-21T12:55:02Z</time>
      </trkpt>
      <trkpt lat="44.41507" lon="6.75129">
        <ele>1278.2</ele>
        <time>2021-06-21T12:55:06Z</time>
      </trkpt>
      <trkpt lat="44.41494" lon="6.75132">
        <ele>1277.1</ele>
        <time>2021-06-21T12:55:10Z</time>
      </trkpt>
      <trkpt lat="44.41482" lon="6.75135">
        <ele>1278.4</ele>
        <time>2021-06-21T12:55:14Z</time>
      </trkpt>
      <trkpt lat="44.41473" lon="6.75141">
        <ele>1279.7</ele>
        <time>2021-06-21T12:55:18Z</time>
      </trkpt>
      <trkpt lat="44.41463" lon="6.7515">
        <ele>1281.6</ele>
        <time>2021-06-21T12:55:22Z</time>
      </trkpt>
      <trkpt lat="44.41462" lon="6.75166">
        <ele>1283.6</ele>
        <time>2021-06-21T12:55:26Z</time>
      </trkpt>
      <trkpt lat="44.41463" lon="6.7518">
        <ele>1285.2</ele>
        <time>2021-06-21T12:55:30Z</time>
      </trkpt>
      <trkpt lat="44.41466" lon="6.75192">
        <ele>1286.3</ele>
        <time>2021-06-21T12:55:34Z</time>
      </trkpt>
      <trkpt lat="44.41471" lon="6.75206">
        <ele>1287.3</ele>
        <time>2021-06-21T12:55:38Z</time>
      </trkpt>
      <trkpt lat="44.41477" lon="6.75218">
        <ele>1287.6</ele>
        <time>2021-06-21T12:55:42Z</time>
      </trkpt>
      <trkpt lat="44.41484" lon="6.75229">
        <ele>1287.5</ele>
        <time>2021-06-21T12:55:46Z</time>
      </trkpt>
      <trkpt lat="44.4149" lon="6.75242">
        <ele>1287.5</ele>
        <time>2021-06-21T12:55:50Z</time>
      </trkpt>
      <trkpt lat="44.41495" lon="6.75254">
        <ele>1287.6</ele>
        <time>2021-06-21T12:55:54Z</time>
      </trkpt>
      <trkpt lat="44.41497" lon="6.7527">
        <ele>1289</ele>
        <time>2021-06-21T12:55:58Z</time>
      </trkpt>
      <trkpt lat="44.41491" lon="6.7528">
        <ele>1291.4</ele>
        <time>2021-06-21T12:56:02Z</time>
      </trkpt>
      <trkpt lat="44.4148" lon="6.75277">
        <ele>1293.3</ele>
        <time>2021-06-21T12:56:06Z</time>
      </trkpt>
      <trkpt lat="44.41474" lon="6.75267">
        <ele>1293.5</ele>
        <time>2021-06-21T12:56:10Z</time>
      </trkpt>
      <trkpt lat="44.41468" lon="6.75256">
        <ele>1293.5</ele>
        <time>2021-06-21T12:56:14Z</time>
      </trkpt>
      <trkpt lat="44.41462" lon="6.75243">
        <ele>1293.3</ele>
        <time>2021-06-21T12:56:18Z</time>
      </trkpt>
      <trkpt lat="44.41456" lon="6.75232">
        <ele>1293.1</ele>
        <time>2021-06-21T12:56:22Z</time>
      </trkpt>
      <trkpt lat="44.4145" lon="6.75222">
        <ele>1292.8</ele>
        <time>2021-06-21T12:56:26Z</time>
      </trkpt>
      <trkpt lat="44.41442" lon="6.75212">
        <ele>1292.6</ele>
        <time>2021-06-21T12:56:30Z</time>
      </trkpt>
      <trkpt lat="44.41435" lon="6.75204">
        <ele>1292.4</ele>
        <time>2021-06-21T12:56:34Z</time>
      </trkpt>
      <trkpt lat="44.41427" lon="6.75196">
        <ele>1292.2</ele>
        <time>2021-06-21T12:56:38Z</time>
      </trkpt>
      <trkpt lat="44.41418" lon="6.75189">
        <ele>1292.1</ele>
        <time>2021-06-21T12:56:42Z</time>
      </trkpt>
      <trkpt lat="44.41409" lon="6.75183">
        <ele>1292.8</ele>
        <time>2021-06-21T12:56:46Z</time>
      </trkpt>
      <trkpt lat="44.414" lon="6.75177">
        <ele>1293.7</ele>
        <time>2021-06-21T12:56:50Z</time>
      </trkpt>
      <trkpt lat="44.4139" lon="6.75171">
        <ele>1294.8</ele>
        <time>2021-06-21T12:56:54Z</time>
      </trkpt>
      <trkpt lat="44.41381" lon="6.75166">
        <ele>1296</ele>
        <time>2021-06-21T12:56:58Z</time>
      </trkpt>
      <trkpt lat="44.41373" lon="6.7516">
        <ele>1297</ele>
        <time>2021-06-21T12:57:02Z</time>
      </trkpt>
      <trkpt lat="44.41364" lon="6.75154">
        <ele>1298.1</ele>
        <time>2021-06-21T12:57:06Z</time>
      </trkpt>
      <trkpt lat="44.41355" lon="6.75149">
        <ele>1299.4</ele>
        <time>2021-06-21T12:57:10Z</time>
      </trkpt>
      <trkpt lat="44.41347" lon="6.75143">
        <ele>1300.2</ele>
        <time>2021-06-21T12:57:14Z</time>
      </trkpt>
      <trkpt lat="44.41339" lon="6.75137">
        <ele>1301.1</ele>
        <time>2021-06-21T12:57:18Z</time>
      </trkpt>
      <trkpt lat="44.41329" lon="6.75131">
        <ele>1302.7</ele>
        <time>2021-06-21T12:57:22Z</time>
      </trkpt>
      <trkpt lat="44.4132" lon="6.75125">
        <ele>1304.5</ele>
        <time>2021-06-21T12:57:26Z</time>
      </trkpt>
      <trkpt lat="44.41311" lon="6.7512">
        <ele>1306.6</ele>
        <time>2021-06-21T12:57:30Z</time>
      </trkpt>
      <trkpt lat="44.41302" lon="6.75115">
        <ele>1308.8</ele>
        <time>2021-06-21T12:57:34Z</time>
      </trkpt>
      <trkpt lat="44.41293" lon="6.75109">
        <ele>1311</ele>
        <time>2021-06-21T12:57:38Z</time>
      </trkpt>
      <trkpt lat="44.41284" lon="6.75108">
        <ele>1313.9</ele>
        <time>2021-06-21T12:57:42Z</time>
      </trkpt>
      <trkpt lat="44.41276" lon="6.75113">
        <ele>1316.8</ele>
        <time>2021-06-21T12:57:46Z</time>
      </trkpt>
      <trkpt lat="44.41272" lon="6.75126">
        <ele>1319</ele>
        <time>2021-06-21T12:57:50Z</time>
      </trkpt>
      <trkpt lat="44.41277" lon="6.75138">
        <ele>1318.4</ele>
        <time>2021-06-21T12:57:54Z</time>
      </trkpt>
      <trkpt lat="44.41285" lon="6.75144">
        <ele>1316.6</ele>
        <time>2021-06-21T12:57:58Z</time>
      </trkpt>
      <trkpt lat="44.41293" lon="6.75147">
        <ele>1314.8</ele>
        <time>2021-06-21T12:58:02Z</time>
      </trkpt>
      <trkpt lat="44.41302" lon="6.7515">
        <ele>1312.7</ele>
        <time>2021-06-21T12:58:06Z</time>
      </trkpt>
      <trkpt lat="44.4131" lon="6.75156">
        <ele>1311.3</ele>
        <time>2021-06-21T12:58:10Z</time>
      </trkpt>
      <trkpt lat="44.41317" lon="6.75164">
        <ele>1310.6</ele>
        <time>2021-06-21T12:58:14Z</time>
      </trkpt>
      <trkpt lat="44.41323" lon="6.75176">
        <ele>1310.8</ele>
        <time>2021-06-21T12:58:18Z</time>
      </trkpt>
      <trkpt lat="44.41327" lon="6.7519">
        <ele>1311.8</ele>
        <time>2021-06-21T12:58:22Z</time>
      </trkpt>
      <trkpt lat="44.41329" lon="6.75204">
        <ele>1313.3</ele>
        <time>2021-06-21T12:58:26Z</time>
      </trkpt>
      <trkpt lat="44.41331" lon="6.75218">
        <ele>1314.9</ele>
        <time>2021-06-21T12:58:30Z</time>
      </trkpt>
      <trkpt lat="44.41332" lon="6.7523">
        <ele>1316.4</ele>
        <time>2021-06-21T12:58:34Z</time>
      </trkpt>
      <trkpt lat="44.41335" lon="6.75242">
        <ele>1317.5</ele>
        <time>2021-06-21T12:58:38Z</time>
      </trkpt>
      <trkpt lat="44.41338" lon="6.75253">
        <ele>1318.4</ele>
        <time>2021-06-21T12:58:42Z</time>
      </trkpt>
      <trkpt lat="44.41342" lon="6.75264">
        <ele>1318.6</ele>
        <time>2021-06-21T12:58:46Z</time>
      </trkpt>
      <trkpt lat="44.41346" lon="6.75274">
        <ele>1318.7</ele>
        <time>2021-06-21T12:58:50Z</time>
      </trkpt>
      <trkpt lat="44.41349" lon="6.75285">
        <ele>1319.1</ele>
        <time>2021-06-21T12:58:54Z</time>
      </trkpt>
      <trkpt lat="44.41353" lon="6.75296">
        <ele>1319.3</ele>
        <time>2021-06-21T12:58:58Z</time>
      </trkpt>
      <trkpt lat="44.41357" lon="6.75309">
        <ele>1319.7</ele>
        <time>2021-06-21T12:59:02Z</time>
      </trkpt>
      <trkpt lat="44.41358" lon="6.75323">
        <ele>1320.7</ele>
        <time>2021-06-21T12:59:06Z</time>
      </trkpt>
      <trkpt lat="44.4136" lon="6.75336">
        <ele>1321.5</ele>
        <time>2021-06-21T12:59:10Z</time>
      </trkpt>
      <trkpt lat="44.4136" lon="6.7535">
        <ele>1323.3</ele>
        <time>2021-06-21T12:59:14Z</time>
      </trkpt>
      <trkpt lat="44.41361" lon="6.75363">
        <ele>1324.7</ele>
        <time>2021-06-21T12:59:18Z</time>
      </trkpt>
      <trkpt lat="44.41363" lon="6.75376">
        <ele>1325.9</ele>
        <time>2021-06-21T12:59:22Z</time>
      </trkpt>
      <trkpt lat="44.41363" lon="6.75389">
        <ele>1327.5</ele>
        <time>2021-06-21T12:59:26Z</time>
      </trkpt>
      <trkpt lat="44.4136" lon="6.75402">
        <ele>1329.7</ele>
        <time>2021-06-21T12:59:30Z</time>
      </trkpt>
      <trkpt lat="44.41351" lon="6.75407">
        <ele>1332.2</ele>
        <time>2021-06-21T12:59:34Z</time>
      </trkpt>
      <trkpt lat="44.41344" lon="6.75401">
        <ele>1332.8</ele>
        <time>2021-06-21T12:59:38Z</time>
      </trkpt>
      <trkpt lat="44.41337" lon="6.7539">
        <ele>1332.8</ele>
        <time>2021-06-21T12:59:42Z</time>
      </trkpt>
      <trkpt lat="44.41332" lon="6.75379">
        <ele>1332.4</ele>
        <time>2021-06-21T12:59:46Z</time>
      </trkpt>
      <trkpt lat="44.41326" lon="6.75368">
        <ele>1332.5</ele>
        <time>2021-06-21T12:59:50Z</time>
      </trkpt>
      <trkpt lat="44.4132" lon="6.75359">
        <ele>1332.9</ele>
        <time>2021-06-21T12:59:54Z</time>
      </trkpt>
      <trkpt lat="44.41314" lon="6.75349">
        <ele>1333.1</ele>
        <time>2021-06-21T12:59:58Z</time>
      </trkpt>
      <trkpt lat="44.41307" lon="6.7534">
        <ele>1333.6</ele>
        <time>2021-06-21T13:00:02Z</time>
      </trkpt>
      <trkpt lat="44.413" lon="6.75332">
        <ele>1334.3</ele>
        <time>2021-06-21T13:00:06Z</time>
      </trkpt>
      <trkpt lat="44.41294" lon="6.75323">
        <ele>1334.8</ele>
        <time>2021-06-21T13:00:10Z</time>
      </trkpt>
      <trkpt lat="44.41287" lon="6.75312">
        <ele>1335.3</ele>
        <time>2021-06-21T13:00:14Z</time>
      </trkpt>
      <trkpt lat="44.4128" lon="6.75302">
        <ele>1335.8</ele>
        <time>2021-06-21T13:00:18Z</time>
      </trkpt>
      <trkpt lat="44.41273" lon="6.75293">
        <ele>1336.4</ele>
        <time>2021-06-21T13:00:22Z</time>
      </trkpt>
      <trkpt lat="44.41265" lon="6.75283">
        <ele>1337</ele>
        <time>2021-06-21T13:00:26Z</time>
      </trkpt>
      <trkpt lat="44.41257" lon="6.75276">
        <ele>1337.9</ele>
        <time>2021-06-21T13:00:30Z</time>
      </trkpt>
      <trkpt lat="44.41248" lon="6.75274">
        <ele>1339.8</ele>
        <time>2021-06-21T13:00:34Z</time>
      </trkpt>
      <trkpt lat="44.4124" lon="6.75279">
        <ele>1343.1</ele>
        <time>2021-06-21T13:00:38Z</time>
      </trkpt>
      <trkpt lat="44.41236" lon="6.75292">
        <ele>1346</ele>
        <time>2021-06-21T13:00:42Z</time>
      </trkpt>
      <trkpt lat="44.41238" lon="6.75306">
        <ele>1347.1</ele>
        <time>2021-06-21T13:00:46Z</time>
      </trkpt>
      <trkpt lat="44.41243" lon="6.75318">
        <ele>1347.1</ele>
        <time>2021-06-21T13:00:50Z</time>
      </trkpt>
      <trkpt lat="44.41248" lon="6.75329">
        <ele>1347</ele>
        <time>2021-06-21T13:00:54Z</time>
      </trkpt>
      <trkpt lat="44.41255" lon="6.7534">
        <ele>1346.8</ele>
        <time>2021-06-21T13:00:58Z</time>
      </trkpt>
      <trkpt lat="44.4126" lon="6.75352">
        <ele>1347.5</ele>
        <time>2021-06-21T13:01:02Z</time>
      </trkpt>
      <trkpt lat="44.41265" lon="6.75365">
        <ele>1348.3</ele>
        <time>2021-06-21T13:01:06Z</time>
      </trkpt>
      <trkpt lat="44.41268" lon="6.75377">
        <ele>1349.5</ele>
        <time>2021-06-21T13:01:10Z</time>
      </trkpt>
      <trkpt lat="44.41271" lon="6.75389">
        <ele>1350.6</ele>
        <time>2021-06-21T13:01:14Z</time>
      </trkpt>
      <trkpt lat="44.41276" lon="6.75402">
        <ele>1351.2</ele>
        <time>2021-06-21T13:01:18Z</time>
      </trkpt>
      <trkpt lat="44.41281" lon="6.75415">
        <ele>1351.8</ele>
        <time>2021-06-21T13:01:22Z</time>
      </trkpt>
      <trkpt lat="44.41286" lon="6.75428">
        <ele>1351.5</ele>
        <time>2021-06-21T13:01:26Z</time>
      </trkpt>
      <trkpt lat="44.41291" lon="6.75441">
        <ele>1351.1</ele>
        <time>2021-06-21T13:01:30Z</time>
      </trkpt>
      <trkpt lat="44.41295" lon="6.75454">
        <ele>1351</ele>
        <time>2021-06-21T13:01:34Z</time>
      </trkpt>
      <trkpt lat="44.41299" lon="6.75467">
        <ele>1351</ele>
        <time>2021-06-21T13:01:38Z</time>
      </trkpt>
      <trkpt lat="44.41303" lon="6.7548">
        <ele>1351</ele>
        <time>2021-06-21T13:01:42Z</time>
      </trkpt>
      <trkpt lat="44.41305" lon="6.75493">
        <ele>1351.6</ele>
        <time>2021-06-21T13:01:46Z</time>
      </trkpt>
      <trkpt lat="44.41306" lon="6.75507">
        <ele>1352.2</ele>
        <time>2021-06-21T13:01:50Z</time>
      </trkpt>
      <trkpt lat="44.41306" lon="6.75521">
        <ele>1352.8</ele>
        <time>2021-06-21T13:01:54Z</time>
      </trkpt>
      <trkpt lat="44.41302" lon="6.75534">
        <ele>1354.3</ele>
        <time>2021-06-21T13:01:58Z</time>
      </trkpt>
      <trkpt lat="44.41299" lon="6.75546">
        <ele>1355.5</ele>
        <time>2021-06-21T13:02:02Z</time>
      </trkpt>
      <trkpt lat="44.41295" lon="6.75559">
        <ele>1356.9</ele>
        <time>2021-06-21T13:02:06Z</time>
      </trkpt>
      <trkpt lat="44.41291" lon="6.75571">
        <ele>1358.2</ele>
        <time>2021-06-21T13:02:10Z</time>
      </trkpt>
      <trkpt lat="44.41287" lon="6.75584">
        <ele>1359.5</ele>
        <time>2021-06-21T13:02:14Z</time>
      </trkpt>
      <trkpt lat="44.41281" lon="6.75593">
        <ele>1361.2</ele>
        <time>2021-06-21T13:02:18Z</time>
      </trkpt>
      <trkpt lat="44.41275" lon="6.75598">
        <ele>1362.7</ele>
        <time>2021-06-21T13:02:22Z</time>
      </trkpt>
      <trkpt lat="44.41271" lon="6.75602">
        <ele>1363.7</ele>
        <time>2021-06-21T13:02:26Z</time>
      </trkpt>
      <trkpt lat="44.41271" lon="6.75603">
        <ele>1363.8</ele>
        <time>2021-06-21T13:02:30Z</time>
      </trkpt>
      <trkpt lat="44.41267" lon="6.7561">
        <ele>1364.9</ele>
        <time>2021-06-21T13:02:34Z</time>
      </trkpt>
      <trkpt lat="44.41262" lon="6.75607">
        <ele>1365.8</ele>
        <time>2021-06-21T13:02:38Z</time>
      </trkpt>
      <trkpt lat="44.41256" lon="6.756">
        <ele>1366.6</ele>
        <time>2021-06-21T13:02:42Z</time>
      </trkpt>
      <trkpt lat="44.4125" lon="6.75591">
        <ele>1367.4</ele>
        <time>2021-06-21T13:02:46Z</time>
      </trkpt>
      <trkpt lat="44.41244" lon="6.75584">
        <ele>1368.9</ele>
        <time>2021-06-21T13:02:50Z</time>
      </trkpt>
      <trkpt lat="44.41235" lon="6.75582">
        <ele>1371.6</ele>
        <time>2021-06-21T13:02:54Z</time>
      </trkpt>
      <trkpt lat="44.41229" lon="6.75587">
        <ele>1373.7</ele>
        <time>2021-06-21T13:02:58Z</time>
      </trkpt>
      <trkpt lat="44.41227" lon="6.75596">
        <ele>1374.7</ele>
        <time>2021-06-21T13:03:02Z</time>
      </trkpt>
      <trkpt lat="44.41226" lon="6.75605">
        <ele>1375.5</ele>
        <time>2021-06-21T13:03:06Z</time>
      </trkpt>
      <trkpt lat="44.41225" lon="6.75616">
        <ele>1376.3</ele>
        <time>2021-06-21T13:03:10Z</time>
      </trkpt>
      <trkpt lat="44.41227" lon="6.75627">
        <ele>1376.1</ele>
        <time>2021-06-21T13:03:14Z</time>
      </trkpt>
      <trkpt lat="44.41229" lon="6.75636">
        <ele>1375.9</ele>
        <time>2021-06-21T13:03:18Z</time>
      </trkpt>
      <trkpt lat="44.4123" lon="6.75647">
        <ele>1376.1</ele>
        <time>2021-06-21T13:03:22Z</time>
      </trkpt>
      <trkpt lat="44.41231" lon="6.75658">
        <ele>1376.3</ele>
        <time>2021-06-21T13:03:26Z</time>
      </trkpt>
      <trkpt lat="44.4123" lon="6.75669">
        <ele>1377.1</ele>
        <time>2021-06-21T13:03:30Z</time>
      </trkpt>
      <trkpt lat="44.41227" lon="6.75679">
        <ele>1378.5</ele>
        <time>2021-06-21T13:03:34Z</time>
      </trkpt>
      <trkpt lat="44.41223" lon="6.75684">
        <ele>1379.9</ele>
        <time>2021-06-21T13:03:38Z</time>
      </trkpt>
      <trkpt lat="44.41221" lon="6.75687">
        <ele>1380.7</ele>
        <time>2021-06-21T13:03:42Z</time>
      </trkpt>
      <trkpt lat="44.4122" lon="6.7569">
        <ele>1381.1</ele>
        <time>2021-06-21T13:04:10Z</time>
      </trkpt>
      <trkpt lat="44.41217" lon="6.75693">
        <ele>1382</ele>
        <time>2021-06-21T13:04:14Z</time>
      </trkpt>
      <trkpt lat="44.41212" lon="6.75685">
        <ele>1383.1</ele>
        <time>2021-06-21T13:04:18Z</time>
      </trkpt>
      <trkpt lat="44.41216" lon="6.75683">
        <ele>1381.9</ele>
        <time>2021-06-21T13:04:22Z</time>
      </trkpt>
      <trkpt lat="44.4122" lon="6.75696">
        <ele>1381.4</ele>
        <time>2021-06-21T13:04:50Z</time>
      </trkpt>
      <trkpt lat="44.41218" lon="6.75703">
        <ele>1382.2</ele>
        <time>2021-06-21T13:04:54Z</time>
      </trkpt>
      <trkpt lat="44.41214" lon="6.75714">
        <ele>1383.7</ele>
        <time>2021-06-21T13:04:58Z</time>
      </trkpt>
      <trkpt lat="44.41212" lon="6.75729">
        <ele>1384.8</ele>
        <time>2021-06-21T13:05:02Z</time>
      </trkpt>
      <trkpt lat="44.41215" lon="6.75743">
        <ele>1384.7</ele>
        <time>2021-06-21T13:05:06Z</time>
      </trkpt>
      <trkpt lat="44.4122" lon="6.75755">
        <ele>1384.6</ele>
        <time>2021-06-21T13:05:10Z</time>
      </trkpt>
      <trkpt lat="44.41226" lon="6.75764">
        <ele>1384.8</ele>
        <time>2021-06-21T13:05:14Z</time>
      </trkpt>
      <trkpt lat="44.41233" lon="6.75771">
        <ele>1384.4</ele>
        <time>2021-06-21T13:05:18Z</time>
      </trkpt>
      <trkpt lat="44.4124" lon="6.75778">
        <ele>1384.1</ele>
        <time>2021-06-21T13:05:22Z</time>
      </trkpt>
      <trkpt lat="44.41248" lon="6.75784">
        <ele>1383.5</ele>
        <time>2021-06-21T13:05:26Z</time>
      </trkpt>
      <trkpt lat="44.41255" lon="6.7579">
        <ele>1383.6</ele>
        <time>2021-06-21T13:05:30Z</time>
      </trkpt>
      <trkpt lat="44.41266" lon="6.75797">
        <ele>1383.6</ele>
        <time>2021-06-21T13:05:34Z</time>
      </trkpt>
      <trkpt lat="44.41277" lon="6.75806">
        <ele>1384.1</ele>
        <time>2021-06-21T13:05:38Z</time>
      </trkpt>
      <trkpt lat="44.41288" lon="6.75815">
        <ele>1384.5</ele>
        <time>2021-06-21T13:05:42Z</time>
      </trkpt>
      <trkpt lat="44.41299" lon="6.75827">
        <ele>1385.5</ele>
        <time>2021-06-21T13:05:46Z</time>
      </trkpt>
      <trkpt lat="44.41305" lon="6.75839">
        <ele>1387.1</ele>
        <time>2021-06-21T13:05:50Z</time>
      </trkpt>
      <trkpt lat="44.41312" lon="6.75847">
        <ele>1387.8</ele>
        <time>2021-06-21T13:05:54Z</time>
      </trkpt>
      <trkpt lat="44.41319" lon="6.75853">
        <ele>1388.2</ele>
        <time>2021-06-21T13:05:58Z</time>
      </trkpt>
      <trkpt lat="44.41326" lon="6.75856">
        <ele>1388.1</ele>
        <time>2021-06-21T13:06:02Z</time>
      </trkpt>
      <trkpt lat="44.41332" lon="6.75859">
        <ele>1388.1</ele>
        <time>2021-06-21T13:06:06Z</time>
      </trkpt>
      <trkpt lat="44.41337" lon="6.75861">
        <ele>1387.8</ele>
        <time>2021-06-21T13:06:10Z</time>
      </trkpt>
      <trkpt lat="44.41344" lon="6.75864">
        <ele>1387.3</ele>
        <time>2021-06-21T13:06:14Z</time>
      </trkpt>
      <trkpt lat="44.41351" lon="6.7587">
        <ele>1387.6</ele>
        <time>2021-06-21T13:06:18Z</time>
      </trkpt>
      <trkpt lat="44.41357" lon="6.75875">
        <ele>1387.9</ele>
        <time>2021-06-21T13:06:22Z</time>
      </trkpt>
      <trkpt lat="44.41362" lon="6.75879">
        <ele>1388.1</ele>
        <time>2021-06-21T13:06:26Z</time>
      </trkpt>
      <trkpt lat="44.41366" lon="6.75883">
        <ele>1388.5</ele>
        <time>2021-06-21T13:06:50Z</time>
      </trkpt>
      <trkpt lat="44.41369" lon="6.75889">
        <ele>1389.6</ele>
        <time>2021-06-21T13:06:54Z</time>
      </trkpt>
      <trkpt lat="44.41375" lon="6.75894">
        <ele>1390.1</ele>
        <time>2021-06-21T13:06:58Z</time>
      </trkpt>
      <trkpt lat="44.41378" lon="6.75894">
        <ele>1389.7</ele>
        <time>2021-06-21T13:07:10Z</time>
      </trkpt>
      <trkpt lat="44.4138" lon="6.75898">
        <ele>1390.5</ele>
        <time>2021-06-21T13:07:26Z</time>
      </trkpt>
      <trkpt lat="44.41385" lon="6.75901">
        <ele>1390.7</ele>
        <time>2021-06-21T13:07:30Z</time>
      </trkpt>
      <trkpt lat="44.41401" lon="6.75899">
        <ele>1388.5</ele>
        <time>2021-06-21T13:07:34Z</time>
      </trkpt>
      <trkpt lat="44.41412" lon="6.75903">
        <ele>1388.5</ele>
        <time>2021-06-21T13:07:38Z</time>
      </trkpt>
      <trkpt lat="44.41416" lon="6.7591">
        <ele>1390.1</ele>
        <time>2021-06-21T13:07:42Z</time>
      </trkpt>
      <trkpt lat="44.41423" lon="6.75916">
        <ele>1390.6</ele>
        <time>2021-06-21T13:07:46Z</time>
      </trkpt>
      <trkpt lat="44.41431" lon="6.75924">
        <ele>1390.6</ele>
        <time>2021-06-21T13:07:50Z</time>
      </trkpt>
      <trkpt lat="44.41438" lon="6.75932">
        <ele>1390.7</ele>
        <time>2021-06-21T13:07:54Z</time>
      </trkpt>
      <trkpt lat="44.41441" lon="6.75939">
        <ele>1391.3</ele>
        <time>2021-06-21T13:07:58Z</time>
      </trkpt>
      <trkpt lat="44.4144" lon="6.75938">
        <ele>1391.3</ele>
        <time>2021-06-21T13:08:02Z</time>
      </trkpt>
      <trkpt lat="44.41436" lon="6.75929">
        <ele>1390.5</ele>
        <time>2021-06-21T13:08:06Z</time>
      </trkpt>
      <trkpt lat="44.41425" lon="6.75917">
        <ele>1390.5</ele>
        <time>2021-06-21T13:08:10Z</time>
      </trkpt>
      <trkpt lat="44.41419" lon="6.75909">
        <ele>1389.4</ele>
        <time>2021-06-21T13:08:14Z</time>
      </trkpt>
      <trkpt lat="44.41418" lon="6.75905">
        <ele>1388.4</ele>
        <time>2021-06-21T13:08:30Z</time>
      </trkpt>
      <trkpt lat="44.41406" lon="6.75899">
        <ele>1388</ele>
        <time>2021-06-21T13:08:34Z</time>
      </trkpt>
      <trkpt lat="44.41391" lon="6.75896">
        <ele>1388.8</ele>
        <time>2021-06-21T13:08:38Z</time>
      </trkpt>
      <trkpt lat="44.41391" lon="6.75896">
        <ele>1388.8</ele>
        <time>2021-06-21T13:08:54Z</time>
      </trkpt>
      <trkpt lat="44.41386" lon="6.75898">
        <ele>1389.9</ele>
        <time>2021-06-21T13:08:58Z</time>
      </trkpt>
      <trkpt lat="44.41379" lon="6.75893">
        <ele>1389.4</ele>
        <time>2021-06-21T13:09:02Z</time>
      </trkpt>
      <trkpt lat="44.41372" lon="6.75886">
        <ele>1388.5</ele>
        <time>2021-06-21T13:09:06Z</time>
      </trkpt>
      <trkpt lat="44.41367" lon="6.7588">
        <ele>1387.7</ele>
        <time>2021-06-21T13:09:10Z</time>
      </trkpt>
      <trkpt lat="44.41366" lon="6.75876">
        <ele>1386.9</ele>
        <time>2021-06-21T13:10:50Z</time>
      </trkpt>
      <trkpt lat="44.41355" lon="6.7587">
        <ele>1387.1</ele>
        <time>2021-06-21T13:10:54Z</time>
      </trkpt>
      <trkpt lat="44.41331" lon="6.75859">
        <ele>1388.2</ele>
        <time>2021-06-21T13:10:58Z</time>
      </trkpt>
      <trkpt lat="44.41305" lon="6.75834">
        <ele>1386.2</ele>
        <time>2021-06-21T13:11:02Z</time>
      </trkpt>
      <trkpt lat="44.41276" lon="6.7581">
        <ele>1384.9</ele>
        <time>2021-06-21T13:11:06Z</time>
      </trkpt>
      <trkpt lat="44.41251" lon="6.75792">
        <ele>1384.4</ele>
        <time>2021-06-21T13:11:10Z</time>
      </trkpt>
      <trkpt lat="44.41228" lon="6.7577">
        <ele>1385.3</ele>
        <time>2021-06-21T13:11:14Z</time>
      </trkpt>
      <trkpt lat="44.41213" lon="6.75736">
        <ele>1384.9</ele>
        <time>2021-06-21T13:11:18Z</time>
      </trkpt>
      <trkpt lat="44.41214" lon="6.75714">
        <ele>1383.7</ele>
        <time>2021-06-21T13:11:22Z</time>
      </trkpt>
      <trkpt lat="44.4122" lon="6.75703">
        <ele>1381.7</ele>
        <time>2021-06-21T13:11:26Z</time>
      </trkpt>
      <trkpt lat="44.41214" lon="6.75688">
        <ele>1382.7</ele>
        <time>2021-06-21T13:13:34Z</time>
      </trkpt>
      <trkpt lat="44.41219" lon="6.75691">
        <ele>1381.4</ele>
        <time>2021-06-21T13:14:38Z</time>
      </trkpt>
      <trkpt lat="44.41221" lon="6.75683">
        <ele>1380.5</ele>
        <time>2021-06-21T13:14:42Z</time>
      </trkpt>
      <trkpt lat="44.41212" lon="6.75673">
        <ele>1382.6</ele>
        <time>2021-06-21T13:14:46Z</time>
      </trkpt>
      <trkpt lat="44.41207" lon="6.75662">
        <ele>1383.7</ele>
        <time>2021-06-21T13:14:50Z</time>
      </trkpt>
      <trkpt lat="44.41203" lon="6.75648">
        <ele>1384.3</ele>
        <time>2021-06-21T13:14:54Z</time>
      </trkpt>
      <trkpt lat="44.412" lon="6.75631">
        <ele>1384.5</ele>
        <time>2021-06-21T13:14:58Z</time>
      </trkpt>
      <trkpt lat="44.41203" lon="6.75616">
        <ele>1383</ele>
        <time>2021-06-21T13:15:02Z</time>
      </trkpt>
      <trkpt lat="44.41205" lon="6.75603">
        <ele>1381.9</ele>
        <time>2021-06-21T13:15:06Z</time>
      </trkpt>
      <trkpt lat="44.41205" lon="6.75588">
        <ele>1381.2</ele>
        <time>2021-06-21T13:15:10Z</time>
      </trkpt>
      <trkpt lat="44.41204" lon="6.75574">
        <ele>1380.6</ele>
        <time>2021-06-21T13:15:14Z</time>
      </trkpt>
      <trkpt lat="44.412" lon="6.75562">
        <ele>1380.8</ele>
        <time>2021-06-21T13:15:18Z</time>
      </trkpt>
      <trkpt lat="44.41194" lon="6.75552">
        <ele>1381.6</ele>
        <time>2021-06-21T13:15:22Z</time>
      </trkpt>
      <trkpt lat="44.41185" lon="6.75545">
        <ele>1383.2</ele>
        <time>2021-06-21T13:15:26Z</time>
      </trkpt>
      <trkpt lat="44.41177" lon="6.7554">
        <ele>1384.7</ele>
        <time>2021-06-21T13:15:30Z</time>
      </trkpt>
      <trkpt lat="44.41168" lon="6.75534">
        <ele>1386.2</ele>
        <time>2021-06-21T13:15:34Z</time>
      </trkpt>
      <trkpt lat="44.41158" lon="6.75527">
        <ele>1387.2</ele>
        <time>2021-06-21T13:15:38Z</time>
      </trkpt>
      <trkpt lat="44.41151" lon="6.75517">
        <ele>1387.3</ele>
        <time>2021-06-21T13:15:42Z</time>
      </trkpt>
      <trkpt lat="44.41144" lon="6.75508">
        <ele>1387.4</ele>
        <time>2021-06-21T13:15:46Z</time>
      </trkpt>
      <trkpt lat="44.41138" lon="6.75497">
        <ele>1387.3</ele>
        <time>2021-06-21T13:15:50Z</time>
      </trkpt>
      <trkpt lat="44.41132" lon="6.75486">
        <ele>1387.8</ele>
        <time>2021-06-21T13:15:54Z</time>
      </trkpt>
      <trkpt lat="44.41125" lon="6.75477">
        <ele>1388.5</ele>
        <time>2021-06-21T13:15:58Z</time>
      </trkpt>
      <trkpt lat="44.41116" lon="6.75473">
        <ele>1389.8</ele>
        <time>2021-06-21T13:16:02Z</time>
      </trkpt>
      <trkpt lat="44.41108" lon="6.7547">
        <ele>1390.9</ele>
        <time>2021-06-21T13:16:06Z</time>
      </trkpt>
      <trkpt lat="44.411" lon="6.75466">
        <ele>1391.9</ele>
        <time>2021-06-21T13:16:10Z</time>
      </trkpt>
      <trkpt lat="44.41094" lon="6.75462">
        <ele>1392.6</ele>
        <time>2021-06-21T13:16:14Z</time>
      </trkpt>
      <trkpt lat="44.41087" lon="6.75457">
        <ele>1393.3</ele>
        <time>2021-06-21T13:16:18Z</time>
      </trkpt>
      <trkpt lat="44.41081" lon="6.75451">
        <ele>1394.2</ele>
        <time>2021-06-21T13:16:22Z</time>
      </trkpt>
      <trkpt lat="44.41077" lon="6.75445">
        <ele>1395.1</ele>
        <time>2021-06-21T13:16:26Z</time>
      </trkpt>
      <trkpt lat="44.41071" lon="6.75437">
        <ele>1396.5</ele>
        <time>2021-06-21T13:16:30Z</time>
      </trkpt>
      <trkpt lat="44.41067" lon="6.7543">
        <ele>1397.3</ele>
        <time>2021-06-21T13:16:34Z</time>
      </trkpt>
      <trkpt lat="44.41062" lon="6.75422">
        <ele>1398.2</ele>
        <time>2021-06-21T13:16:38Z</time>
      </trkpt>
      <trkpt lat="44.41055" lon="6.75409">
        <ele>1399.6</ele>
        <time>2021-06-21T13:16:42Z</time>
      </trkpt>
      <trkpt lat="44.41049" lon="6.75393">
        <ele>1400.2</ele>
        <time>2021-06-21T13:16:46Z</time>
      </trkpt>
      <trkpt lat="44.41044" lon="6.75381">
        <ele>1400.5</ele>
        <time>2021-06-21T13:16:50Z</time>
      </trkpt>
      <trkpt lat="44.41039" lon="6.75369">
        <ele>1400.6</ele>
        <time>2021-06-21T13:16:54Z</time>
      </trkpt>
      <trkpt lat="44.41038" lon="6.75357">
        <ele>1399.4</ele>
        <time>2021-06-21T13:16:58Z</time>
      </trkpt>
      <trkpt lat="44.41037" lon="6.75344">
        <ele>1398.1</ele>
        <time>2021-06-21T13:17:02Z</time>
      </trkpt>
      <trkpt lat="44.41037" lon="6.75332">
        <ele>1396.8</ele>
        <time>2021-06-21T13:17:06Z</time>
      </trkpt>
      <trkpt lat="44.41036" lon="6.75323">
        <ele>1396.3</ele>
        <time>2021-06-21T13:17:10Z</time>
      </trkpt>
      <trkpt lat="44.41031" lon="6.75314">
        <ele>1396.4</ele>
        <time>2021-06-21T13:17:14Z</time>
      </trkpt>
      <trkpt lat="44.41023" lon="6.75315">
        <ele>1397.7</ele>
        <time>2021-06-21T13:17:18Z</time>
      </trkpt>
      <trkpt lat="44.41016" lon="6.75319">
        <ele>1399.3</ele>
        <time>2021-06-21T13:17:22Z</time>
      </trkpt>
      <trkpt lat="44.41009" lon="6.75323">
        <ele>1401</ele>
        <time>2021-06-21T13:17:26Z</time>
      </trkpt>
      <trkpt lat="44.41001" lon="6.75327">
        <ele>1402.9</ele>
        <time>2021-06-21T13:17:30Z</time>
      </trkpt>
      <trkpt lat="44.40993" lon="6.75332">
        <ele>1404.6</ele>
        <time>2021-06-21T13:17:34Z</time>
      </trkpt>
      <trkpt lat="44.40984" lon="6.75336">
        <ele>1406.3</ele>
        <time>2021-06-21T13:17:38Z</time>
      </trkpt>
      <trkpt lat="44.40976" lon="6.75339">
        <ele>1407.7</ele>
        <time>2021-06-21T13:17:42Z</time>
      </trkpt>
      <trkpt lat="44.40968" lon="6.75341">
        <ele>1409</ele>
        <time>2021-06-21T13:17:46Z</time>
      </trkpt>
      <trkpt lat="44.40959" lon="6.75342">
        <ele>1410.2</ele>
        <time>2021-06-21T13:17:50Z</time>
      </trkpt>
      <trkpt lat="44.4095" lon="6.75342">
        <ele>1411.2</ele>
        <time>2021-06-21T13:17:54Z</time>
      </trkpt>
      <trkpt lat="44.4094" lon="6.7534">
        <ele>1411.9</ele>
        <time>2021-06-21T13:17:58Z</time>
      </trkpt>
      <trkpt lat="44.40931" lon="6.75339">
        <ele>1412.7</ele>
        <time>2021-06-21T13:18:02Z</time>
      </trkpt>
      <trkpt lat="44.40922" lon="6.75338">
        <ele>1413.4</ele>
        <time>2021-06-21T13:18:06Z</time>
      </trkpt>
      <trkpt lat="44.40912" lon="6.75339">
        <ele>1414.3</ele>
        <time>2021-06-21T13:18:10Z</time>
      </trkpt>
      <trkpt lat="44.40903" lon="6.75341">
        <ele>1414.7</ele>
        <time>2021-06-21T13:18:14Z</time>
      </trkpt>
      <trkpt lat="44.40894" lon="6.75345">
        <ele>1415.6</ele>
        <time>2021-06-21T13:18:18Z</time>
      </trkpt>
      <trkpt lat="44.40886" lon="6.7535">
        <ele>1416.5</ele>
        <time>2021-06-21T13:18:22Z</time>
      </trkpt>
      <trkpt lat="44.40878" lon="6.75356">
        <ele>1417.6</ele>
        <time>2021-06-21T13:18:26Z</time>
      </trkpt>
      <trkpt lat="44.40871" lon="6.75363">
        <ele>1418.8</ele>
        <time>2021-06-21T13:18:30Z</time>
      </trkpt>
      <trkpt lat="44.40864" lon="6.75371">
        <ele>1420.1</ele>
        <time>2021-06-21T13:18:34Z</time>
      </trkpt>
      <trkpt lat="44.40857" lon="6.75379">
        <ele>1421.2</ele>
        <time>2021-06-21T13:18:38Z</time>
      </trkpt>
      <trkpt lat="44.4085" lon="6.75386">
        <ele>1422.1</ele>
        <time>2021-06-21T13:18:42Z</time>
      </trkpt>
      <trkpt lat="44.40844" lon="6.75392">
        <ele>1422.9</ele>
        <time>2021-06-21T13:18:46Z</time>
      </trkpt>
      <trkpt lat="44.40836" lon="6.75398">
        <ele>1423.4</ele>
        <time>2021-06-21T13:18:50Z</time>
      </trkpt>
      <trkpt lat="44.40828" lon="6.75403">
        <ele>1424.4</ele>
        <time>2021-06-21T13:18:54Z</time>
      </trkpt>
      <trkpt lat="44.4082" lon="6.75406">
        <ele>1425.2</ele>
        <time>2021-06-21T13:18:58Z</time>
      </trkpt>
      <trkpt lat="44.40812" lon="6.75409">
        <ele>1426.1</ele>
        <time>2021-06-21T13:19:02Z</time>
      </trkpt>
      <trkpt lat="44.40803" lon="6.7541">
        <ele>1426.7</ele>
        <time>2021-06-21T13:19:06Z</time>
      </trkpt>
      <trkpt lat="44.40795" lon="6.75412">
        <ele>1427.3</ele>
        <time>2021-06-21T13:19:10Z</time>
      </trkpt>
      <trkpt lat="44.40787" lon="6.75413">
        <ele>1427.8</ele>
        <time>2021-06-21T13:19:14Z</time>
      </trkpt>
      <trkpt lat="44.40779" lon="6.75413">
        <ele>1428.3</ele>
        <time>2021-06-21T13:19:18Z</time>
      </trkpt>
      <trkpt lat="44.40771" lon="6.75414">
        <ele>1428.8</ele>
        <time>2021-06-21T13:19:22Z</time>
      </trkpt>
      <trkpt lat="44.40763" lon="6.75417">
        <ele>1429.4</ele>
        <time>2021-06-21T13:19:26Z</time>
      </trkpt>
      <trkpt lat="44.40755" lon="6.75422">
        <ele>1429.9</ele>
        <time>2021-06-21T13:19:30Z</time>
      </trkpt>
      <trkpt lat="44.40748" lon="6.75428">
        <ele>1430.3</ele>
        <time>2021-06-21T13:19:34Z</time>
      </trkpt>
      <trkpt lat="44.4074" lon="6.75434">
        <ele>1430.5</ele>
        <time>2021-06-21T13:19:38Z</time>
      </trkpt>
      <trkpt lat="44.40733" lon="6.7544">
        <ele>1430.8</ele>
        <time>2021-06-21T13:19:42Z</time>
      </trkpt>
      <trkpt lat="44.40728" lon="6.75445">
        <ele>1431</ele>
        <time>2021-06-21T13:19:46Z</time>
      </trkpt>
      <trkpt lat="44.40727" lon="6.75443">
        <ele>1431</ele>
        <time>2021-06-21T13:20:18Z</time>
      </trkpt>
      <trkpt lat="44.40729" lon="6.7544">
        <ele>1430.8</ele>
        <time>2021-06-21T13:20:22Z</time>
      </trkpt>
      <trkpt lat="44.40733" lon="6.75444">
        <ele>1430.9</ele>
        <time>2021-06-21T13:20:26Z</time>
      </trkpt>
      <trkpt lat="44.40729" lon="6.75452">
        <ele>1431.3</ele>
        <time>2021-06-21T13:20:30Z</time>
      </trkpt>
      <trkpt lat="44.40726" lon="6.75463">
        <ele>1431.9</ele>
        <time>2021-06-21T13:20:34Z</time>
      </trkpt>
      <trkpt lat="44.40723" lon="6.75473">
        <ele>1432.6</ele>
        <time>2021-06-21T13:20:38Z</time>
      </trkpt>
      <trkpt lat="44.40721" lon="6.75484">
        <ele>1433.2</ele>
        <time>2021-06-21T13:20:42Z</time>
      </trkpt>
      <trkpt lat="44.40719" lon="6.75495">
        <ele>1434</ele>
        <time>2021-06-21T13:20:46Z</time>
      </trkpt>
      <trkpt lat="44.40716" lon="6.75505">
        <ele>1435</ele>
        <time>2021-06-21T13:20:50Z</time>
      </trkpt>
      <trkpt lat="44.40713" lon="6.75515">
        <ele>1436.3</ele>
        <time>2021-06-21T13:20:54Z</time>
      </trkpt>
      <trkpt lat="44.40709" lon="6.75525">
        <ele>1437.8</ele>
        <time>2021-06-21T13:20:58Z</time>
      </trkpt>
      <trkpt lat="44.40703" lon="6.75531">
        <ele>1439</ele>
        <time>2021-06-21T13:21:02Z</time>
      </trkpt>
      <trkpt lat="44.40696" lon="6.75537">
        <ele>1440.3</ele>
        <time>2021-06-21T13:21:06Z</time>
      </trkpt>
      <trkpt lat="44.40687" lon="6.75537">
        <ele>1441.1</ele>
        <time>2021-06-21T13:21:10Z</time>
      </trkpt>
      <trkpt lat="44.40679" lon="6.75533">
        <ele>1441.3</ele>
        <time>2021-06-21T13:21:14Z</time>
      </trkpt>
      <trkpt lat="44.4067" lon="6.75524">
        <ele>1440.9</ele>
        <time>2021-06-21T13:21:18Z</time>
      </trkpt>
      <trkpt lat="44.40664" lon="6.75514">
        <ele>1440</ele>
        <time>2021-06-21T13:21:22Z</time>
      </trkpt>
      <trkpt lat="44.40658" lon="6.75502">
        <ele>1438.8</ele>
        <time>2021-06-21T13:21:26Z</time>
      </trkpt>
      <trkpt lat="44.40653" lon="6.75492">
        <ele>1437.8</ele>
        <time>2021-06-21T13:21:30Z</time>
      </trkpt>
      <trkpt lat="44.40647" lon="6.75481">
        <ele>1436.6</ele>
        <time>2021-06-21T13:21:34Z</time>
      </trkpt>
      <trkpt lat="44.4064" lon="6.7547">
        <ele>1435.3</ele>
        <time>2021-06-21T13:21:38Z</time>
      </trkpt>
      <trkpt lat="44.40632" lon="6.75462">
        <ele>1434.3</ele>
        <time>2021-06-21T13:21:42Z</time>
      </trkpt>
      <trkpt lat="44.40623" lon="6.75457">
        <ele>1433.5</ele>
        <time>2021-06-21T13:21:46Z</time>
      </trkpt>
      <trkpt lat="44.40613" lon="6.75454">
        <ele>1433.1</ele>
        <time>2021-06-21T13:21:50Z</time>
      </trkpt>
      <trkpt lat="44.40604" lon="6.75456">
        <ele>1433.4</ele>
        <time>2021-06-21T13:21:54Z</time>
      </trkpt>
      <trkpt lat="44.40595" lon="6.75458">
        <ele>1433.9</ele>
        <time>2021-06-21T13:21:58Z</time>
      </trkpt>
      <trkpt lat="44.40587" lon="6.75462">
        <ele>1434.8</ele>
        <time>2021-06-21T13:22:02Z</time>
      </trkpt>
      <trkpt lat="44.40579" lon="6.7547">
        <ele>1434.5</ele>
        <time>2021-06-21T13:22:06Z</time>
      </trkpt>
      <trkpt lat="44.40571" lon="6.75482">
        <ele>1433.4</ele>
        <time>2021-06-21T13:22:10Z</time>
      </trkpt>
      <trkpt lat="44.40565" lon="6.75497">
        <ele>1433.8</ele>
        <time>2021-06-21T13:22:14Z</time>
      </trkpt>
      <trkpt lat="44.40561" lon="6.75513">
        <ele>1433.9</ele>
        <time>2021-06-21T13:22:18Z</time>
      </trkpt>
      <trkpt lat="44.40558" lon="6.75529">
        <ele>1434.2</ele>
        <time>2021-06-21T13:22:22Z</time>
      </trkpt>
      <trkpt lat="44.40556" lon="6.75546">
        <ele>1435.2</ele>
        <time>2021-06-21T13:22:26Z</time>
      </trkpt>
      <trkpt lat="44.40555" lon="6.75563">
        <ele>1436.6</ele>
        <time>2021-06-21T13:22:30Z</time>
      </trkpt>
      <trkpt lat="44.40557" lon="6.75581">
        <ele>1439.3</ele>
        <time>2021-06-21T13:22:34Z</time>
      </trkpt>
      <trkpt lat="44.40559" lon="6.75599">
        <ele>1441.9</ele>
        <time>2021-06-21T13:22:38Z</time>
      </trkpt>
      <trkpt lat="44.40561" lon="6.75616">
        <ele>1444.3</ele>
        <time>2021-06-21T13:22:42Z</time>
      </trkpt>
      <trkpt lat="44.40559" lon="6.75632">
        <ele>1445.2</ele>
        <time>2021-06-21T13:22:46Z</time>
      </trkpt>
      <trkpt lat="44.40554" lon="6.75646">
        <ele>1445.1</ele>
        <time>2021-06-21T13:22:50Z</time>
      </trkpt>
      <trkpt lat="44.40547" lon="6.7566">
        <ele>1444.6</ele>
        <time>2021-06-21T13:22:54Z</time>
      </trkpt>
      <trkpt lat="44.4054" lon="6.75674">
        <ele>1444.9</ele>
        <time>2021-06-21T13:22:58Z</time>
      </trkpt>
      <trkpt lat="44.40533" lon="6.75687">
        <ele>1445.7</ele>
        <time>2021-06-21T13:23:02Z</time>
      </trkpt>
      <trkpt lat="44.40527" lon="6.75699">
        <ele>1446.8</ele>
        <time>2021-06-21T13:23:06Z</time>
      </trkpt>
      <trkpt lat="44.4052" lon="6.7571">
        <ele>1447.6</ele>
        <time>2021-06-21T13:23:10Z</time>
      </trkpt>
      <trkpt lat="44.40513" lon="6.75722">
        <ele>1448.8</ele>
        <time>2021-06-21T13:23:14Z</time>
      </trkpt>
      <trkpt lat="44.40507" lon="6.75735">
        <ele>1450.6</ele>
        <time>2021-06-21T13:23:18Z</time>
      </trkpt>
      <trkpt lat="44.40502" lon="6.75748">
        <ele>1452.8</ele>
        <time>2021-06-21T13:23:22Z</time>
      </trkpt>
      <trkpt lat="44.40499" lon="6.75761">
        <ele>1453.6</ele>
        <time>2021-06-21T13:23:26Z</time>
      </trkpt>
      <trkpt lat="44.40498" lon="6.75775">
        <ele>1454.4</ele>
        <time>2021-06-21T13:23:30Z</time>
      </trkpt>
      <trkpt lat="44.40499" lon="6.75789">
        <ele>1456.3</ele>
        <time>2021-06-21T13:23:34Z</time>
      </trkpt>
      <trkpt lat="44.40501" lon="6.75802">
        <ele>1458.2</ele>
        <time>2021-06-21T13:23:38Z</time>
      </trkpt>
      <trkpt lat="44.40504" lon="6.75815">
        <ele>1459.9</ele>
        <time>2021-06-21T13:23:42Z</time>
      </trkpt>
      <trkpt lat="44.40507" lon="6.75828">
        <ele>1461.7</ele>
        <time>2021-06-21T13:23:46Z</time>
      </trkpt>
      <trkpt lat="44.40509" lon="6.75841">
        <ele>1463.1</ele>
        <time>2021-06-21T13:23:50Z</time>
      </trkpt>
      <trkpt lat="44.40511" lon="6.75854">
        <ele>1464.4</ele>
        <time>2021-06-21T13:23:54Z</time>
      </trkpt>
      <trkpt lat="44.40512" lon="6.75867">
        <ele>1465.6</ele>
        <time>2021-06-21T13:23:58Z</time>
      </trkpt>
      <trkpt lat="44.40512" lon="6.75881">
        <ele>1466.7</ele>
        <time>2021-06-21T13:24:02Z</time>
      </trkpt>
      <trkpt lat="44.40511" lon="6.75895">
        <ele>1467.6</ele>
        <time>2021-06-21T13:24:06Z</time>
      </trkpt>
      <trkpt lat="44.40508" lon="6.7591">
        <ele>1468.1</ele>
        <time>2021-06-21T13:24:10Z</time>
      </trkpt>
      <trkpt lat="44.40504" lon="6.75922">
        <ele>1468.7</ele>
        <time>2021-06-21T13:24:14Z</time>
      </trkpt>
      <trkpt lat="44.40499" lon="6.75935">
        <ele>1469.8</ele>
        <time>2021-06-21T13:24:18Z</time>
      </trkpt>
      <trkpt lat="44.40495" lon="6.75947">
        <ele>1470.6</ele>
        <time>2021-06-21T13:24:22Z</time>
      </trkpt>
      <trkpt lat="44.40489" lon="6.75958">
        <ele>1470.6</ele>
        <time>2021-06-21T13:24:26Z</time>
      </trkpt>
      <trkpt lat="44.40483" lon="6.75969">
        <ele>1470.8</ele>
        <time>2021-06-21T13:24:30Z</time>
      </trkpt>
      <trkpt lat="44.40478" lon="6.75981">
        <ele>1471.5</ele>
        <time>2021-06-21T13:24:34Z</time>
      </trkpt>
      <trkpt lat="44.40472" lon="6.75991">
        <ele>1471.6</ele>
        <time>2021-06-21T13:24:38Z</time>
      </trkpt>
      <trkpt lat="44.40466" lon="6.76001">
        <ele>1471.9</ele>
        <time>2021-06-21T13:24:42Z</time>
      </trkpt>
      <trkpt lat="44.4046" lon="6.76011">
        <ele>1473.4</ele>
        <time>2021-06-21T13:24:46Z</time>
      </trkpt>
      <trkpt lat="44.40454" lon="6.7602">
        <ele>1474.8</ele>
        <time>2021-06-21T13:24:50Z</time>
      </trkpt>
      <trkpt lat="44.40448" lon="6.7603">
        <ele>1476.5</ele>
        <time>2021-06-21T13:24:54Z</time>
      </trkpt>
      <trkpt lat="44.4044" lon="6.76038">
        <ele>1477.2</ele>
        <time>2021-06-21T13:24:58Z</time>
      </trkpt>
      <trkpt lat="44.40432" lon="6.76046">
        <ele>1478.1</ele>
        <time>2021-06-21T13:25:02Z</time>
      </trkpt>
      <trkpt lat="44.40424" lon="6.76053">
        <ele>1478.7</ele>
        <time>2021-06-21T13:25:06Z</time>
      </trkpt>
      <trkpt lat="44.40414" lon="6.76057">
        <ele>1478</ele>
        <time>2021-06-21T13:25:10Z</time>
      </trkpt>
      <trkpt lat="44.40405" lon="6.7606">
        <ele>1477.2</ele>
        <time>2021-06-21T13:25:14Z</time>
      </trkpt>
      <trkpt lat="44.40394" lon="6.76062">
        <ele>1475.7</ele>
        <time>2021-06-21T13:25:18Z</time>
      </trkpt>
      <trkpt lat="44.40384" lon="6.76066">
        <ele>1475</ele>
        <time>2021-06-21T13:25:22Z</time>
      </trkpt>
      <trkpt lat="44.40374" lon="6.76071">
        <ele>1474.6</ele>
        <time>2021-06-21T13:25:26Z</time>
      </trkpt>
      <trkpt lat="44.40366" lon="6.76079">
        <ele>1475.6</ele>
        <time>2021-06-21T13:25:30Z</time>
      </trkpt>
      <trkpt lat="44.40358" lon="6.76087">
        <ele>1476</ele>
        <time>2021-06-21T13:25:34Z</time>
      </trkpt>
      <trkpt lat="44.40351" lon="6.76098">
        <ele>1476.2</ele>
        <time>2021-06-21T13:25:38Z</time>
      </trkpt>
      <trkpt lat="44.40346" lon="6.76111">
        <ele>1476.9</ele>
        <time>2021-06-21T13:25:42Z</time>
      </trkpt>
      <trkpt lat="44.40342" lon="6.76125">
        <ele>1477.9</ele>
        <time>2021-06-21T13:25:46Z</time>
      </trkpt>
      <trkpt lat="44.4034" lon="6.76139">
        <ele>1479.4</ele>
        <time>2021-06-21T13:25:50Z</time>
      </trkpt>
      <trkpt lat="44.4034" lon="6.76153">
        <ele>1481.4</ele>
        <time>2021-06-21T13:25:54Z</time>
      </trkpt>
      <trkpt lat="44.4034" lon="6.76168">
        <ele>1483.4</ele>
        <time>2021-06-21T13:25:58Z</time>
      </trkpt>
      <trkpt lat="44.40339" lon="6.76182">
        <ele>1484.4</ele>
        <time>2021-06-21T13:26:02Z</time>
      </trkpt>
      <trkpt lat="44.4034" lon="6.76197">
        <ele>1486.2</ele>
        <time>2021-06-21T13:26:06Z</time>
      </trkpt>
      <trkpt lat="44.4034" lon="6.76211">
        <ele>1487.6</ele>
        <time>2021-06-21T13:26:10Z</time>
      </trkpt>
      <trkpt lat="44.40339" lon="6.76224">
        <ele>1488.5</ele>
        <time>2021-06-21T13:26:14Z</time>
      </trkpt>
      <trkpt lat="44.40337" lon="6.76238">
        <ele>1489.1</ele>
        <time>2021-06-21T13:26:18Z</time>
      </trkpt>
      <trkpt lat="44.40333" lon="6.76251">
        <ele>1489.1</ele>
        <time>2021-06-21T13:26:22Z</time>
      </trkpt>
      <trkpt lat="44.40331" lon="6.76262">
        <ele>1490.6</ele>
        <time>2021-06-21T13:26:26Z</time>
      </trkpt>
      <trkpt lat="44.40328" lon="6.76274">
        <ele>1491.9</ele>
        <time>2021-06-21T13:26:30Z</time>
      </trkpt>
      <trkpt lat="44.40326" lon="6.76286">
        <ele>1493.6</ele>
        <time>2021-06-21T13:26:34Z</time>
      </trkpt>
      <trkpt lat="44.40322" lon="6.76297">
        <ele>1494.3</ele>
        <time>2021-06-21T13:26:38Z</time>
      </trkpt>
      <trkpt lat="44.40318" lon="6.76307">
        <ele>1494.8</ele>
        <time>2021-06-21T13:26:42Z</time>
      </trkpt>
      <trkpt lat="44.40314" lon="6.76318">
        <ele>1495.5</ele>
        <time>2021-06-21T13:26:46Z</time>
      </trkpt>
      <trkpt lat="44.4031" lon="6.76329">
        <ele>1496.1</ele>
        <time>2021-06-21T13:26:50Z</time>
      </trkpt>
      <trkpt lat="44.40305" lon="6.76339">
        <ele>1496.1</ele>
        <time>2021-06-21T13:26:54Z</time>
      </trkpt>
      <trkpt lat="44.40301" lon="6.7635">
        <ele>1496.6</ele>
        <time>2021-06-21T13:26:58Z</time>
      </trkpt>
      <trkpt lat="44.40295" lon="6.7636">
        <ele>1496.2</ele>
        <time>2021-06-21T13:27:02Z</time>
      </trkpt>
      <trkpt lat="44.40291" lon="6.76371">
        <ele>1496.6</ele>
        <time>2021-06-21T13:27:06Z</time>
      </trkpt>
      <trkpt lat="44.40286" lon="6.76382">
        <ele>1496.5</ele>
        <time>2021-06-21T13:27:10Z</time>
      </trkpt>
      <trkpt lat="44.40282" lon="6.76393">
        <ele>1496.8</ele>
        <time>2021-06-21T13:27:14Z</time>
      </trkpt>
      <trkpt lat="44.40277" lon="6.76404">
        <ele>1496.7</ele>
        <time>2021-06-21T13:27:18Z</time>
      </trkpt>
      <trkpt lat="44.40273" lon="6.76416">
        <ele>1497</ele>
        <time>2021-06-21T13:27:22Z</time>
      </trkpt>
      <trkpt lat="44.40269" lon="6.76426">
        <ele>1497.1</ele>
        <time>2021-06-21T13:27:26Z</time>
      </trkpt>
      <trkpt lat="44.40265" lon="6.76437">
        <ele>1497.4</ele>
        <time>2021-06-21T13:27:30Z</time>
      </trkpt>
      <trkpt lat="44.40262" lon="6.76448">
        <ele>1498</ele>
        <time>2021-06-21T13:27:34Z</time>
      </trkpt>
      <trkpt lat="44.4026" lon="6.7646">
        <ele>1499.2</ele>
        <time>2021-06-21T13:27:38Z</time>
      </trkpt>
      <trkpt lat="44.40258" lon="6.76472">
        <ele>1500.5</ele>
        <time>2021-06-21T13:27:42Z</time>
      </trkpt>
      <trkpt lat="44.40255" lon="6.76484">
        <ele>1501.3</ele>
        <time>2021-06-21T13:27:46Z</time>
      </trkpt>
      <trkpt lat="44.40253" lon="6.76497">
        <ele>1502.7</ele>
        <time>2021-06-21T13:27:50Z</time>
      </trkpt>
      <trkpt lat="44.4025" lon="6.76511">
        <ele>1504</ele>
        <time>2021-06-21T13:27:54Z</time>
      </trkpt>
      <trkpt lat="44.40247" lon="6.76524">
        <ele>1506.1</ele>
        <time>2021-06-21T13:27:58Z</time>
      </trkpt>
      <trkpt lat="44.40244" lon="6.76538">
        <ele>1508.3</ele>
        <time>2021-06-21T13:28:02Z</time>
      </trkpt>
      <trkpt lat="44.4024" lon="6.76552">
        <ele>1510.5</ele>
        <time>2021-06-21T13:28:06Z</time>
      </trkpt>
      <trkpt lat="44.40237" lon="6.76565">
        <ele>1512.5</ele>
        <time>2021-06-21T13:28:10Z</time>
      </trkpt>
      <trkpt lat="44.40232" lon="6.76577">
        <ele>1514.2</ele>
        <time>2021-06-21T13:28:14Z</time>
      </trkpt>
      <trkpt lat="44.40224" lon="6.76584">
        <ele>1514.6</ele>
        <time>2021-06-21T13:28:18Z</time>
      </trkpt>
      <trkpt lat="44.40214" lon="6.76589">
        <ele>1514.5</ele>
        <time>2021-06-21T13:28:22Z</time>
      </trkpt>
      <trkpt lat="44.40205" lon="6.76592">
        <ele>1514.3</ele>
        <time>2021-06-21T13:28:26Z</time>
      </trkpt>
      <trkpt lat="44.40196" lon="6.76592">
        <ele>1513.5</ele>
        <time>2021-06-21T13:28:30Z</time>
      </trkpt>
      <trkpt lat="44.40187" lon="6.76592">
        <ele>1512.7</ele>
        <time>2021-06-21T13:28:34Z</time>
      </trkpt>
      <trkpt lat="44.40178" lon="6.76591">
        <ele>1511.7</ele>
        <time>2021-06-21T13:28:38Z</time>
      </trkpt>
      <trkpt lat="44.40169" lon="6.76591">
        <ele>1511</ele>
        <time>2021-06-21T13:28:42Z</time>
      </trkpt>
      <trkpt lat="44.4016" lon="6.76592">
        <ele>1510.3</ele>
        <time>2021-06-21T13:28:46Z</time>
      </trkpt>
      <trkpt lat="44.40152" lon="6.76594">
        <ele>1510</ele>
        <time>2021-06-21T13:28:50Z</time>
      </trkpt>
      <trkpt lat="44.40143" lon="6.76599">
        <ele>1510.1</ele>
        <time>2021-06-21T13:28:54Z</time>
      </trkpt>
      <trkpt lat="44.40135" lon="6.76605">
        <ele>1510.6</ele>
        <time>2021-06-21T13:28:58Z</time>
      </trkpt>
      <trkpt lat="44.40127" lon="6.76613">
        <ele>1511.4</ele>
        <time>2021-06-21T13:29:02Z</time>
      </trkpt>
      <trkpt lat="44.4012" lon="6.76621">
        <ele>1512.3</ele>
        <time>2021-06-21T13:29:06Z</time>
      </trkpt>
      <trkpt lat="44.40114" lon="6.7663">
        <ele>1513.5</ele>
        <time>2021-06-21T13:29:10Z</time>
      </trkpt>
      <trkpt lat="44.40109" lon="6.76638">
        <ele>1514.6</ele>
        <time>2021-06-21T13:29:14Z</time>
      </trkpt>
      <trkpt lat="44.40103" lon="6.76647">
        <ele>1515.7</ele>
        <time>2021-06-21T13:29:18Z</time>
      </trkpt>
      <trkpt lat="44.40097" lon="6.76657">
        <ele>1516.9</ele>
        <time>2021-06-21T13:29:22Z</time>
      </trkpt>
      <trkpt lat="44.40091" lon="6.76666">
        <ele>1517.9</ele>
        <time>2021-06-21T13:29:26Z</time>
      </trkpt>
      <trkpt lat="44.40086" lon="6.76676">
        <ele>1519.5</ele>
        <time>2021-06-21T13:29:30Z</time>
      </trkpt>
      <trkpt lat="44.4008" lon="6.76686">
        <ele>1521</ele>
        <time>2021-06-21T13:29:34Z</time>
      </trkpt>
      <trkpt lat="44.40074" lon="6.76695">
        <ele>1522.5</ele>
        <time>2021-06-21T13:29:38Z</time>
      </trkpt>
      <trkpt lat="44.40068" lon="6.76704">
        <ele>1523.9</ele>
        <time>2021-06-21T13:29:42Z</time>
      </trkpt>
      <trkpt lat="44.40061" lon="6.76712">
        <ele>1524.9</ele>
        <time>2021-06-21T13:29:46Z</time>
      </trkpt>
      <trkpt lat="44.40055" lon="6.7672">
        <ele>1526.1</ele>
        <time>2021-06-21T13:29:50Z</time>
      </trkpt>
      <trkpt lat="44.40048" lon="6.76728">
        <ele>1527.2</ele>
        <time>2021-06-21T13:29:54Z</time>
      </trkpt>
      <trkpt lat="44.40041" lon="6.76736">
        <ele>1528.2</ele>
        <time>2021-06-21T13:29:58Z</time>
      </trkpt>
      <trkpt lat="44.40034" lon="6.76744">
        <ele>1529.3</ele>
        <time>2021-06-21T13:30:02Z</time>
      </trkpt>
      <trkpt lat="44.40028" lon="6.76751">
        <ele>1530.2</ele>
        <time>2021-06-21T13:30:06Z</time>
      </trkpt>
      <trkpt lat="44.40021" lon="6.76759">
        <ele>1530.6</ele>
        <time>2021-06-21T13:30:10Z</time>
      </trkpt>
      <trkpt lat="44.40015" lon="6.76766">
        <ele>1531</ele>
        <time>2021-06-21T13:30:14Z</time>
      </trkpt>
      <trkpt lat="44.40007" lon="6.76774">
        <ele>1531.2</ele>
        <time>2021-06-21T13:30:18Z</time>
      </trkpt>
      <trkpt lat="44.4" lon="6.76781">
        <ele>1531.5</ele>
        <time>2021-06-21T13:30:22Z</time>
      </trkpt>
      <trkpt lat="44.39992" lon="6.76787">
        <ele>1531.9</ele>
        <time>2021-06-21T13:30:26Z</time>
      </trkpt>
      <trkpt lat="44.39983" lon="6.76791">
        <ele>1532</ele>
        <time>2021-06-21T13:30:30Z</time>
      </trkpt>
      <trkpt lat="44.39975" lon="6.76796">
        <ele>1532.3</ele>
        <time>2021-06-21T13:30:34Z</time>
      </trkpt>
      <trkpt lat="44.39966" lon="6.768">
        <ele>1532.3</ele>
        <time>2021-06-21T13:30:38Z</time>
      </trkpt>
      <trkpt lat="44.39958" lon="6.76803">
        <ele>1532.3</ele>
        <time>2021-06-21T13:30:42Z</time>
      </trkpt>
      <trkpt lat="44.3995" lon="6.76807">
        <ele>1532.4</ele>
        <time>2021-06-21T13:30:46Z</time>
      </trkpt>
      <trkpt lat="44.39942" lon="6.7681">
        <ele>1532.4</ele>
        <time>2021-06-21T13:30:50Z</time>
      </trkpt>
      <trkpt lat="44.39935" lon="6.76816">
        <ele>1532.8</ele>
        <time>2021-06-21T13:30:54Z</time>
      </trkpt>
      <trkpt lat="44.39929" lon="6.76822">
        <ele>1533.2</ele>
        <time>2021-06-21T13:30:58Z</time>
      </trkpt>
      <trkpt lat="44.39925" lon="6.7683">
        <ele>1534.1</ele>
        <time>2021-06-21T13:31:02Z</time>
      </trkpt>
      <trkpt lat="44.39919" lon="6.76838">
        <ele>1535.1</ele>
        <time>2021-06-21T13:31:06Z</time>
      </trkpt>
      <trkpt lat="44.39913" lon="6.76846">
        <ele>1537</ele>
        <time>2021-06-21T13:31:10Z</time>
      </trkpt>
      <trkpt lat="44.39907" lon="6.76854">
        <ele>1539.2</ele>
        <time>2021-06-21T13:31:14Z</time>
      </trkpt>
      <trkpt lat="44.39901" lon="6.76861">
        <ele>1541.1</ele>
        <time>2021-06-21T13:31:18Z</time>
      </trkpt>
      <trkpt lat="44.39895" lon="6.76868">
        <ele>1543</ele>
        <time>2021-06-21T13:31:22Z</time>
      </trkpt>
      <trkpt lat="44.39888" lon="6.76874">
        <ele>1544.7</ele>
        <time>2021-06-21T13:31:26Z</time>
      </trkpt>
      <trkpt lat="44.39882" lon="6.7688">
        <ele>1546.3</ele>
        <time>2021-06-21T13:31:30Z</time>
      </trkpt>
      <trkpt lat="44.39876" lon="6.76885">
        <ele>1547.6</ele>
        <time>2021-06-21T13:31:34Z</time>
      </trkpt>
      <trkpt lat="44.39868" lon="6.76887">
        <ele>1548.5</ele>
        <time>2021-06-21T13:31:38Z</time>
      </trkpt>
      <trkpt lat="44.39859" lon="6.76887">
        <ele>1549.2</ele>
        <time>2021-06-21T13:31:42Z</time>
      </trkpt>
      <trkpt lat="44.39851" lon="6.76887">
        <ele>1549.8</ele>
        <time>2021-06-21T13:31:46Z</time>
      </trkpt>
      <trkpt lat="44.39844" lon="6.76886">
        <ele>1550.2</ele>
        <time>2021-06-21T13:31:50Z</time>
      </trkpt>
      <trkpt lat="44.39836" lon="6.76883">
        <ele>1550.4</ele>
        <time>2021-06-21T13:31:54Z</time>
      </trkpt>
      <trkpt lat="44.39827" lon="6.76879">
        <ele>1552.1</ele>
        <time>2021-06-21T13:31:58Z</time>
      </trkpt>
      <trkpt lat="44.39819" lon="6.76875">
        <ele>1554.1</ele>
        <time>2021-06-21T13:32:02Z</time>
      </trkpt>
      <trkpt lat="44.39813" lon="6.76871">
        <ele>1555.4</ele>
        <time>2021-06-21T13:32:06Z</time>
      </trkpt>
      <trkpt lat="44.39807" lon="6.76862">
        <ele>1555.9</ele>
        <time>2021-06-21T13:32:10Z</time>
      </trkpt>
      <trkpt lat="44.398" lon="6.76849">
        <ele>1556</ele>
        <time>2021-06-21T13:32:14Z</time>
      </trkpt>
      <trkpt lat="44.39793" lon="6.76839">
        <ele>1556.5</ele>
        <time>2021-06-21T13:32:18Z</time>
      </trkpt>
      <trkpt lat="44.39787" lon="6.7683">
        <ele>1556.9</ele>
        <time>2021-06-21T13:32:22Z</time>
      </trkpt>
      <trkpt lat="44.39781" lon="6.76819">
        <ele>1557</ele>
        <time>2021-06-21T13:32:26Z</time>
      </trkpt>
      <trkpt lat="44.39775" lon="6.76809">
        <ele>1557.2</ele>
        <time>2021-06-21T13:32:30Z</time>
      </trkpt>
      <trkpt lat="44.39771" lon="6.76799">
        <ele>1556.8</ele>
        <time>2021-06-21T13:32:34Z</time>
      </trkpt>
      <trkpt lat="44.39765" lon="6.7679">
        <ele>1557.1</ele>
        <time>2021-06-21T13:32:38Z</time>
      </trkpt>
      <trkpt lat="44.39759" lon="6.76781">
        <ele>1557.4</ele>
        <time>2021-06-21T13:32:42Z</time>
      </trkpt>
      <trkpt lat="44.39754" lon="6.76773">
        <ele>1557.5</ele>
        <time>2021-06-21T13:32:46Z</time>
      </trkpt>
      <trkpt lat="44.39749" lon="6.76764">
        <ele>1557.4</ele>
        <time>2021-06-21T13:32:50Z</time>
      </trkpt>
      <trkpt lat="44.39743" lon="6.76755">
        <ele>1557.1</ele>
        <time>2021-06-21T13:32:54Z</time>
      </trkpt>
      <trkpt lat="44.39737" lon="6.76748">
        <ele>1557.3</ele>
        <time>2021-06-21T13:32:58Z</time>
      </trkpt>
      <trkpt lat="44.39729" lon="6.76742">
        <ele>1558.2</ele>
        <time>2021-06-21T13:33:02Z</time>
      </trkpt>
      <trkpt lat="44.39721" lon="6.76738">
        <ele>1559.3</ele>
        <time>2021-06-21T13:33:06Z</time>
      </trkpt>
      <trkpt lat="44.39712" lon="6.76735">
        <ele>1560.5</ele>
        <time>2021-06-21T13:33:10Z</time>
      </trkpt>
      <trkpt lat="44.39703" lon="6.76735">
        <ele>1562</ele>
        <time>2021-06-21T13:33:14Z</time>
      </trkpt>
      <trkpt lat="44.39694" lon="6.76736">
        <ele>1563.7</ele>
        <time>2021-06-21T13:33:18Z</time>
      </trkpt>
      <trkpt lat="44.39685" lon="6.76737">
        <ele>1565.4</ele>
        <time>2021-06-21T13:33:22Z</time>
      </trkpt>
      <trkpt lat="44.39676" lon="6.76739">
        <ele>1567.4</ele>
        <time>2021-06-21T13:33:26Z</time>
      </trkpt>
      <trkpt lat="44.39667" lon="6.7674">
        <ele>1569.1</ele>
        <time>2021-06-21T13:33:30Z</time>
      </trkpt>
      <trkpt lat="44.39658" lon="6.76739">
        <ele>1569.3</ele>
        <time>2021-06-21T13:33:34Z</time>
      </trkpt>
      <trkpt lat="44.39649" lon="6.76739">
        <ele>1569.7</ele>
        <time>2021-06-21T13:33:38Z</time>
      </trkpt>
      <trkpt lat="44.3964" lon="6.76737">
        <ele>1569.7</ele>
        <time>2021-06-21T13:33:42Z</time>
      </trkpt>
      <trkpt lat="44.39632" lon="6.76735">
        <ele>1569.6</ele>
        <time>2021-06-21T13:33:46Z</time>
      </trkpt>
      <trkpt lat="44.39625" lon="6.76733">
        <ele>1569.5</ele>
        <time>2021-06-21T13:33:50Z</time>
      </trkpt>
      <trkpt lat="44.39617" lon="6.76731">
        <ele>1569.5</ele>
        <time>2021-06-21T13:33:54Z</time>
      </trkpt>
      <trkpt lat="44.3961" lon="6.76731">
        <ele>1569.8</ele>
        <time>2021-06-21T13:33:58Z</time>
      </trkpt>
      <trkpt lat="44.39603" lon="6.76731">
        <ele>1570</ele>
        <time>2021-06-21T13:34:02Z</time>
      </trkpt>
      <trkpt lat="44.39595" lon="6.76732">
        <ele>1570.5</ele>
        <time>2021-06-21T13:34:06Z</time>
      </trkpt>
      <trkpt lat="44.39587" lon="6.76733">
        <ele>1571</ele>
        <time>2021-06-21T13:34:10Z</time>
      </trkpt>
      <trkpt lat="44.39579" lon="6.76735">
        <ele>1571.3</ele>
        <time>2021-06-21T13:34:14Z</time>
      </trkpt>
      <trkpt lat="44.39571" lon="6.7674">
        <ele>1572</ele>
        <time>2021-06-21T13:34:18Z</time>
      </trkpt>
      <trkpt lat="44.39564" lon="6.76744">
        <ele>1572.5</ele>
        <time>2021-06-21T13:34:22Z</time>
      </trkpt>
      <trkpt lat="44.39557" lon="6.7675">
        <ele>1573.4</ele>
        <time>2021-06-21T13:34:26Z</time>
      </trkpt>
      <trkpt lat="44.39551" lon="6.76755">
        <ele>1574</ele>
        <time>2021-06-21T13:34:30Z</time>
      </trkpt>
      <trkpt lat="44.39545" lon="6.76762">
        <ele>1574.9</ele>
        <time>2021-06-21T13:34:34Z</time>
      </trkpt>
      <trkpt lat="44.39538" lon="6.76768">
        <ele>1575.6</ele>
        <time>2021-06-21T13:34:38Z</time>
      </trkpt>
      <trkpt lat="44.39532" lon="6.76775">
        <ele>1576.5</ele>
        <time>2021-06-21T13:34:42Z</time>
      </trkpt>
      <trkpt lat="44.39525" lon="6.76781">
        <ele>1577.2</ele>
        <time>2021-06-21T13:34:46Z</time>
      </trkpt>
      <trkpt lat="44.39519" lon="6.76787">
        <ele>1577.9</ele>
        <time>2021-06-21T13:34:50Z</time>
      </trkpt>
      <trkpt lat="44.39513" lon="6.76794">
        <ele>1578.7</ele>
        <time>2021-06-21T13:34:54Z</time>
      </trkpt>
      <trkpt lat="44.39506" lon="6.76801">
        <ele>1579.5</ele>
        <time>2021-06-21T13:34:58Z</time>
      </trkpt>
      <trkpt lat="44.395" lon="6.76809">
        <ele>1580.5</ele>
        <time>2021-06-21T13:35:02Z</time>
      </trkpt>
      <trkpt lat="44.39494" lon="6.76817">
        <ele>1580.5</ele>
        <time>2021-06-21T13:35:06Z</time>
      </trkpt>
      <trkpt lat="44.39489" lon="6.76826">
        <ele>1580.8</ele>
        <time>2021-06-21T13:35:10Z</time>
      </trkpt>
      <trkpt lat="44.39484" lon="6.76836">
        <ele>1581.2</ele>
        <time>2021-06-21T13:35:14Z</time>
      </trkpt>
      <trkpt lat="44.39479" lon="6.76846">
        <ele>1581.4</ele>
        <time>2021-06-21T13:35:18Z</time>
      </trkpt>
      <trkpt lat="44.39475" lon="6.76855">
        <ele>1581.7</ele>
        <time>2021-06-21T13:35:22Z</time>
      </trkpt>
      <trkpt lat="44.39471" lon="6.76866">
        <ele>1582.2</ele>
        <time>2021-06-21T13:35:26Z</time>
      </trkpt>
      <trkpt lat="44.39468" lon="6.76876">
        <ele>1582.9</ele>
        <time>2021-06-21T13:35:30Z</time>
      </trkpt>
      <trkpt lat="44.39465" lon="6.76887">
        <ele>1583.6</ele>
        <time>2021-06-21T13:35:34Z</time>
      </trkpt>
      <trkpt lat="44.39463" lon="6.76898">
        <ele>1584.6</ele>
        <time>2021-06-21T13:35:38Z</time>
      </trkpt>
      <trkpt lat="44.3946" lon="6.76909">
        <ele>1585.4</ele>
        <time>2021-06-21T13:35:42Z</time>
      </trkpt>
      <trkpt lat="44.39459" lon="6.7692">
        <ele>1586.6</ele>
        <time>2021-06-21T13:35:46Z</time>
      </trkpt>
      <trkpt lat="44.39457" lon="6.76933">
        <ele>1587.9</ele>
        <time>2021-06-21T13:35:50Z</time>
      </trkpt>
      <trkpt lat="44.39456" lon="6.76945">
        <ele>1589.3</ele>
        <time>2021-06-21T13:35:54Z</time>
      </trkpt>
      <trkpt lat="44.39454" lon="6.76957">
        <ele>1590.6</ele>
        <time>2021-06-21T13:35:58Z</time>
      </trkpt>
      <trkpt lat="44.39452" lon="6.76969">
        <ele>1591.8</ele>
        <time>2021-06-21T13:36:02Z</time>
      </trkpt>
      <trkpt lat="44.3945" lon="6.7698">
        <ele>1593</ele>
        <time>2021-06-21T13:36:06Z</time>
      </trkpt>
      <trkpt lat="44.39447" lon="6.76991">
        <ele>1593.9</ele>
        <time>2021-06-21T13:36:10Z</time>
      </trkpt>
      <trkpt lat="44.39444" lon="6.77001">
        <ele>1594.8</ele>
        <time>2021-06-21T13:36:14Z</time>
      </trkpt>
      <trkpt lat="44.3944" lon="6.77011">
        <ele>1596</ele>
        <time>2021-06-21T13:36:18Z</time>
      </trkpt>
      <trkpt lat="44.39437" lon="6.77021">
        <ele>1597.3</ele>
        <time>2021-06-21T13:36:22Z</time>
      </trkpt>
      <trkpt lat="44.39434" lon="6.7703">
        <ele>1598.5</ele>
        <time>2021-06-21T13:36:26Z</time>
      </trkpt>
      <trkpt lat="44.39429" lon="6.77038">
        <ele>1599</ele>
        <time>2021-06-21T13:36:30Z</time>
      </trkpt>
      <trkpt lat="44.39423" lon="6.77046">
        <ele>1599.4</ele>
        <time>2021-06-21T13:36:34Z</time>
      </trkpt>
      <trkpt lat="44.3942" lon="6.77055">
        <ele>1600.5</ele>
        <time>2021-06-21T13:36:38Z</time>
      </trkpt>
      <trkpt lat="44.39415" lon="6.77062">
        <ele>1600.8</ele>
        <time>2021-06-21T13:36:42Z</time>
      </trkpt>
      <trkpt lat="44.39409" lon="6.7707">
        <ele>1601.1</ele>
        <time>2021-06-21T13:36:46Z</time>
      </trkpt>
      <trkpt lat="44.39404" lon="6.77077">
        <ele>1601.4</ele>
        <time>2021-06-21T13:36:50Z</time>
      </trkpt>
      <trkpt lat="44.39399" lon="6.77084">
        <ele>1601.8</ele>
        <time>2021-06-21T13:36:54Z</time>
      </trkpt>
      <trkpt lat="44.39393" lon="6.77091">
        <ele>1602.3</ele>
        <time>2021-06-21T13:36:58Z</time>
      </trkpt>
      <trkpt lat="44.39388" lon="6.77097">
        <ele>1602.7</ele>
        <time>2021-06-21T13:37:02Z</time>
      </trkpt>
      <trkpt lat="44.39382" lon="6.77104">
        <ele>1603.1</ele>
        <time>2021-06-21T13:37:06Z</time>
      </trkpt>
      <trkpt lat="44.39376" lon="6.77111">
        <ele>1603.5</ele>
        <time>2021-06-21T13:37:10Z</time>
      </trkpt>
      <trkpt lat="44.3937" lon="6.77117">
        <ele>1603.6</ele>
        <time>2021-06-21T13:37:14Z</time>
      </trkpt>
      <trkpt lat="44.39364" lon="6.77124">
        <ele>1603.9</ele>
        <time>2021-06-21T13:37:18Z</time>
      </trkpt>
      <trkpt lat="44.39359" lon="6.7713">
        <ele>1604.1</ele>
        <time>2021-06-21T13:37:22Z</time>
      </trkpt>
      <trkpt lat="44.39354" lon="6.77137">
        <ele>1604.6</ele>
        <time>2021-06-21T13:37:26Z</time>
      </trkpt>
      <trkpt lat="44.39348" lon="6.77144">
        <ele>1604.7</ele>
        <time>2021-06-21T13:37:30Z</time>
      </trkpt>
      <trkpt lat="44.39344" lon="6.77152">
        <ele>1605.5</ele>
        <time>2021-06-21T13:37:34Z</time>
      </trkpt>
      <trkpt lat="44.39339" lon="6.7716">
        <ele>1606</ele>
        <time>2021-06-21T13:37:38Z</time>
      </trkpt>
      <trkpt lat="44.39333" lon="6.77167">
        <ele>1606</ele>
        <time>2021-06-21T13:37:42Z</time>
      </trkpt>
      <trkpt lat="44.39328" lon="6.77175">
        <ele>1606.5</ele>
        <time>2021-06-21T13:37:46Z</time>
      </trkpt>
      <trkpt lat="44.39323" lon="6.77183">
        <ele>1606.9</ele>
        <time>2021-06-21T13:37:50Z</time>
      </trkpt>
      <trkpt lat="44.39319" lon="6.7719">
        <ele>1607.3</ele>
        <time>2021-06-21T13:37:54Z</time>
      </trkpt>
      <trkpt lat="44.39314" lon="6.77198">
        <ele>1607.6</ele>
        <time>2021-06-21T13:37:58Z</time>
      </trkpt>
      <trkpt lat="44.3931" lon="6.77206">
        <ele>1608.1</ele>
        <time>2021-06-21T13:38:02Z</time>
      </trkpt>
      <trkpt lat="44.39306" lon="6.77215">
        <ele>1608.9</ele>
        <time>2021-06-21T13:38:06Z</time>
      </trkpt>
      <trkpt lat="44.39302" lon="6.77224">
        <ele>1609.5</ele>
        <time>2021-06-21T13:38:10Z</time>
      </trkpt>
      <trkpt lat="44.39299" lon="6.77233">
        <ele>1610.4</ele>
        <time>2021-06-21T13:38:14Z</time>
      </trkpt>
      <trkpt lat="44.39296" lon="6.77243">
        <ele>1611.5</ele>
        <time>2021-06-21T13:38:18Z</time>
      </trkpt>
      <trkpt lat="44.39294" lon="6.77253">
        <ele>1612.9</ele>
        <time>2021-06-21T13:38:22Z</time>
      </trkpt>
      <trkpt lat="44.39293" lon="6.77263">
        <ele>1614.6</ele>
        <time>2021-06-21T13:38:26Z</time>
      </trkpt>
      <trkpt lat="44.39291" lon="6.77273">
        <ele>1616</ele>
        <time>2021-06-21T13:38:30Z</time>
      </trkpt>
      <trkpt lat="44.39289" lon="6.77283">
        <ele>1617.3</ele>
        <time>2021-06-21T13:38:34Z</time>
      </trkpt>
      <trkpt lat="44.39286" lon="6.77293">
        <ele>1618.3</ele>
        <time>2021-06-21T13:38:38Z</time>
      </trkpt>
      <trkpt lat="44.39283" lon="6.77303">
        <ele>1619.2</ele>
        <time>2021-06-21T13:38:42Z</time>
      </trkpt>
      <trkpt lat="44.39278" lon="6.77315">
        <ele>1619.8</ele>
        <time>2021-06-21T13:38:46Z</time>
      </trkpt>
      <trkpt lat="44.39275" lon="6.77326">
        <ele>1620.9</ele>
        <time>2021-06-21T13:38:50Z</time>
      </trkpt>
      <trkpt lat="44.39271" lon="6.77335">
        <ele>1621.2</ele>
        <time>2021-06-21T13:38:54Z</time>
      </trkpt>
      <trkpt lat="44.39267" lon="6.77344">
        <ele>1621.9</ele>
        <time>2021-06-21T13:38:58Z</time>
      </trkpt>
      <trkpt lat="44.39262" lon="6.77353">
        <ele>1622.1</ele>
        <time>2021-06-21T13:39:02Z</time>
      </trkpt>
      <trkpt lat="44.39258" lon="6.77362">
        <ele>1622.6</ele>
        <time>2021-06-21T13:39:06Z</time>
      </trkpt>
      <trkpt lat="44.39254" lon="6.77372">
        <ele>1623.4</ele>
        <time>2021-06-21T13:39:10Z</time>
      </trkpt>
      <trkpt lat="44.3925" lon="6.77382">
        <ele>1624.1</ele>
        <time>2021-06-21T13:39:14Z</time>
      </trkpt>
      <trkpt lat="44.39245" lon="6.7739">
        <ele>1624.5</ele>
        <time>2021-06-21T13:39:18Z</time>
      </trkpt>
      <trkpt lat="44.39241" lon="6.77399">
        <ele>1625.4</ele>
        <time>2021-06-21T13:39:22Z</time>
      </trkpt>
      <trkpt lat="44.39237" lon="6.77407">
        <ele>1626.1</ele>
        <time>2021-06-21T13:39:26Z</time>
      </trkpt>
      <trkpt lat="44.39233" lon="6.77416">
        <ele>1627</ele>
        <time>2021-06-21T13:39:30Z</time>
      </trkpt>
      <trkpt lat="44.39228" lon="6.77425">
        <ele>1627.5</ele>
        <time>2021-06-21T13:39:34Z</time>
      </trkpt>
      <trkpt lat="44.39224" lon="6.77434">
        <ele>1628.3</ele>
        <time>2021-06-21T13:39:38Z</time>
      </trkpt>
      <trkpt lat="44.39219" lon="6.77444">
        <ele>1629.1</ele>
        <time>2021-06-21T13:39:42Z</time>
      </trkpt>
      <trkpt lat="44.39215" lon="6.77453">
        <ele>1630</ele>
        <time>2021-06-21T13:39:46Z</time>
      </trkpt>
      <trkpt lat="44.3921" lon="6.77462">
        <ele>1630.5</ele>
        <time>2021-06-21T13:39:50Z</time>
      </trkpt>
      <trkpt lat="44.39205" lon="6.77471">
        <ele>1631.1</ele>
        <time>2021-06-21T13:39:54Z</time>
      </trkpt>
      <trkpt lat="44.39197" lon="6.77478">
        <ele>1630.5</ele>
        <time>2021-06-21T13:39:58Z</time>
      </trkpt>
      <trkpt lat="44.3919" lon="6.77487">
        <ele>1630.5</ele>
        <time>2021-06-21T13:40:02Z</time>
      </trkpt>
      <trkpt lat="44.39181" lon="6.77493">
        <ele>1629.4</ele>
        <time>2021-06-21T13:40:06Z</time>
      </trkpt>
      <trkpt lat="44.39175" lon="6.77502">
        <ele>1629.7</ele>
        <time>2021-06-21T13:40:10Z</time>
      </trkpt>
      <trkpt lat="44.39169" lon="6.7751">
        <ele>1629.7</ele>
        <time>2021-06-21T13:40:14Z</time>
      </trkpt>
      <trkpt lat="44.39162" lon="6.77519">
        <ele>1629.9</ele>
        <time>2021-06-21T13:40:18Z</time>
      </trkpt>
      <trkpt lat="44.39158" lon="6.77528">
        <ele>1630.8</ele>
        <time>2021-06-21T13:40:22Z</time>
      </trkpt>
      <trkpt lat="44.39153" lon="6.77538">
        <ele>1631.7</ele>
        <time>2021-06-21T13:40:26Z</time>
      </trkpt>
      <trkpt lat="44.39149" lon="6.77549">
        <ele>1633</ele>
        <time>2021-06-21T13:40:30Z</time>
      </trkpt>
      <trkpt lat="44.39148" lon="6.7756">
        <ele>1634.9</ele>
        <time>2021-06-21T13:40:34Z</time>
      </trkpt>
      <trkpt lat="44.39148" lon="6.77572">
        <ele>1637.3</ele>
        <time>2021-06-21T13:40:38Z</time>
      </trkpt>
      <trkpt lat="44.39148" lon="6.77585">
        <ele>1639.7</ele>
        <time>2021-06-21T13:40:42Z</time>
      </trkpt>
      <trkpt lat="44.39147" lon="6.77597">
        <ele>1641.1</ele>
        <time>2021-06-21T13:40:46Z</time>
      </trkpt>
      <trkpt lat="44.39146" lon="6.77608">
        <ele>1642.3</ele>
        <time>2021-06-21T13:40:50Z</time>
      </trkpt>
      <trkpt lat="44.39143" lon="6.77619">
        <ele>1643</ele>
        <time>2021-06-21T13:40:54Z</time>
      </trkpt>
      <trkpt lat="44.3914" lon="6.7763">
        <ele>1643.8</ele>
        <time>2021-06-21T13:40:58Z</time>
      </trkpt>
      <trkpt lat="44.39136" lon="6.77641">
        <ele>1644.3</ele>
        <time>2021-06-21T13:41:02Z</time>
      </trkpt>
      <trkpt lat="44.39133" lon="6.77651">
        <ele>1644.9</ele>
        <time>2021-06-21T13:41:06Z</time>
      </trkpt>
      <trkpt lat="44.39131" lon="6.77662">
        <ele>1645.8</ele>
        <time>2021-06-21T13:41:10Z</time>
      </trkpt>
      <trkpt lat="44.39128" lon="6.77674">
        <ele>1646.7</ele>
        <time>2021-06-21T13:41:14Z</time>
      </trkpt>
      <trkpt lat="44.39125" lon="6.77686">
        <ele>1647.7</ele>
        <time>2021-06-21T13:41:18Z</time>
      </trkpt>
      <trkpt lat="44.3912" lon="6.77698">
        <ele>1648.3</ele>
        <time>2021-06-21T13:41:22Z</time>
      </trkpt>
      <trkpt lat="44.39113" lon="6.7771">
        <ele>1648.8</ele>
        <time>2021-06-21T13:41:26Z</time>
      </trkpt>
      <trkpt lat="44.39107" lon="6.7772">
        <ele>1649.3</ele>
        <time>2021-06-21T13:41:30Z</time>
      </trkpt>
      <trkpt lat="44.39102" lon="6.77727">
        <ele>1649.6</ele>
        <time>2021-06-21T13:41:34Z</time>
      </trkpt>
      <trkpt lat="44.39095" lon="6.77733">
        <ele>1649.5</ele>
        <time>2021-06-21T13:41:38Z</time>
      </trkpt>
      <trkpt lat="44.39089" lon="6.7774">
        <ele>1649.9</ele>
        <time>2021-06-21T13:41:42Z</time>
      </trkpt>
      <trkpt lat="44.39083" lon="6.77748">
        <ele>1650.6</ele>
        <time>2021-06-21T13:41:46Z</time>
      </trkpt>
      <trkpt lat="44.39077" lon="6.77755">
        <ele>1651.9</ele>
        <time>2021-06-21T13:41:50Z</time>
      </trkpt>
      <trkpt lat="44.3907" lon="6.7776">
        <ele>1652.6</ele>
        <time>2021-06-21T13:41:54Z</time>
      </trkpt>
      <trkpt lat="44.39064" lon="6.77765">
        <ele>1653.4</ele>
        <time>2021-06-21T13:41:58Z</time>
      </trkpt>
      <trkpt lat="44.39057" lon="6.77769">
        <ele>1653.7</ele>
        <time>2021-06-21T13:42:02Z</time>
      </trkpt>
      <trkpt lat="44.39051" lon="6.77772">
        <ele>1653.9</ele>
        <time>2021-06-21T13:42:06Z</time>
      </trkpt>
      <trkpt lat="44.39043" lon="6.77773">
        <ele>1653.2</ele>
        <time>2021-06-21T13:42:10Z</time>
      </trkpt>
      <trkpt lat="44.39036" lon="6.77775">
        <ele>1652.9</ele>
        <time>2021-06-21T13:42:14Z</time>
      </trkpt>
      <trkpt lat="44.39028" lon="6.77779">
        <ele>1653</ele>
        <time>2021-06-21T13:42:18Z</time>
      </trkpt>
      <trkpt lat="44.39021" lon="6.77785">
        <ele>1653.6</ele>
        <time>2021-06-21T13:42:22Z</time>
      </trkpt>
      <trkpt lat="44.39014" lon="6.77792">
        <ele>1654.4</ele>
        <time>2021-06-21T13:42:26Z</time>
      </trkpt>
      <trkpt lat="44.39009" lon="6.77799">
        <ele>1655.4</ele>
        <time>2021-06-21T13:42:30Z</time>
      </trkpt>
      <trkpt lat="44.39002" lon="6.77806">
        <ele>1656.1</ele>
        <time>2021-06-21T13:42:34Z</time>
      </trkpt>
      <trkpt lat="44.38995" lon="6.7781">
        <ele>1657.2</ele>
        <time>2021-06-21T13:42:38Z</time>
      </trkpt>
      <trkpt lat="44.38988" lon="6.77814">
        <ele>1659</ele>
        <time>2021-06-21T13:42:42Z</time>
      </trkpt>
      <trkpt lat="44.38979" lon="6.77815">
        <ele>1660.2</ele>
        <time>2021-06-21T13:42:46Z</time>
      </trkpt>
      <trkpt lat="44.38972" lon="6.77818">
        <ele>1661.9</ele>
        <time>2021-06-21T13:42:50Z</time>
      </trkpt>
      <trkpt lat="44.38964" lon="6.77819">
        <ele>1663.1</ele>
        <time>2021-06-21T13:42:54Z</time>
      </trkpt>
      <trkpt lat="44.38956" lon="6.77821">
        <ele>1664.7</ele>
        <time>2021-06-21T13:42:58Z</time>
      </trkpt>
      <trkpt lat="44.3895" lon="6.7782">
        <ele>1665.1</ele>
        <time>2021-06-21T13:43:02Z</time>
      </trkpt>
      <trkpt lat="44.38943" lon="6.77818">
        <ele>1665.3</ele>
        <time>2021-06-21T13:43:06Z</time>
      </trkpt>
      <trkpt lat="44.38935" lon="6.77815">
        <ele>1665.3</ele>
        <time>2021-06-21T13:43:10Z</time>
      </trkpt>
      <trkpt lat="44.38927" lon="6.77808">
        <ele>1663.8</ele>
        <time>2021-06-21T13:43:14Z</time>
      </trkpt>
      <trkpt lat="44.38919" lon="6.77802">
        <ele>1662.5</ele>
        <time>2021-06-21T13:43:18Z</time>
      </trkpt>
      <trkpt lat="44.38912" lon="6.77797">
        <ele>1660.9</ele>
        <time>2021-06-21T13:43:22Z</time>
      </trkpt>
      <trkpt lat="44.38905" lon="6.77793">
        <ele>1659.6</ele>
        <time>2021-06-21T13:43:26Z</time>
      </trkpt>
      <trkpt lat="44.38898" lon="6.77789">
        <ele>1658.3</ele>
        <time>2021-06-21T13:43:30Z</time>
      </trkpt>
      <trkpt lat="44.38891" lon="6.77786">
        <ele>1657.4</ele>
        <time>2021-06-21T13:43:34Z</time>
      </trkpt>
      <trkpt lat="44.38883" lon="6.77786">
        <ele>1657.6</ele>
        <time>2021-06-21T13:43:38Z</time>
      </trkpt>
      <trkpt lat="44.38876" lon="6.77789">
        <ele>1658.7</ele>
        <time>2021-06-21T13:43:42Z</time>
      </trkpt>
      <trkpt lat="44.38868" lon="6.77794">
        <ele>1660.3</ele>
        <time>2021-06-21T13:43:46Z</time>
      </trkpt>
      <trkpt lat="44.38862" lon="6.778">
        <ele>1662.1</ele>
        <time>2021-06-21T13:43:50Z</time>
      </trkpt>
      <trkpt lat="44.38857" lon="6.77807">
        <ele>1664.2</ele>
        <time>2021-06-21T13:43:54Z</time>
      </trkpt>
      <trkpt lat="44.38851" lon="6.77814">
        <ele>1666.1</ele>
        <time>2021-06-21T13:43:58Z</time>
      </trkpt>
      <trkpt lat="44.38845" lon="6.77822">
        <ele>1668.3</ele>
        <time>2021-06-21T13:44:02Z</time>
      </trkpt>
      <trkpt lat="44.3884" lon="6.7783">
        <ele>1670.3</ele>
        <time>2021-06-21T13:44:06Z</time>
      </trkpt>
      <trkpt lat="44.38835" lon="6.77838">
        <ele>1672.4</ele>
        <time>2021-06-21T13:44:10Z</time>
      </trkpt>
      <trkpt lat="44.38828" lon="6.77843">
        <ele>1673.4</ele>
        <time>2021-06-21T13:44:14Z</time>
      </trkpt>
      <trkpt lat="44.3882" lon="6.77847">
        <ele>1673.9</ele>
        <time>2021-06-21T13:44:18Z</time>
      </trkpt>
      <trkpt lat="44.38812" lon="6.7785">
        <ele>1674.2</ele>
        <time>2021-06-21T13:44:22Z</time>
      </trkpt>
      <trkpt lat="44.38805" lon="6.77857">
        <ele>1675.7</ele>
        <time>2021-06-21T13:44:26Z</time>
      </trkpt>
      <trkpt lat="44.38806" lon="6.77868">
        <ele>1679.1</ele>
        <time>2021-06-21T13:44:30Z</time>
      </trkpt>
      <trkpt lat="44.38813" lon="6.77874">
        <ele>1681.4</ele>
        <time>2021-06-21T13:44:34Z</time>
      </trkpt>
      <trkpt lat="44.38821" lon="6.77874">
        <ele>1681.9</ele>
        <time>2021-06-21T13:44:38Z</time>
      </trkpt>
      <trkpt lat="44.3883" lon="6.77869">
        <ele>1681</ele>
        <time>2021-06-21T13:44:42Z</time>
      </trkpt>
      <trkpt lat="44.38837" lon="6.77864">
        <ele>1680</ele>
        <time>2021-06-21T13:44:46Z</time>
      </trkpt>
      <trkpt lat="44.38844" lon="6.77859">
        <ele>1678.8</ele>
        <time>2021-06-21T13:44:50Z</time>
      </trkpt>
      <trkpt lat="44.38852" lon="6.77854">
        <ele>1677.7</ele>
        <time>2021-06-21T13:44:54Z</time>
      </trkpt>
      <trkpt lat="44.38858" lon="6.77847">
        <ele>1675.9</ele>
        <time>2021-06-21T13:44:58Z</time>
      </trkpt>
      <trkpt lat="44.38864" lon="6.77839">
        <ele>1673.8</ele>
        <time>2021-06-21T13:45:02Z</time>
      </trkpt>
      <trkpt lat="44.3887" lon="6.77833">
        <ele>1672.2</ele>
        <time>2021-06-21T13:45:06Z</time>
      </trkpt>
      <trkpt lat="44.38877" lon="6.77829">
        <ele>1671.2</ele>
        <time>2021-06-21T13:45:10Z</time>
      </trkpt>
      <trkpt lat="44.38885" lon="6.77829">
        <ele>1671.5</ele>
        <time>2021-06-21T13:45:14Z</time>
      </trkpt>
      <trkpt lat="44.38893" lon="6.77834">
        <ele>1673.3</ele>
        <time>2021-06-21T13:45:18Z</time>
      </trkpt>
      <trkpt lat="44.38898" lon="6.77842">
        <ele>1675.9</ele>
        <time>2021-06-21T13:45:23Z</time>
      </trkpt>
      <trkpt lat="44.38902" lon="6.77851">
        <ele>1678.7</ele>
        <time>2021-06-21T13:45:26Z</time>
      </trkpt>
      <trkpt lat="44.38906" lon="6.7786">
        <ele>1681.6</ele>
        <time>2021-06-21T13:45:30Z</time>
      </trkpt>
      <trkpt lat="44.3891" lon="6.7787">
        <ele>1684.7</ele>
        <time>2021-06-21T13:45:34Z</time>
      </trkpt>
      <trkpt lat="44.38914" lon="6.77879">
        <ele>1687.6</ele>
        <time>2021-06-21T13:45:38Z</time>
      </trkpt>
      <trkpt lat="44.38919" lon="6.77888">
        <ele>1690</ele>
        <time>2021-06-21T13:45:42Z</time>
      </trkpt>
      <trkpt lat="44.38924" lon="6.77897">
        <ele>1691.8</ele>
        <time>2021-06-21T13:45:46Z</time>
      </trkpt>
      <trkpt lat="44.3893" lon="6.77907">
        <ele>1693.6</ele>
        <time>2021-06-21T13:45:50Z</time>
      </trkpt>
      <trkpt lat="44.38936" lon="6.77918">
        <ele>1695.6</ele>
        <time>2021-06-21T13:45:54Z</time>
      </trkpt>
      <trkpt lat="44.38943" lon="6.77929">
        <ele>1696.7</ele>
        <time>2021-06-21T13:45:58Z</time>
      </trkpt>
      <trkpt lat="44.38942" lon="6.77942">
        <ele>1699.8</ele>
        <time>2021-06-21T13:46:02Z</time>
      </trkpt>
      <trkpt lat="44.38934" lon="6.77941">
        <ele>1701.2</ele>
        <time>2021-06-21T13:46:06Z</time>
      </trkpt>
      <trkpt lat="44.38928" lon="6.77933">
        <ele>1700.5</ele>
        <time>2021-06-21T13:46:10Z</time>
      </trkpt>
      <trkpt lat="44.38923" lon="6.77926">
        <ele>1699.9</ele>
        <time>2021-06-21T13:46:14Z</time>
      </trkpt>
      <trkpt lat="44.3892" lon="6.77919">
        <ele>1698.9</ele>
        <time>2021-06-21T13:46:18Z</time>
      </trkpt>
      <trkpt lat="44.38914" lon="6.77912">
        <ele>1697.5</ele>
        <time>2021-06-21T13:46:22Z</time>
      </trkpt>
      <trkpt lat="44.38907" lon="6.77906">
        <ele>1695.4</ele>
        <time>2021-06-21T13:46:26Z</time>
      </trkpt>
      <trkpt lat="44.38901" lon="6.77901">
        <ele>1693.6</ele>
        <time>2021-06-21T13:46:30Z</time>
      </trkpt>
      <trkpt lat="44.38894" lon="6.77897">
        <ele>1692.1</ele>
        <time>2021-06-21T13:46:34Z</time>
      </trkpt>
      <trkpt lat="44.38886" lon="6.77894">
        <ele>1690.8</ele>
        <time>2021-06-21T13:46:38Z</time>
      </trkpt>
      <trkpt lat="44.38879" lon="6.77895">
        <ele>1690.8</ele>
        <time>2021-06-21T13:46:42Z</time>
      </trkpt>
      <trkpt lat="44.38872" lon="6.779">
        <ele>1692</ele>
        <time>2021-06-21T13:46:46Z</time>
      </trkpt>
      <trkpt lat="44.38867" lon="6.77908">
        <ele>1694.1</ele>
        <time>2021-06-21T13:46:50Z</time>
      </trkpt>
      <trkpt lat="44.38863" lon="6.77917">
        <ele>1696.5</ele>
        <time>2021-06-21T13:46:54Z</time>
      </trkpt>
      <trkpt lat="44.3886" lon="6.77926">
        <ele>1699.1</ele>
        <time>2021-06-21T13:46:58Z</time>
      </trkpt>
      <trkpt lat="44.38856" lon="6.77935">
        <ele>1701.7</ele>
        <time>2021-06-21T13:47:02Z</time>
      </trkpt>
      <trkpt lat="44.38853" lon="6.77944">
        <ele>1704.4</ele>
        <time>2021-06-21T13:47:06Z</time>
      </trkpt>
      <trkpt lat="44.38849" lon="6.77953">
        <ele>1707.2</ele>
        <time>2021-06-21T13:47:10Z</time>
      </trkpt>
      <trkpt lat="44.38844" lon="6.77961">
        <ele>1709.8</ele>
        <time>2021-06-21T13:47:14Z</time>
      </trkpt>
      <trkpt lat="44.38838" lon="6.77966">
        <ele>1711.5</ele>
        <time>2021-06-21T13:47:18Z</time>
      </trkpt>
      <trkpt lat="44.38831" lon="6.7797">
        <ele>1712.8</ele>
        <time>2021-06-21T13:47:22Z</time>
      </trkpt>
      <trkpt lat="44.38824" lon="6.77975">
        <ele>1714.3</ele>
        <time>2021-06-21T13:47:26Z</time>
      </trkpt>
      <trkpt lat="44.38816" lon="6.77976">
        <ele>1714.4</ele>
        <time>2021-06-21T13:47:30Z</time>
      </trkpt>
      <trkpt lat="44.38808" lon="6.77974">
        <ele>1713.5</ele>
        <time>2021-06-21T13:47:34Z</time>
      </trkpt>
      <trkpt lat="44.38802" lon="6.77968">
        <ele>1711.2</ele>
        <time>2021-06-21T13:47:38Z</time>
      </trkpt>
      <trkpt lat="44.38794" lon="6.77969">
        <ele>1711.3</ele>
        <time>2021-06-21T13:47:42Z</time>
      </trkpt>
      <trkpt lat="44.38783" lon="6.77969">
        <ele>1710.9</ele>
        <time>2021-06-21T13:47:46Z</time>
      </trkpt>
      <trkpt lat="44.38774" lon="6.77971">
        <ele>1711.3</ele>
        <time>2021-06-21T13:47:50Z</time>
      </trkpt>
      <trkpt lat="44.38765" lon="6.77973">
        <ele>1711.8</ele>
        <time>2021-06-21T13:47:54Z</time>
      </trkpt>
      <trkpt lat="44.38755" lon="6.77976">
        <ele>1712.5</ele>
        <time>2021-06-21T13:47:58Z</time>
      </trkpt>
      <trkpt lat="44.3875" lon="6.77985">
        <ele>1715.6</ele>
        <time>2021-06-21T13:48:02Z</time>
      </trkpt>
      <trkpt lat="44.38753" lon="6.77997">
        <ele>1720</ele>
        <time>2021-06-21T13:48:06Z</time>
      </trkpt>
      <trkpt lat="44.38761" lon="6.78001">
        <ele>1721.6</ele>
        <time>2021-06-21T13:48:10Z</time>
      </trkpt>
      <trkpt lat="44.3877" lon="6.77998">
        <ele>1720.8</ele>
        <time>2021-06-21T13:48:14Z</time>
      </trkpt>
      <trkpt lat="44.38778" lon="6.77994">
        <ele>1719.6</ele>
        <time>2021-06-21T13:48:18Z</time>
      </trkpt>
      <trkpt lat="44.38785" lon="6.77996">
        <ele>1720.4</ele>
        <time>2021-06-21T13:48:22Z</time>
      </trkpt>
      <trkpt lat="44.38792" lon="6.78002">
        <ele>1722.7</ele>
        <time>2021-06-21T13:48:26Z</time>
      </trkpt>
      <trkpt lat="44.38798" lon="6.78008">
        <ele>1724.8</ele>
        <time>2021-06-21T13:48:30Z</time>
      </trkpt>
      <trkpt lat="44.38805" lon="6.78011">
        <ele>1725.9</ele>
        <time>2021-06-21T13:48:34Z</time>
      </trkpt>
      <trkpt lat="44.38813" lon="6.78012">
        <ele>1726.3</ele>
        <time>2021-06-21T13:48:38Z</time>
      </trkpt>
      <trkpt lat="44.38822" lon="6.78013">
        <ele>1726.8</ele>
        <time>2021-06-21T13:48:42Z</time>
      </trkpt>
      <trkpt lat="44.38831" lon="6.78013">
        <ele>1726.9</ele>
        <time>2021-06-21T13:48:46Z</time>
      </trkpt>
      <trkpt lat="44.38839" lon="6.78013">
        <ele>1726.5</ele>
        <time>2021-06-21T13:48:50Z</time>
      </trkpt>
      <trkpt lat="44.38848" lon="6.78014">
        <ele>1726.2</ele>
        <time>2021-06-21T13:48:54Z</time>
      </trkpt>
      <trkpt lat="44.38856" lon="6.78016">
        <ele>1726.2</ele>
        <time>2021-06-21T13:48:58Z</time>
      </trkpt>
      <trkpt lat="44.38864" lon="6.78018">
        <ele>1726.2</ele>
        <time>2021-06-21T13:49:02Z</time>
      </trkpt>
      <trkpt lat="44.38872" lon="6.78021">
        <ele>1726.5</ele>
        <time>2021-06-21T13:49:06Z</time>
      </trkpt>
      <trkpt lat="44.3888" lon="6.78024">
        <ele>1726.8</ele>
        <time>2021-06-21T13:49:10Z</time>
      </trkpt>
      <trkpt lat="44.38886" lon="6.7803">
        <ele>1727.9</ele>
        <time>2021-06-21T13:49:14Z</time>
      </trkpt>
      <trkpt lat="44.38893" lon="6.78036">
        <ele>1729</ele>
        <time>2021-06-21T13:49:18Z</time>
      </trkpt>
      <trkpt lat="44.389" lon="6.78043">
        <ele>1730.2</ele>
        <time>2021-06-21T13:49:22Z</time>
      </trkpt>
      <trkpt lat="44.38907" lon="6.78049">
        <ele>1731.2</ele>
        <time>2021-06-21T13:49:26Z</time>
      </trkpt>
      <trkpt lat="44.38913" lon="6.78055">
        <ele>1732.2</ele>
        <time>2021-06-21T13:49:30Z</time>
      </trkpt>
      <trkpt lat="44.3892" lon="6.78062">
        <ele>1732.9</ele>
        <time>2021-06-21T13:49:34Z</time>
      </trkpt>
      <trkpt lat="44.38924" lon="6.78073">
        <ele>1734.7</ele>
        <time>2021-06-21T13:49:38Z</time>
      </trkpt>
      <trkpt lat="44.38918" lon="6.78075">
        <ele>1736.6</ele>
        <time>2021-06-21T13:49:42Z</time>
      </trkpt>
      <trkpt lat="44.38913" lon="6.78067">
        <ele>1735.2</ele>
        <time>2021-06-21T13:49:46Z</time>
      </trkpt>
      <trkpt lat="44.38907" lon="6.78062">
        <ele>1734.5</ele>
        <time>2021-06-21T13:49:50Z</time>
      </trkpt>
      <trkpt lat="44.389" lon="6.78058">
        <ele>1734.2</ele>
        <time>2021-06-21T13:49:54Z</time>
      </trkpt>
      <trkpt lat="44.38892" lon="6.78056">
        <ele>1734.4</ele>
        <time>2021-06-21T13:49:58Z</time>
      </trkpt>
      <trkpt lat="44.38885" lon="6.78055">
        <ele>1734.8</ele>
        <time>2021-06-21T13:50:02Z</time>
      </trkpt>
      <trkpt lat="44.38877" lon="6.78055">
        <ele>1735.5</ele>
        <time>2021-06-21T13:50:06Z</time>
      </trkpt>
      <trkpt lat="44.38869" lon="6.78056">
        <ele>1736.5</ele>
        <time>2021-06-21T13:50:10Z</time>
      </trkpt>
      <trkpt lat="44.38861" lon="6.78056">
        <ele>1737.2</ele>
        <time>2021-06-21T13:50:14Z</time>
      </trkpt>
      <trkpt lat="44.38853" lon="6.78057">
        <ele>1738.3</ele>
        <time>2021-06-21T13:50:18Z</time>
      </trkpt>
      <trkpt lat="44.38845" lon="6.78058">
        <ele>1739.3</ele>
        <time>2021-06-21T13:50:22Z</time>
      </trkpt>
      <trkpt lat="44.38837" lon="6.78059">
        <ele>1740.4</ele>
        <time>2021-06-21T13:50:26Z</time>
      </trkpt>
      <trkpt lat="44.38829" lon="6.78058">
        <ele>1740.5</ele>
        <time>2021-06-21T13:50:30Z</time>
      </trkpt>
      <trkpt lat="44.38822" lon="6.78058">
        <ele>1740.7</ele>
        <time>2021-06-21T13:50:34Z</time>
      </trkpt>
      <trkpt lat="44.38815" lon="6.78058">
        <ele>1740.9</ele>
        <time>2021-06-21T13:50:38Z</time>
      </trkpt>
      <trkpt lat="44.38808" lon="6.7806">
        <ele>1741.7</ele>
        <time>2021-06-21T13:50:42Z</time>
      </trkpt>
      <trkpt lat="44.38801" lon="6.78062">
        <ele>1742.6</ele>
        <time>2021-06-21T13:50:46Z</time>
      </trkpt>
      <trkpt lat="44.38795" lon="6.78067">
        <ele>1744.4</ele>
        <time>2021-06-21T13:50:50Z</time>
      </trkpt>
      <trkpt lat="44.38788" lon="6.7807">
        <ele>1745.7</ele>
        <time>2021-06-21T13:50:54Z</time>
      </trkpt>
      <trkpt lat="44.38782" lon="6.78074">
        <ele>1747.3</ele>
        <time>2021-06-21T13:50:58Z</time>
      </trkpt>
      <trkpt lat="44.38776" lon="6.78075">
        <ele>1747.8</ele>
        <time>2021-06-21T13:51:02Z</time>
      </trkpt>
      <trkpt lat="44.38767" lon="6.78076">
        <ele>1748.6</ele>
        <time>2021-06-21T13:51:06Z</time>
      </trkpt>
      <trkpt lat="44.38758" lon="6.78076">
        <ele>1748.9</ele>
        <time>2021-06-21T13:51:10Z</time>
      </trkpt>
      <trkpt lat="44.38751" lon="6.78076">
        <ele>1749.2</ele>
        <time>2021-06-21T13:51:14Z</time>
      </trkpt>
      <trkpt lat="44.38743" lon="6.78076">
        <ele>1750.6</ele>
        <time>2021-06-21T13:51:18Z</time>
      </trkpt>
      <trkpt lat="44.38735" lon="6.78079">
        <ele>1753.3</ele>
        <time>2021-06-21T13:51:22Z</time>
      </trkpt>
      <trkpt lat="44.38728" lon="6.78084">
        <ele>1756.8</ele>
        <time>2021-06-21T13:51:26Z</time>
      </trkpt>
      <trkpt lat="44.38723" lon="6.78089">
        <ele>1760.3</ele>
        <time>2021-06-21T13:51:30Z</time>
      </trkpt>
      <trkpt lat="44.38717" lon="6.78095">
        <ele>1764.5</ele>
        <time>2021-06-21T13:51:34Z</time>
      </trkpt>
      <trkpt lat="44.38711" lon="6.78099">
        <ele>1767.8</ele>
        <time>2021-06-21T13:51:38Z</time>
      </trkpt>
      <trkpt lat="44.38704" lon="6.781">
        <ele>1769.8</ele>
        <time>2021-06-21T13:51:42Z</time>
      </trkpt>
      <trkpt lat="44.38696" lon="6.78101">
        <ele>1772.1</ele>
        <time>2021-06-21T13:51:46Z</time>
      </trkpt>
      <trkpt lat="44.38688" lon="6.78099">
        <ele>1772.8</ele>
        <time>2021-06-21T13:51:50Z</time>
      </trkpt>
      <trkpt lat="44.38681" lon="6.78095">
        <ele>1772.2</ele>
        <time>2021-06-21T13:51:54Z</time>
      </trkpt>
      <trkpt lat="44.38674" lon="6.7809">
        <ele>1771.1</ele>
        <time>2021-06-21T13:51:58Z</time>
      </trkpt>
      <trkpt lat="44.38668" lon="6.78083">
        <ele>1768.5</ele>
        <time>2021-06-21T13:52:02Z</time>
      </trkpt>
      <trkpt lat="44.38662" lon="6.78075">
        <ele>1765.9</ele>
        <time>2021-06-21T13:52:06Z</time>
      </trkpt>
      <trkpt lat="44.38659" lon="6.78069">
        <ele>1763.5</ele>
        <time>2021-06-21T13:52:10Z</time>
      </trkpt>
      <trkpt lat="44.38651" lon="6.78064">
        <ele>1763.2</ele>
        <time>2021-06-21T13:52:14Z</time>
      </trkpt>
      <trkpt lat="44.38644" lon="6.7806">
        <ele>1763.2</ele>
        <time>2021-06-21T13:52:18Z</time>
      </trkpt>
      <trkpt lat="44.38636" lon="6.78057">
        <ele>1764.1</ele>
        <time>2021-06-21T13:52:22Z</time>
      </trkpt>
      <trkpt lat="44.38629" lon="6.78053">
        <ele>1764.1</ele>
        <time>2021-06-21T13:52:26Z</time>
      </trkpt>
      <trkpt lat="44.38621" lon="6.78048">
        <ele>1764</ele>
        <time>2021-06-21T13:52:30Z</time>
      </trkpt>
      <trkpt lat="44.38612" lon="6.78044">
        <ele>1764.7</ele>
        <time>2021-06-21T13:52:34Z</time>
      </trkpt>
      <trkpt lat="44.38605" lon="6.78039">
        <ele>1764.4</ele>
        <time>2021-06-21T13:52:38Z</time>
      </trkpt>
      <trkpt lat="44.38598" lon="6.78037">
        <ele>1765.6</ele>
        <time>2021-06-21T13:52:42Z</time>
      </trkpt>
      <trkpt lat="44.3859" lon="6.78038">
        <ele>1768.6</ele>
        <time>2021-06-21T13:52:46Z</time>
      </trkpt>
      <trkpt lat="44.38582" lon="6.78041">
        <ele>1772.4</ele>
        <time>2021-06-21T13:52:50Z</time>
      </trkpt>
      <trkpt lat="44.38575" lon="6.78042">
        <ele>1774.3</ele>
        <time>2021-06-21T13:52:54Z</time>
      </trkpt>
      <trkpt lat="44.38566" lon="6.78044">
        <ele>1776.9</ele>
        <time>2021-06-21T13:52:58Z</time>
      </trkpt>
      <trkpt lat="44.38558" lon="6.78045">
        <ele>1778.9</ele>
        <time>2021-06-21T13:53:02Z</time>
      </trkpt>
      <trkpt lat="44.3855" lon="6.78043">
        <ele>1779.6</ele>
        <time>2021-06-21T13:53:06Z</time>
      </trkpt>
      <trkpt lat="44.38542" lon="6.78042">
        <ele>1780.8</ele>
        <time>2021-06-21T13:53:10Z</time>
      </trkpt>
      <trkpt lat="44.38533" lon="6.7804">
        <ele>1781.9</ele>
        <time>2021-06-21T13:53:14Z</time>
      </trkpt>
      <trkpt lat="44.38525" lon="6.78039">
        <ele>1783.3</ele>
        <time>2021-06-21T13:53:18Z</time>
      </trkpt>
      <trkpt lat="44.38517" lon="6.78038">
        <ele>1784.6</ele>
        <time>2021-06-21T13:53:22Z</time>
      </trkpt>
      <trkpt lat="44.38509" lon="6.78036">
        <ele>1785.8</ele>
        <time>2021-06-21T13:53:26Z</time>
      </trkpt>
      <trkpt lat="44.38502" lon="6.78032">
        <ele>1786.5</ele>
        <time>2021-06-21T13:53:30Z</time>
      </trkpt>
      <trkpt lat="44.38496" lon="6.78025">
        <ele>1785.5</ele>
        <time>2021-06-21T13:53:34Z</time>
      </trkpt>
      <trkpt lat="44.38491" lon="6.78016">
        <ele>1783.5</ele>
        <time>2021-06-21T13:53:38Z</time>
      </trkpt>
      <trkpt lat="44.38487" lon="6.78007">
        <ele>1781.4</ele>
        <time>2021-06-21T13:53:42Z</time>
      </trkpt>
      <trkpt lat="44.38482" lon="6.77998">
        <ele>1779.5</ele>
        <time>2021-06-21T13:53:46Z</time>
      </trkpt>
      <trkpt lat="44.38475" lon="6.77991">
        <ele>1778.4</ele>
        <time>2021-06-21T13:53:50Z</time>
      </trkpt>
      <trkpt lat="44.38468" lon="6.77986">
        <ele>1777.5</ele>
        <time>2021-06-21T13:53:54Z</time>
      </trkpt>
      <trkpt lat="44.3846" lon="6.77987">
        <ele>1777.6</ele>
        <time>2021-06-21T13:53:58Z</time>
      </trkpt>
      <trkpt lat="44.38452" lon="6.77991">
        <ele>1778.1</ele>
        <time>2021-06-21T13:54:02Z</time>
      </trkpt>
      <trkpt lat="44.38444" lon="6.77995">
        <ele>1778.6</ele>
        <time>2021-06-21T13:54:06Z</time>
      </trkpt>
      <trkpt lat="44.38436" lon="6.78">
        <ele>1779.2</ele>
        <time>2021-06-21T13:54:10Z</time>
      </trkpt>
      <trkpt lat="44.38429" lon="6.78005">
        <ele>1780.6</ele>
        <time>2021-06-21T13:54:14Z</time>
      </trkpt>
      <trkpt lat="44.38422" lon="6.7801">
        <ele>1782</ele>
        <time>2021-06-21T13:54:18Z</time>
      </trkpt>
      <trkpt lat="44.38415" lon="6.78013">
        <ele>1783</ele>
        <time>2021-06-21T13:54:22Z</time>
      </trkpt>
      <trkpt lat="44.38407" lon="6.78018">
        <ele>1784.7</ele>
        <time>2021-06-21T13:54:26Z</time>
      </trkpt>
      <trkpt lat="44.384" lon="6.78021">
        <ele>1785.8</ele>
        <time>2021-06-21T13:54:30Z</time>
      </trkpt>
      <trkpt lat="44.38393" lon="6.78025">
        <ele>1787.2</ele>
        <time>2021-06-21T13:54:34Z</time>
      </trkpt>
      <trkpt lat="44.38386" lon="6.7803">
        <ele>1788.8</ele>
        <time>2021-06-21T13:54:38Z</time>
      </trkpt>
      <trkpt lat="44.3838" lon="6.78037">
        <ele>1790.9</ele>
        <time>2021-06-21T13:54:42Z</time>
      </trkpt>
      <trkpt lat="44.38372" lon="6.78047">
        <ele>1793.7</ele>
        <time>2021-06-21T13:54:46Z</time>
      </trkpt>
      <trkpt lat="44.38364" lon="6.78051">
        <ele>1794.9</ele>
        <time>2021-06-21T13:54:50Z</time>
      </trkpt>
      <trkpt lat="44.38355" lon="6.78046">
        <ele>1793.7</ele>
        <time>2021-06-21T13:54:54Z</time>
      </trkpt>
      <trkpt lat="44.38344" lon="6.7804">
        <ele>1792.4</ele>
        <time>2021-06-21T13:54:58Z</time>
      </trkpt>
      <trkpt lat="44.3833" lon="6.7804">
        <ele>1792.7</ele>
        <time>2021-06-21T13:55:02Z</time>
      </trkpt>
      <trkpt lat="44.38317" lon="6.78044">
        <ele>1794.1</ele>
        <time>2021-06-21T13:55:06Z</time>
      </trkpt>
      <trkpt lat="44.38304" lon="6.78051">
        <ele>1795.9</ele>
        <time>2021-06-21T13:55:10Z</time>
      </trkpt>
      <trkpt lat="44.38289" lon="6.78058">
        <ele>1797.5</ele>
        <time>2021-06-21T13:55:14Z</time>
      </trkpt>
      <trkpt lat="44.38274" lon="6.78048">
        <ele>1796.1</ele>
        <time>2021-06-21T13:55:18Z</time>
      </trkpt>
      <trkpt lat="44.38265" lon="6.78035">
        <ele>1794.5</ele>
        <time>2021-06-21T13:55:22Z</time>
      </trkpt>
      <trkpt lat="44.38254" lon="6.78027">
        <ele>1794</ele>
        <time>2021-06-21T13:55:26Z</time>
      </trkpt>
      <trkpt lat="44.38242" lon="6.78025">
        <ele>1794.3</ele>
        <time>2021-06-21T13:55:30Z</time>
      </trkpt>
      <trkpt lat="44.38232" lon="6.78025">
        <ele>1794.7</ele>
        <time>2021-06-21T13:55:34Z</time>
      </trkpt>
      <trkpt lat="44.38223" lon="6.78026">
        <ele>1795.2</ele>
        <time>2021-06-21T13:55:38Z</time>
      </trkpt>
      <trkpt lat="44.38213" lon="6.78027">
        <ele>1795.8</ele>
        <time>2021-06-21T13:55:42Z</time>
      </trkpt>
      <trkpt lat="44.38203" lon="6.78028">
        <ele>1796.4</ele>
        <time>2021-06-21T13:55:46Z</time>
      </trkpt>
      <trkpt lat="44.38193" lon="6.78031">
        <ele>1797.5</ele>
        <time>2021-06-21T13:55:50Z</time>
      </trkpt>
      <trkpt lat="44.38184" lon="6.78034">
        <ele>1798.6</ele>
        <time>2021-06-21T13:55:54Z</time>
      </trkpt>
      <trkpt lat="44.38175" lon="6.78038">
        <ele>1800.1</ele>
        <time>2021-06-21T13:55:58Z</time>
      </trkpt>
      <trkpt lat="44.38166" lon="6.78042">
        <ele>1801.6</ele>
        <time>2021-06-21T13:56:02Z</time>
      </trkpt>
      <trkpt lat="44.38157" lon="6.78044">
        <ele>1802.9</ele>
        <time>2021-06-21T13:56:06Z</time>
      </trkpt>
      <trkpt lat="44.38149" lon="6.78041">
        <ele>1802.9</ele>
        <time>2021-06-21T13:56:10Z</time>
      </trkpt>
      <trkpt lat="44.38142" lon="6.78037">
        <ele>1802.6</ele>
        <time>2021-06-21T13:56:14Z</time>
      </trkpt>
      <trkpt lat="44.38135" lon="6.78034">
        <ele>1802.5</ele>
        <time>2021-06-21T13:56:18Z</time>
      </trkpt>
      <trkpt lat="44.38128" lon="6.78033">
        <ele>1802.9</ele>
        <time>2021-06-21T13:56:22Z</time>
      </trkpt>
      <trkpt lat="44.38121" lon="6.78034">
        <ele>1803.8</ele>
        <time>2021-06-21T13:56:26Z</time>
      </trkpt>
      <trkpt lat="44.38114" lon="6.78036">
        <ele>1804.9</ele>
        <time>2021-06-21T13:56:30Z</time>
      </trkpt>
      <trkpt lat="44.38106" lon="6.78041">
        <ele>1806.8</ele>
        <time>2021-06-21T13:56:34Z</time>
      </trkpt>
      <trkpt lat="44.38099" lon="6.78047">
        <ele>1808.8</ele>
        <time>2021-06-21T13:56:38Z</time>
      </trkpt>
      <trkpt lat="44.38092" lon="6.78051">
        <ele>1810.3</ele>
        <time>2021-06-21T13:56:42Z</time>
      </trkpt>
      <trkpt lat="44.38084" lon="6.78051">
        <ele>1811</ele>
        <time>2021-06-21T13:56:46Z</time>
      </trkpt>
      <trkpt lat="44.38077" lon="6.78049">
        <ele>1810.4</ele>
        <time>2021-06-21T13:56:50Z</time>
      </trkpt>
      <trkpt lat="44.38072" lon="6.78052">
        <ele>1810.8</ele>
        <time>2021-06-21T13:56:54Z</time>
      </trkpt>
      <trkpt lat="44.38063" lon="6.78059">
        <ele>1812</ele>
        <time>2021-06-21T13:56:58Z</time>
      </trkpt>
      <trkpt lat="44.38057" lon="6.78069">
        <ele>1813.8</ele>
        <time>2021-06-21T13:57:02Z</time>
      </trkpt>
      <trkpt lat="44.38048" lon="6.78078">
        <ele>1815.2</ele>
        <time>2021-06-21T13:57:06Z</time>
      </trkpt>
      <trkpt lat="44.38038" lon="6.78086">
        <ele>1816.5</ele>
        <time>2021-06-21T13:57:10Z</time>
      </trkpt>
      <trkpt lat="44.38027" lon="6.78094">
        <ele>1817.9</ele>
        <time>2021-06-21T13:57:14Z</time>
      </trkpt>
      <trkpt lat="44.38015" lon="6.78098">
        <ele>1818.4</ele>
        <time>2021-06-21T13:57:18Z</time>
      </trkpt>
      <trkpt lat="44.38003" lon="6.78098">
        <ele>1817.8</ele>
        <time>2021-06-21T13:57:22Z</time>
      </trkpt>
      <trkpt lat="44.37991" lon="6.78101">
        <ele>1818.4</ele>
        <time>2021-06-21T13:57:26Z</time>
      </trkpt>
      <trkpt lat="44.37979" lon="6.78107">
        <ele>1819.8</ele>
        <time>2021-06-21T13:57:30Z</time>
      </trkpt>
      <trkpt lat="44.37966" lon="6.78114">
        <ele>1821.7</ele>
        <time>2021-06-21T13:57:34Z</time>
      </trkpt>
      <trkpt lat="44.37956" lon="6.78112">
        <ele>1821.1</ele>
        <time>2021-06-21T13:57:38Z</time>
      </trkpt>
      <trkpt lat="44.37942" lon="6.78103">
        <ele>1818.4</ele>
        <time>2021-06-21T13:57:42Z</time>
      </trkpt>
      <trkpt lat="44.37929" lon="6.78098">
        <ele>1816.7</ele>
        <time>2021-06-21T13:57:46Z</time>
      </trkpt>
      <trkpt lat="44.37911" lon="6.78091">
        <ele>1815.1</ele>
        <time>2021-06-21T13:57:50Z</time>
      </trkpt>
      <trkpt lat="44.37897" lon="6.78079">
        <ele>1813.7</ele>
        <time>2021-06-21T13:57:54Z</time>
      </trkpt>
      <trkpt lat="44.37882" lon="6.78071">
        <ele>1814.2</ele>
        <time>2021-06-21T13:57:58Z</time>
      </trkpt>
      <trkpt lat="44.37867" lon="6.78062">
        <ele>1814.6</ele>
        <time>2021-06-21T13:58:02Z</time>
      </trkpt>
      <trkpt lat="44.37849" lon="6.78057">
        <ele>1816</ele>
        <time>2021-06-21T13:58:06Z</time>
      </trkpt>
      <trkpt lat="44.37829" lon="6.78053">
        <ele>1817.9</ele>
        <time>2021-06-21T13:58:10Z</time>
      </trkpt>
      <trkpt lat="44.37811" lon="6.78047">
        <ele>1819.6</ele>
        <time>2021-06-21T13:58:14Z</time>
      </trkpt>
      <trkpt lat="44.37791" lon="6.78034">
        <ele>1819.7</ele>
        <time>2021-06-21T13:58:18Z</time>
      </trkpt>
      <trkpt lat="44.3778" lon="6.78024">
        <ele>1818.9</ele>
        <time>2021-06-21T13:58:22Z</time>
      </trkpt>
      <trkpt lat="44.37768" lon="6.78017">
        <ele>1818.6</ele>
        <time>2021-06-21T13:58:26Z</time>
      </trkpt>
      <trkpt lat="44.37756" lon="6.78012">
        <ele>1818.6</ele>
        <time>2021-06-21T13:58:30Z</time>
      </trkpt>
      <trkpt lat="44.37747" lon="6.78008">
        <ele>1818.5</ele>
        <time>2021-06-21T13:58:34Z</time>
      </trkpt>
      <trkpt lat="44.37739" lon="6.78004">
        <ele>1818.6</ele>
        <time>2021-06-21T13:58:38Z</time>
      </trkpt>
      <trkpt lat="44.37733" lon="6.78004">
        <ele>1819.5</ele>
        <time>2021-06-21T13:58:42Z</time>
      </trkpt>
      <trkpt lat="44.37729" lon="6.78004">
        <ele>1820.1</ele>
        <time>2021-06-21T13:58:46Z</time>
      </trkpt>
      <trkpt lat="44.37725" lon="6.77999">
        <ele>1819.8</ele>
        <time>2021-06-21T13:58:50Z</time>
      </trkpt>
      <trkpt lat="44.3772" lon="6.77989">
        <ele>1822.3</ele>
        <time>2021-06-21T13:58:54Z</time>
      </trkpt>
      <trkpt lat="44.37718" lon="6.77981">
        <ele>1824</ele>
        <time>2021-06-21T13:58:58Z</time>
      </trkpt>
      <trkpt lat="44.37712" lon="6.77976">
        <ele>1825.7</ele>
        <time>2021-06-21T13:59:02Z</time>
      </trkpt>
      <trkpt lat="44.37706" lon="6.77972">
        <ele>1827.2</ele>
        <time>2021-06-21T13:59:06Z</time>
      </trkpt>
      <trkpt lat="44.37701" lon="6.77971">
        <ele>1828</ele>
        <time>2021-06-21T13:59:10Z</time>
      </trkpt>
      <trkpt lat="44.37697" lon="6.77972">
        <ele>1828.4</ele>
        <time>2021-06-21T13:59:14Z</time>
      </trkpt>
      <trkpt lat="44.37691" lon="6.77974">
        <ele>1828.8</ele>
        <time>2021-06-21T13:59:18Z</time>
      </trkpt>
      <trkpt lat="44.37685" lon="6.77975">
        <ele>1829.5</ele>
        <time>2021-06-21T13:59:22Z</time>
      </trkpt>
      <trkpt lat="44.37679" lon="6.77974">
        <ele>1830.4</ele>
        <time>2021-06-21T13:59:26Z</time>
      </trkpt>
      <trkpt lat="44.37674" lon="6.77967">
        <ele>1832.2</ele>
        <time>2021-06-21T13:59:30Z</time>
      </trkpt>
      <trkpt lat="44.37675" lon="6.77961">
        <ele>1833</ele>
        <time>2021-06-21T13:59:34Z</time>
      </trkpt>
      <trkpt lat="44.37682" lon="6.7796">
        <ele>1832.3</ele>
        <time>2021-06-21T13:59:38Z</time>
      </trkpt>
      <trkpt lat="44.3769" lon="6.77958">
        <ele>1831.6</ele>
        <time>2021-06-21T13:59:42Z</time>
      </trkpt>
      <trkpt lat="44.37697" lon="6.77954">
        <ele>1831.4</ele>
        <time>2021-06-21T13:59:46Z</time>
      </trkpt>
      <trkpt lat="44.37704" lon="6.7795">
        <ele>1831.2</ele>
        <time>2021-06-21T13:59:50Z</time>
      </trkpt>
      <trkpt lat="44.37712" lon="6.77945">
        <ele>1831.1</ele>
        <time>2021-06-21T13:59:54Z</time>
      </trkpt>
      <trkpt lat="44.37719" lon="6.77939">
        <ele>1831.4</ele>
        <time>2021-06-21T13:59:58Z</time>
      </trkpt>
      <trkpt lat="44.37727" lon="6.77932">
        <ele>1831.7</ele>
        <time>2021-06-21T14:00:02Z</time>
      </trkpt>
      <trkpt lat="44.37733" lon="6.77928">
        <ele>1831.7</ele>
        <time>2021-06-21T14:00:06Z</time>
      </trkpt>
      <trkpt lat="44.37741" lon="6.77927">
        <ele>1831</ele>
        <time>2021-06-21T14:00:10Z</time>
      </trkpt>
      <trkpt lat="44.37749" lon="6.77927">
        <ele>1830.1</ele>
        <time>2021-06-21T14:00:14Z</time>
      </trkpt>
      <trkpt lat="44.37756" lon="6.77928">
        <ele>1829.5</ele>
        <time>2021-06-21T14:00:18Z</time>
      </trkpt>
      <trkpt lat="44.37763" lon="6.77927">
        <ele>1829.3</ele>
        <time>2021-06-21T14:00:22Z</time>
      </trkpt>
      <trkpt lat="44.3777" lon="6.77925">
        <ele>1829.4</ele>
        <time>2021-06-21T14:00:26Z</time>
      </trkpt>
      <trkpt lat="44.37777" lon="6.77925">
        <ele>1829</ele>
        <time>2021-06-21T14:00:30Z</time>
      </trkpt>
      <trkpt lat="44.37784" lon="6.77925">
        <ele>1828.6</ele>
        <time>2021-06-21T14:00:34Z</time>
      </trkpt>
      <trkpt lat="44.3779" lon="6.77924">
        <ele>1828.5</ele>
        <time>2021-06-21T14:00:38Z</time>
      </trkpt>
      <trkpt lat="44.37797" lon="6.77923">
        <ele>1828.4</ele>
        <time>2021-06-21T14:00:42Z</time>
      </trkpt>
      <trkpt lat="44.37803" lon="6.77922">
        <ele>1828.3</ele>
        <time>2021-06-21T14:00:46Z</time>
      </trkpt>
      <trkpt lat="44.3781" lon="6.7792">
        <ele>1828.4</ele>
        <time>2021-06-21T14:00:50Z</time>
      </trkpt>
      <trkpt lat="44.37816" lon="6.77918">
        <ele>1828.5</ele>
        <time>2021-06-21T14:00:54Z</time>
      </trkpt>
      <trkpt lat="44.37821" lon="6.77914">
        <ele>1829.5</ele>
        <time>2021-06-21T14:00:58Z</time>
      </trkpt>
      <trkpt lat="44.37828" lon="6.77909">
        <ele>1830.9</ele>
        <time>2021-06-21T14:01:02Z</time>
      </trkpt>
      <trkpt lat="44.37837" lon="6.77904">
        <ele>1831.9</ele>
        <time>2021-06-21T14:01:06Z</time>
      </trkpt>
      <trkpt lat="44.37843" lon="6.77898">
        <ele>1833</ele>
        <time>2021-06-21T14:01:10Z</time>
      </trkpt>
      <trkpt lat="44.37849" lon="6.77893">
        <ele>1833.8</ele>
        <time>2021-06-21T14:01:14Z</time>
      </trkpt>
      <trkpt lat="44.37855" lon="6.77887">
        <ele>1834.9</ele>
        <time>2021-06-21T14:01:18Z</time>
      </trkpt>
      <trkpt lat="44.37861" lon="6.77878">
        <ele>1837</ele>
        <time>2021-06-21T14:01:22Z</time>
      </trkpt>
      <trkpt lat="44.37867" lon="6.7787">
        <ele>1838.7</ele>
        <time>2021-06-21T14:01:26Z</time>
      </trkpt>
      <trkpt lat="44.37874" lon="6.77859">
        <ele>1841.2</ele>
        <time>2021-06-21T14:01:30Z</time>
      </trkpt>
      <trkpt lat="44.37882" lon="6.7785">
        <ele>1842.8</ele>
        <time>2021-06-21T14:01:34Z</time>
      </trkpt>
      <trkpt lat="44.37889" lon="6.77841">
        <ele>1844.5</ele>
        <time>2021-06-21T14:01:38Z</time>
      </trkpt>
      <trkpt lat="44.37895" lon="6.77832">
        <ele>1846.3</ele>
        <time>2021-06-21T14:01:42Z</time>
      </trkpt>
      <trkpt lat="44.37903" lon="6.77825">
        <ele>1847</ele>
        <time>2021-06-21T14:01:46Z</time>
      </trkpt>
      <trkpt lat="44.37912" lon="6.77817">
        <ele>1847.8</ele>
        <time>2021-06-21T14:01:50Z</time>
      </trkpt>
      <trkpt lat="44.37925" lon="6.77814">
        <ele>1846.9</ele>
        <time>2021-06-21T14:01:54Z</time>
      </trkpt>
      <trkpt lat="44.37938" lon="6.77814">
        <ele>1845.4</ele>
        <time>2021-06-21T14:01:58Z</time>
      </trkpt>
      <trkpt lat="44.37952" lon="6.77812">
        <ele>1844.5</ele>
        <time>2021-06-21T14:02:02Z</time>
      </trkpt>
      <trkpt lat="44.37965" lon="6.77808">
        <ele>1844.3</ele>
        <time>2021-06-21T14:02:06Z</time>
      </trkpt>
      <trkpt lat="44.37981" lon="6.77805">
        <ele>1843.6</ele>
        <time>2021-06-21T14:02:10Z</time>
      </trkpt>
      <trkpt lat="44.37994" lon="6.77804">
        <ele>1842.5</ele>
        <time>2021-06-21T14:02:14Z</time>
      </trkpt>
      <trkpt lat="44.38009" lon="6.77799">
        <ele>1842.7</ele>
        <time>2021-06-21T14:02:18Z</time>
      </trkpt>
      <trkpt lat="44.38026" lon="6.77791">
        <ele>1843.7</ele>
        <time>2021-06-21T14:02:22Z</time>
      </trkpt>
      <trkpt lat="44.3804" lon="6.77783">
        <ele>1845</ele>
        <time>2021-06-21T14:02:26Z</time>
      </trkpt>
      <trkpt lat="44.38055" lon="6.77777">
        <ele>1845.4</ele>
        <time>2021-06-21T14:02:30Z</time>
      </trkpt>
      <trkpt lat="44.38071" lon="6.77775">
        <ele>1844.4</ele>
        <time>2021-06-21T14:02:34Z</time>
      </trkpt>
      <trkpt lat="44.38086" lon="6.77767">
        <ele>1845.2</ele>
        <time>2021-06-21T14:02:38Z</time>
      </trkpt>
      <trkpt lat="44.38103" lon="6.77759">
        <ele>1845</ele>
        <time>2021-06-21T14:02:42Z</time>
      </trkpt>
      <trkpt lat="44.38116" lon="6.77754">
        <ele>1844.5</ele>
        <time>2021-06-21T14:02:46Z</time>
      </trkpt>
      <trkpt lat="44.38129" lon="6.77748">
        <ele>1844.6</ele>
        <time>2021-06-21T14:02:50Z</time>
      </trkpt>
      <trkpt lat="44.3814" lon="6.77741">
        <ele>1845.3</ele>
        <time>2021-06-21T14:02:54Z</time>
      </trkpt>
      <trkpt lat="44.38149" lon="6.77733">
        <ele>1846.6</ele>
        <time>2021-06-21T14:02:58Z</time>
      </trkpt>
      <trkpt lat="44.38159" lon="6.77723">
        <ele>1848.4</ele>
        <time>2021-06-21T14:03:02Z</time>
      </trkpt>
      <trkpt lat="44.38169" lon="6.77714">
        <ele>1849.4</ele>
        <time>2021-06-21T14:03:06Z</time>
      </trkpt>
      <trkpt lat="44.3818" lon="6.77705">
        <ele>1849.4</ele>
        <time>2021-06-21T14:03:10Z</time>
      </trkpt>
      <trkpt lat="44.38188" lon="6.77697">
        <ele>1849.9</ele>
        <time>2021-06-21T14:03:14Z</time>
      </trkpt>
      <trkpt lat="44.38199" lon="6.77689">
        <ele>1849.6</ele>
        <time>2021-06-21T14:03:18Z</time>
      </trkpt>
      <trkpt lat="44.38209" lon="6.77681">
        <ele>1849.7</ele>
        <time>2021-06-21T14:03:22Z</time>
      </trkpt>
      <trkpt lat="44.3822" lon="6.77677">
        <ele>1848.2</ele>
        <time>2021-06-21T14:03:26Z</time>
      </trkpt>
      <trkpt lat="44.3823" lon="6.77671">
        <ele>1847.7</ele>
        <time>2021-06-21T14:03:30Z</time>
      </trkpt>
      <trkpt lat="44.38239" lon="6.77665">
        <ele>1847.6</ele>
        <time>2021-06-21T14:03:34Z</time>
      </trkpt>
      <trkpt lat="44.38247" lon="6.77657">
        <ele>1848.6</ele>
        <time>2021-06-21T14:03:38Z</time>
      </trkpt>
      <trkpt lat="44.38254" lon="6.77645">
        <ele>1851.2</ele>
        <time>2021-06-21T14:03:42Z</time>
      </trkpt>
      <trkpt lat="44.38262" lon="6.77634">
        <ele>1852.5</ele>
        <time>2021-06-21T14:03:46Z</time>
      </trkpt>
      <trkpt lat="44.38272" lon="6.77627">
        <ele>1851.3</ele>
        <time>2021-06-21T14:03:50Z</time>
      </trkpt>
      <trkpt lat="44.3828" lon="6.7762">
        <ele>1850.7</ele>
        <time>2021-06-21T14:03:54Z</time>
      </trkpt>
      <trkpt lat="44.38288" lon="6.77612">
        <ele>1850.3</ele>
        <time>2021-06-21T14:03:58Z</time>
      </trkpt>
      <trkpt lat="44.38293" lon="6.77599">
        <ele>1852.7</ele>
        <time>2021-06-21T14:04:02Z</time>
      </trkpt>
      <trkpt lat="44.38294" lon="6.77586">
        <ele>1856.6</ele>
        <time>2021-06-21T14:04:06Z</time>
      </trkpt>
      <trkpt lat="44.38298" lon="6.77573">
        <ele>1859.1</ele>
        <time>2021-06-21T14:04:10Z</time>
      </trkpt>
      <trkpt lat="44.38306" lon="6.77562">
        <ele>1858.8</ele>
        <time>2021-06-21T14:04:14Z</time>
      </trkpt>
      <trkpt lat="44.38315" lon="6.77555">
        <ele>1856.4</ele>
        <time>2021-06-21T14:04:18Z</time>
      </trkpt>
      <trkpt lat="44.38322" lon="6.77545">
        <ele>1855.6</ele>
        <time>2021-06-21T14:04:22Z</time>
      </trkpt>
      <trkpt lat="44.38325" lon="6.77531">
        <ele>1857.8</ele>
        <time>2021-06-21T14:04:26Z</time>
      </trkpt>
      <trkpt lat="44.38329" lon="6.77517">
        <ele>1859.3</ele>
        <time>2021-06-21T14:04:30Z</time>
      </trkpt>
      <trkpt lat="44.38331" lon="6.77504">
        <ele>1861.4</ele>
        <time>2021-06-21T14:04:34Z</time>
      </trkpt>
      <trkpt lat="44.38336" lon="6.77491">
        <ele>1863</ele>
        <time>2021-06-21T14:04:38Z</time>
      </trkpt>
      <trkpt lat="44.38342" lon="6.77479">
        <ele>1864.4</ele>
        <time>2021-06-21T14:04:42Z</time>
      </trkpt>
      <trkpt lat="44.38349" lon="6.77467">
        <ele>1865.4</ele>
        <time>2021-06-21T14:04:46Z</time>
      </trkpt>
      <trkpt lat="44.38355" lon="6.77454">
        <ele>1867.4</ele>
        <time>2021-06-21T14:04:50Z</time>
      </trkpt>
      <trkpt lat="44.38362" lon="6.77443">
        <ele>1868.1</ele>
        <time>2021-06-21T14:04:54Z</time>
      </trkpt>
      <trkpt lat="44.38371" lon="6.77435">
        <ele>1866.8</ele>
        <time>2021-06-21T14:04:58Z</time>
      </trkpt>
      <trkpt lat="44.38379" lon="6.77427">
        <ele>1866</ele>
        <time>2021-06-21T14:05:02Z</time>
      </trkpt>
      <trkpt lat="44.38385" lon="6.77418">
        <ele>1866.7</ele>
        <time>2021-06-21T14:05:06Z</time>
      </trkpt>
      <trkpt lat="44.38388" lon="6.77405">
        <ele>1870.1</ele>
        <time>2021-06-21T14:05:10Z</time>
      </trkpt>
      <trkpt lat="44.38389" lon="6.77394">
        <ele>1873.7</ele>
        <time>2021-06-21T14:05:14Z</time>
      </trkpt>
      <trkpt lat="44.38395" lon="6.77384">
        <ele>1874.6</ele>
        <time>2021-06-21T14:05:18Z</time>
      </trkpt>
      <trkpt lat="44.38401" lon="6.77377">
        <ele>1874.5</ele>
        <time>2021-06-21T14:05:22Z</time>
      </trkpt>
      <trkpt lat="44.38407" lon="6.77371">
        <ele>1874</ele>
        <time>2021-06-21T14:05:26Z</time>
      </trkpt>
      <trkpt lat="44.38416" lon="6.77367">
        <ele>1871.4</ele>
        <time>2021-06-21T14:05:30Z</time>
      </trkpt>
      <trkpt lat="44.38421" lon="6.77364">
        <ele>1872.3</ele>
        <time>2021-06-21T14:05:34Z</time>
      </trkpt>
      <trkpt lat="44.38428" lon="6.77363">
        <ele>1872.8</ele>
        <time>2021-06-21T14:05:38Z</time>
      </trkpt>
      <trkpt lat="44.38436" lon="6.77361">
        <ele>1873.7</ele>
        <time>2021-06-21T14:05:42Z</time>
      </trkpt>
      <trkpt lat="44.38442" lon="6.77357">
        <ele>1875.3</ele>
        <time>2021-06-21T14:05:46Z</time>
      </trkpt>
      <trkpt lat="44.38447" lon="6.77358">
        <ele>1875</ele>
        <time>2021-06-21T14:05:50Z</time>
      </trkpt>
      <trkpt lat="44.38457" lon="6.77356">
        <ele>1876</ele>
        <time>2021-06-21T14:05:54Z</time>
      </trkpt>
      <trkpt lat="44.38464" lon="6.77356">
        <ele>1876.1</ele>
        <time>2021-06-21T14:05:58Z</time>
      </trkpt>
      <trkpt lat="44.38473" lon="6.77357">
        <ele>1875.9</ele>
        <time>2021-06-21T14:06:02Z</time>
      </trkpt>
      <trkpt lat="44.38482" lon="6.77359">
        <ele>1875.2</ele>
        <time>2021-06-21T14:06:06Z</time>
      </trkpt>
      <trkpt lat="44.3849" lon="6.77361">
        <ele>1874.6</ele>
        <time>2021-06-21T14:06:10Z</time>
      </trkpt>
      <trkpt lat="44.38498" lon="6.77363">
        <ele>1873.9</ele>
        <time>2021-06-21T14:06:14Z</time>
      </trkpt>
      <trkpt lat="44.38506" lon="6.77366">
        <ele>1872.5</ele>
        <time>2021-06-21T14:06:18Z</time>
      </trkpt>
      <trkpt lat="44.38513" lon="6.77369">
        <ele>1871</ele>
        <time>2021-06-21T14:06:22Z</time>
      </trkpt>
      <trkpt lat="44.38519" lon="6.77373">
        <ele>1869.2</ele>
        <time>2021-06-21T14:06:26Z</time>
      </trkpt>
      <trkpt lat="44.38525" lon="6.77374">
        <ele>1868.5</ele>
        <time>2021-06-21T14:06:30Z</time>
      </trkpt>
      <trkpt lat="44.38533" lon="6.77375">
        <ele>1867.8</ele>
        <time>2021-06-21T14:06:34Z</time>
      </trkpt>
      <trkpt lat="44.38541" lon="6.77375">
        <ele>1867.5</ele>
        <time>2021-06-21T14:06:38Z</time>
      </trkpt>
      <trkpt lat="44.38546" lon="6.77374">
        <ele>1867.8</ele>
        <time>2021-06-21T14:06:42Z</time>
      </trkpt>
      <trkpt lat="44.38552" lon="6.77377">
        <ele>1866.2</ele>
        <time>2021-06-21T14:06:46Z</time>
      </trkpt>
      <trkpt lat="44.38557" lon="6.77379">
        <ele>1865.1</ele>
        <time>2021-06-21T14:06:50Z</time>
      </trkpt>
      <trkpt lat="44.38565" lon="6.7738">
        <ele>1864.3</ele>
        <time>2021-06-21T14:06:54Z</time>
      </trkpt>
      <trkpt lat="44.3857" lon="6.77375">
        <ele>1866.5</ele>
        <time>2021-06-21T14:06:58Z</time>
      </trkpt>
      <trkpt lat="44.38574" lon="6.77369">
        <ele>1869.2</ele>
        <time>2021-06-21T14:07:02Z</time>
      </trkpt>
      <trkpt lat="44.38578" lon="6.77361">
        <ele>1872.8</ele>
        <time>2021-06-21T14:07:06Z</time>
      </trkpt>
      <trkpt lat="44.38579" lon="6.77352">
        <ele>1877.1</ele>
        <time>2021-06-21T14:07:10Z</time>
      </trkpt>
      <trkpt lat="44.38582" lon="6.77345">
        <ele>1880.4</ele>
        <time>2021-06-21T14:07:14Z</time>
      </trkpt>
      <trkpt lat="44.38582" lon="6.77338">
        <ele>1883.8</ele>
        <time>2021-06-21T14:07:18Z</time>
      </trkpt>
      <trkpt lat="44.38582" lon="6.7733">
        <ele>1887</ele>
        <time>2021-06-21T14:07:22Z</time>
      </trkpt>
      <trkpt lat="44.38581" lon="6.77324">
        <ele>1888.8</ele>
        <time>2021-06-21T14:07:26Z</time>
      </trkpt>
      <trkpt lat="44.38579" lon="6.77318">
        <ele>1890.6</ele>
        <time>2021-06-21T14:07:30Z</time>
      </trkpt>
      <trkpt lat="44.38578" lon="6.77312">
        <ele>1892.4</ele>
        <time>2021-06-21T14:07:34Z</time>
      </trkpt>
      <trkpt lat="44.38577" lon="6.77305">
        <ele>1894.5</ele>
        <time>2021-06-21T14:07:38Z</time>
      </trkpt>
      <trkpt lat="44.38575" lon="6.77299">
        <ele>1896.3</ele>
        <time>2021-06-21T14:07:42Z</time>
      </trkpt>
      <trkpt lat="44.38575" lon="6.77291">
        <ele>1898.8</ele>
        <time>2021-06-21T14:07:46Z</time>
      </trkpt>
      <trkpt lat="44.38577" lon="6.77284">
        <ele>1900.8</ele>
        <time>2021-06-21T14:07:50Z</time>
      </trkpt>
      <trkpt lat="44.38581" lon="6.77277">
        <ele>1902.9</ele>
        <time>2021-06-21T14:07:54Z</time>
      </trkpt>
      <trkpt lat="44.38584" lon="6.7727">
        <ele>1904.9</ele>
        <time>2021-06-21T14:07:58Z</time>
      </trkpt>
      <trkpt lat="44.38589" lon="6.77266">
        <ele>1905.5</ele>
        <time>2021-06-21T14:08:02Z</time>
      </trkpt>
      <trkpt lat="44.38594" lon="6.77265">
        <ele>1905.3</ele>
        <time>2021-06-21T14:08:06Z</time>
      </trkpt>
      <trkpt lat="44.386" lon="6.77266">
        <ele>1904.3</ele>
        <time>2021-06-21T14:08:10Z</time>
      </trkpt>
      <trkpt lat="44.38605" lon="6.77267">
        <ele>1903.3</ele>
        <time>2021-06-21T14:08:14Z</time>
      </trkpt>
      <trkpt lat="44.3861" lon="6.77267">
        <ele>1902.8</ele>
        <time>2021-06-21T14:08:18Z</time>
      </trkpt>
      <trkpt lat="44.38614" lon="6.77268">
        <ele>1901.9</ele>
        <time>2021-06-21T14:08:22Z</time>
      </trkpt>
      <trkpt lat="44.3862" lon="6.77269">
        <ele>1900.9</ele>
        <time>2021-06-21T14:08:26Z</time>
      </trkpt>
      <trkpt lat="44.38628" lon="6.77272">
        <ele>1898.8</ele>
        <time>2021-06-21T14:08:30Z</time>
      </trkpt>
      <trkpt lat="44.38634" lon="6.77274">
        <ele>1897.4</ele>
        <time>2021-06-21T14:08:34Z</time>
      </trkpt>
      <trkpt lat="44.3864" lon="6.77275">
        <ele>1896.2</ele>
        <time>2021-06-21T14:08:38Z</time>
      </trkpt>
      <trkpt lat="44.38648" lon="6.77279">
        <ele>1893.7</ele>
        <time>2021-06-21T14:08:42Z</time>
      </trkpt>
      <trkpt lat="44.38655" lon="6.77279">
        <ele>1892.7</ele>
        <time>2021-06-21T14:08:46Z</time>
      </trkpt>
      <trkpt lat="44.38661" lon="6.77275">
        <ele>1893.5</ele>
        <time>2021-06-21T14:08:50Z</time>
      </trkpt>
      <trkpt lat="44.38666" lon="6.77269">
        <ele>1895.3</ele>
        <time>2021-06-21T14:08:54Z</time>
      </trkpt>
      <trkpt lat="44.3867" lon="6.77263">
        <ele>1896.6</ele>
        <time>2021-06-21T14:08:58Z</time>
      </trkpt>
      <trkpt lat="44.38675" lon="6.77256">
        <ele>1897.8</ele>
        <time>2021-06-21T14:09:02Z</time>
      </trkpt>
      <trkpt lat="44.38678" lon="6.77249">
        <ele>1899.4</ele>
        <time>2021-06-21T14:09:06Z</time>
      </trkpt>
      <trkpt lat="44.38681" lon="6.77242">
        <ele>1899.6</ele>
        <time>2021-06-21T14:09:10Z</time>
      </trkpt>
      <trkpt lat="44.38683" lon="6.77235">
        <ele>1900.2</ele>
        <time>2021-06-21T14:09:14Z</time>
      </trkpt>
      <trkpt lat="44.38683" lon="6.77228">
        <ele>1901.5</ele>
        <time>2021-06-21T14:09:18Z</time>
      </trkpt>
      <trkpt lat="44.38683" lon="6.77221">
        <ele>1902.8</ele>
        <time>2021-06-21T14:09:22Z</time>
      </trkpt>
      <trkpt lat="44.38682" lon="6.77214">
        <ele>1904.4</ele>
        <time>2021-06-21T14:09:26Z</time>
      </trkpt>
      <trkpt lat="44.38682" lon="6.77206">
        <ele>1905.9</ele>
        <time>2021-06-21T14:09:30Z</time>
      </trkpt>
      <trkpt lat="44.38683" lon="6.77198">
        <ele>1907</ele>
        <time>2021-06-21T14:09:34Z</time>
      </trkpt>
      <trkpt lat="44.38683" lon="6.7719">
        <ele>1908.5</ele>
        <time>2021-06-21T14:09:38Z</time>
      </trkpt>
      <trkpt lat="44.38686" lon="6.77183">
        <ele>1908.8</ele>
        <time>2021-06-21T14:09:42Z</time>
      </trkpt>
      <trkpt lat="44.38688" lon="6.77177">
        <ele>1909.2</ele>
        <time>2021-06-21T14:09:46Z</time>
      </trkpt>
      <trkpt lat="44.38692" lon="6.77172">
        <ele>1908.8</ele>
        <time>2021-06-21T14:09:50Z</time>
      </trkpt>
      <trkpt lat="44.38696" lon="6.7717">
        <ele>1907.9</ele>
        <time>2021-06-21T14:09:54Z</time>
      </trkpt>
      <trkpt lat="44.38701" lon="6.77167">
        <ele>1906.8</ele>
        <time>2021-06-21T14:09:58Z</time>
      </trkpt>
      <trkpt lat="44.38705" lon="6.77165">
        <ele>1905.7</ele>
        <time>2021-06-21T14:10:02Z</time>
      </trkpt>
      <trkpt lat="44.38711" lon="6.77162">
        <ele>1904.1</ele>
        <time>2021-06-21T14:10:06Z</time>
      </trkpt>
      <trkpt lat="44.38714" lon="6.77156">
        <ele>1903.7</ele>
        <time>2021-06-21T14:10:10Z</time>
      </trkpt>
      <trkpt lat="44.38717" lon="6.77148">
        <ele>1903.6</ele>
        <time>2021-06-21T14:10:14Z</time>
      </trkpt>
      <trkpt lat="44.38719" lon="6.77142">
        <ele>1903.6</ele>
        <time>2021-06-21T14:10:18Z</time>
      </trkpt>
      <trkpt lat="44.38721" lon="6.77134">
        <ele>1903.8</ele>
        <time>2021-06-21T14:10:22Z</time>
      </trkpt>
      <trkpt lat="44.38723" lon="6.77126">
        <ele>1904</ele>
        <time>2021-06-21T14:10:26Z</time>
      </trkpt>
      <trkpt lat="44.38724" lon="6.77118">
        <ele>1904.5</ele>
        <time>2021-06-21T14:10:30Z</time>
      </trkpt>
      <trkpt lat="44.38722" lon="6.77109">
        <ele>1906.1</ele>
        <time>2021-06-21T14:10:34Z</time>
      </trkpt>
      <trkpt lat="44.38718" lon="6.77102">
        <ele>1907.9</ele>
        <time>2021-06-21T14:10:38Z</time>
      </trkpt>
      <trkpt lat="44.38713" lon="6.77095">
        <ele>1910.1</ele>
        <time>2021-06-21T14:10:42Z</time>
      </trkpt>
      <trkpt lat="44.38707" lon="6.77091">
        <ele>1912.1</ele>
        <time>2021-06-21T14:10:46Z</time>
      </trkpt>
      <trkpt lat="44.38702" lon="6.77084">
        <ele>1914.2</ele>
        <time>2021-06-21T14:10:50Z</time>
      </trkpt>
      <trkpt lat="44.38697" lon="6.77076">
        <ele>1913.9</ele>
        <time>2021-06-21T14:10:54Z</time>
      </trkpt>
      <trkpt lat="44.38691" lon="6.77068">
        <ele>1913.7</ele>
        <time>2021-06-21T14:10:58Z</time>
      </trkpt>
      <trkpt lat="44.38686" lon="6.7706">
        <ele>1913.1</ele>
        <time>2021-06-21T14:11:02Z</time>
      </trkpt>
      <trkpt lat="44.38679" lon="6.7705">
        <ele>1912.5</ele>
        <time>2021-06-21T14:11:06Z</time>
      </trkpt>
      <trkpt lat="44.38672" lon="6.77043">
        <ele>1912.5</ele>
        <time>2021-06-21T14:11:10Z</time>
      </trkpt>
      <trkpt lat="44.38666" lon="6.77037">
        <ele>1912.4</ele>
        <time>2021-06-21T14:11:14Z</time>
      </trkpt>
      <trkpt lat="44.38658" lon="6.77029">
        <ele>1911.3</ele>
        <time>2021-06-21T14:11:18Z</time>
      </trkpt>
      <trkpt lat="44.38647" lon="6.77022">
        <ele>1911</ele>
        <time>2021-06-21T14:11:22Z</time>
      </trkpt>
      <trkpt lat="44.38634" lon="6.77016">
        <ele>1911.1</ele>
        <time>2021-06-21T14:11:26Z</time>
      </trkpt>
      <trkpt lat="44.38618" lon="6.77011">
        <ele>1912</ele>
        <time>2021-06-21T14:11:30Z</time>
      </trkpt>
      <trkpt lat="44.38606" lon="6.77009">
        <ele>1913</ele>
        <time>2021-06-21T14:11:34Z</time>
      </trkpt>
      <trkpt lat="44.38594" lon="6.77007">
        <ele>1914.1</ele>
        <time>2021-06-21T14:11:38Z</time>
      </trkpt>
      <trkpt lat="44.38582" lon="6.77004">
        <ele>1915</ele>
        <time>2021-06-21T14:11:42Z</time>
      </trkpt>
      <trkpt lat="44.38569" lon="6.76999">
        <ele>1915.1</ele>
        <time>2021-06-21T14:11:46Z</time>
      </trkpt>
      <trkpt lat="44.38556" lon="6.76999">
        <ele>1916.5</ele>
        <time>2021-06-21T14:11:50Z</time>
      </trkpt>
      <trkpt lat="44.38541" lon="6.76998">
        <ele>1917.8</ele>
        <time>2021-06-21T14:11:54Z</time>
      </trkpt>
      <trkpt lat="44.38522" lon="6.76995">
        <ele>1918.8</ele>
        <time>2021-06-21T14:11:58Z</time>
      </trkpt>
      <trkpt lat="44.38509" lon="6.76987">
        <ele>1917.7</ele>
        <time>2021-06-21T14:12:02Z</time>
      </trkpt>
      <trkpt lat="44.38493" lon="6.76988">
        <ele>1920.1</ele>
        <time>2021-06-21T14:12:06Z</time>
      </trkpt>
      <trkpt lat="44.3847" lon="6.7699">
        <ele>1923.4</ele>
        <time>2021-06-21T14:12:10Z</time>
      </trkpt>
      <trkpt lat="44.38448" lon="6.76976">
        <ele>1921.4</ele>
        <time>2021-06-21T14:12:14Z</time>
      </trkpt>
      <trkpt lat="44.38426" lon="6.76963">
        <ele>1919.5</ele>
        <time>2021-06-21T14:12:18Z</time>
      </trkpt>
      <trkpt lat="44.38406" lon="6.76932">
        <ele>1912.6</ele>
        <time>2021-06-21T14:12:22Z</time>
      </trkpt>
      <trkpt lat="44.38395" lon="6.76902">
        <ele>1905.6</ele>
        <time>2021-06-21T14:12:26Z</time>
      </trkpt>
      <trkpt lat="44.38379" lon="6.76873">
        <ele>1900.3</ele>
        <time>2021-06-21T14:12:30Z</time>
      </trkpt>
      <trkpt lat="44.38358" lon="6.76861">
        <ele>1900.9</ele>
        <time>2021-06-21T14:12:34Z</time>
      </trkpt>
      <trkpt lat="44.38338" lon="6.76851">
        <ele>1901.8</ele>
        <time>2021-06-21T14:12:38Z</time>
      </trkpt>
      <trkpt lat="44.38315" lon="6.76831">
        <ele>1899.9</ele>
        <time>2021-06-21T14:12:42Z</time>
      </trkpt>
      <trkpt lat="44.38307" lon="6.76819">
        <ele>1897.9</ele>
        <time>2021-06-21T14:12:46Z</time>
      </trkpt>
      <trkpt lat="44.38313" lon="6.76806">
        <ele>1893.2</ele>
        <time>2021-06-21T14:12:50Z</time>
      </trkpt>
      <trkpt lat="44.38326" lon="6.7681">
        <ele>1892.5</ele>
        <time>2021-06-21T14:12:54Z</time>
      </trkpt>
      <trkpt lat="44.38343" lon="6.76818">
        <ele>1891.3</ele>
        <time>2021-06-21T14:12:58Z</time>
      </trkpt>
      <trkpt lat="44.38344" lon="6.76798">
        <ele>1885.9</ele>
        <time>2021-06-21T14:13:02Z</time>
      </trkpt>
      <trkpt lat="44.38329" lon="6.76784">
        <ele>1885.6</ele>
        <time>2021-06-21T14:13:06Z</time>
      </trkpt>
      <trkpt lat="44.38312" lon="6.7678">
        <ele>1886</ele>
        <time>2021-06-21T14:13:10Z</time>
      </trkpt>
      <trkpt lat="44.38295" lon="6.76772">
        <ele>1884.9</ele>
        <time>2021-06-21T14:13:14Z</time>
      </trkpt>
      <trkpt lat="44.38271" lon="6.76768">
        <ele>1885.1</ele>
        <time>2021-06-21T14:13:18Z</time>
      </trkpt>
      <trkpt lat="44.38247" lon="6.76777">
        <ele>1890.4</ele>
        <time>2021-06-21T14:13:22Z</time>
      </trkpt>
      <trkpt lat="44.38228" lon="6.76765">
        <ele>1888.3</ele>
        <time>2021-06-21T14:13:26Z</time>
      </trkpt>
      <trkpt lat="44.38213" lon="6.76756">
        <ele>1887.1</ele>
        <time>2021-06-21T14:13:30Z</time>
      </trkpt>
      <trkpt lat="44.382" lon="6.76745">
        <ele>1885.4</ele>
        <time>2021-06-21T14:13:34Z</time>
      </trkpt>
      <trkpt lat="44.38188" lon="6.76724">
        <ele>1880.9</ele>
        <time>2021-06-21T14:13:38Z</time>
      </trkpt>
      <trkpt lat="44.38179" lon="6.76709">
        <ele>1877.4</ele>
        <time>2021-06-21T14:13:42Z</time>
      </trkpt>
      <trkpt lat="44.38172" lon="6.76701">
        <ele>1875.6</ele>
        <time>2021-06-21T14:13:46Z</time>
      </trkpt>
      <trkpt lat="44.38162" lon="6.76692">
        <ele>1873.7</ele>
        <time>2021-06-21T14:13:50Z</time>
      </trkpt>
      <trkpt lat="44.38152" lon="6.76688">
        <ele>1873.4</ele>
        <time>2021-06-21T14:13:54Z</time>
      </trkpt>
      <trkpt lat="44.38136" lon="6.7668">
        <ele>1872.7</ele>
        <time>2021-06-21T14:13:58Z</time>
      </trkpt>
      <trkpt lat="44.38121" lon="6.76674">
        <ele>1872.6</ele>
        <time>2021-06-21T14:14:02Z</time>
      </trkpt>
      <trkpt lat="44.38109" lon="6.76666">
        <ele>1871.8</ele>
        <time>2021-06-21T14:14:06Z</time>
      </trkpt>
      <trkpt lat="44.38095" lon="6.76654">
        <ele>1871</ele>
        <time>2021-06-21T14:14:58Z</time>
      </trkpt>
      <trkpt lat="44.38091" lon="6.7665">
        <ele>1870.8</ele>
        <time>2021-06-21T14:15:02Z</time>
      </trkpt>
      <trkpt lat="44.38084" lon="6.76643">
        <ele>1870.4</ele>
        <time>2021-06-21T14:15:06Z</time>
      </trkpt>
      <trkpt lat="44.38076" lon="6.76635">
        <ele>1870</ele>
        <time>2021-06-21T14:15:10Z</time>
      </trkpt>
      <trkpt lat="44.38064" lon="6.76623">
        <ele>1869.4</ele>
        <time>2021-06-21T14:15:14Z</time>
      </trkpt>
      <trkpt lat="44.38055" lon="6.76616">
        <ele>1869.3</ele>
        <time>2021-06-21T14:15:18Z</time>
      </trkpt>
      <trkpt lat="44.38049" lon="6.76611">
        <ele>1869.1</ele>
        <time>2021-06-21T14:15:22Z</time>
      </trkpt>
      <trkpt lat="44.38039" lon="6.76604">
        <ele>1869.1</ele>
        <time>2021-06-21T14:15:26Z</time>
      </trkpt>
      <trkpt lat="44.38037" lon="6.76597">
        <ele>1867.9</ele>
        <time>2021-06-21T14:15:30Z</time>
      </trkpt>
      <trkpt lat="44.38044" lon="6.76591">
        <ele>1865.8</ele>
        <time>2021-06-21T14:15:34Z</time>
      </trkpt>
      <trkpt lat="44.38045" lon="6.7658">
        <ele>1863.3</ele>
        <time>2021-06-21T14:15:38Z</time>
      </trkpt>
      <trkpt lat="44.38037" lon="6.76564">
        <ele>1860.5</ele>
        <time>2021-06-21T14:15:42Z</time>
      </trkpt>
      <trkpt lat="44.38025" lon="6.76545">
        <ele>1857.9</ele>
        <time>2021-06-21T14:15:46Z</time>
      </trkpt>
      <trkpt lat="44.38025" lon="6.76531">
        <ele>1854.6</ele>
        <time>2021-06-21T14:15:50Z</time>
      </trkpt>
      <trkpt lat="44.38026" lon="6.76516">
        <ele>1851</ele>
        <time>2021-06-21T14:15:54Z</time>
      </trkpt>
      <trkpt lat="44.38035" lon="6.76515">
        <ele>1849.2</ele>
        <time>2021-06-21T14:15:58Z</time>
      </trkpt>
      <trkpt lat="44.38044" lon="6.76515">
        <ele>1847.7</ele>
        <time>2021-06-21T14:16:02Z</time>
      </trkpt>
      <trkpt lat="44.38064" lon="6.76524">
        <ele>1846.5</ele>
        <time>2021-06-21T14:16:06Z</time>
      </trkpt>
      <trkpt lat="44.38087" lon="6.7653">
        <ele>1844.3</ele>
        <time>2021-06-21T14:16:10Z</time>
      </trkpt>
      <trkpt lat="44.38109" lon="6.76533">
        <ele>1841</ele>
        <time>2021-06-21T14:16:14Z</time>
      </trkpt>
      <trkpt lat="44.3813" lon="6.76539">
        <ele>1838.7</ele>
        <time>2021-06-21T14:16:18Z</time>
      </trkpt>
      <trkpt lat="44.38146" lon="6.76543">
        <ele>1836.7</ele>
        <time>2021-06-21T14:16:22Z</time>
      </trkpt>
      <trkpt lat="44.38158" lon="6.7655">
        <ele>1836</ele>
        <time>2021-06-21T14:16:26Z</time>
      </trkpt>
      <trkpt lat="44.38176" lon="6.76559">
        <ele>1836</ele>
        <time>2021-06-21T14:16:30Z</time>
      </trkpt>
      <trkpt lat="44.38195" lon="6.76565">
        <ele>1836.4</ele>
        <time>2021-06-21T14:16:34Z</time>
      </trkpt>
      <trkpt lat="44.3821" lon="6.76568">
        <ele>1836.5</ele>
        <time>2021-06-21T14:16:38Z</time>
      </trkpt>
      <trkpt lat="44.38221" lon="6.76569">
        <ele>1836.2</ele>
        <time>2021-06-21T14:16:42Z</time>
      </trkpt>
      <trkpt lat="44.38233" lon="6.76568">
        <ele>1835.4</ele>
        <time>2021-06-21T14:16:46Z</time>
      </trkpt>
      <trkpt lat="44.38243" lon="6.76565">
        <ele>1834.1</ele>
        <time>2021-06-21T14:16:50Z</time>
      </trkpt>
      <trkpt lat="44.3825" lon="6.7656">
        <ele>1832.3</ele>
        <time>2021-06-21T14:16:54Z</time>
      </trkpt>
      <trkpt lat="44.38257" lon="6.76555">
        <ele>1829.9</ele>
        <time>2021-06-21T14:16:58Z</time>
      </trkpt>
      <trkpt lat="44.38264" lon="6.76552">
        <ele>1828</ele>
        <time>2021-06-21T14:17:02Z</time>
      </trkpt>
      <trkpt lat="44.38275" lon="6.76554">
        <ele>1827</ele>
        <time>2021-06-21T14:17:06Z</time>
      </trkpt>
      <trkpt lat="44.3829" lon="6.7655">
        <ele>1823.5</ele>
        <time>2021-06-21T14:17:10Z</time>
      </trkpt>
      <trkpt lat="44.38308" lon="6.7655">
        <ele>1820.9</ele>
        <time>2021-06-21T14:17:14Z</time>
      </trkpt>
      <trkpt lat="44.38323" lon="6.76563">
        <ele>1823.6</ele>
        <time>2021-06-21T14:17:18Z</time>
      </trkpt>
      <trkpt lat="44.3834" lon="6.76586">
        <ele>1827.9</ele>
        <time>2021-06-21T14:17:22Z</time>
      </trkpt>
      <trkpt lat="44.3836" lon="6.76594">
        <ele>1821.6</ele>
        <time>2021-06-21T14:17:26Z</time>
      </trkpt>
      <trkpt lat="44.3838" lon="6.76602">
        <ele>1815.6</ele>
        <time>2021-06-21T14:17:30Z</time>
      </trkpt>
      <trkpt lat="44.38411" lon="6.76615">
        <ele>1807.1</ele>
        <time>2021-06-21T14:17:34Z</time>
      </trkpt>
      <trkpt lat="44.38436" lon="6.76646">
        <ele>1807.4</ele>
        <time>2021-06-21T14:17:38Z</time>
      </trkpt>
      <trkpt lat="44.38447" lon="6.7666">
        <ele>1807.4</ele>
        <time>2021-06-21T14:17:46Z</time>
      </trkpt>
      <trkpt lat="44.38456" lon="6.76676">
        <ele>1808.8</ele>
        <time>2021-06-21T14:17:50Z</time>
      </trkpt>
      <trkpt lat="44.38471" lon="6.76695">
        <ele>1808.6</ele>
        <time>2021-06-21T14:17:54Z</time>
      </trkpt>
      <trkpt lat="44.38491" lon="6.76727">
        <ele>1811.3</ele>
        <time>2021-06-21T14:17:58Z</time>
      </trkpt>
      <trkpt lat="44.385" lon="6.76746">
        <ele>1814.5</ele>
        <time>2021-06-21T14:18:02Z</time>
      </trkpt>
      <trkpt lat="44.38511" lon="6.76751">
        <ele>1811.9</ele>
        <time>2021-06-21T14:18:06Z</time>
      </trkpt>
      <trkpt lat="44.38501" lon="6.76743">
        <ele>1813</ele>
        <time>2021-06-21T14:18:10Z</time>
      </trkpt>
      <trkpt lat="44.38502" lon="6.76712">
        <ele>1801</ele>
        <time>2021-06-21T14:18:14Z</time>
      </trkpt>
      <trkpt lat="44.38503" lon="6.76697">
        <ele>1795</ele>
        <time>2021-06-21T14:18:18Z</time>
      </trkpt>
      <trkpt lat="44.38511" lon="6.76704">
        <ele>1794.3</ele>
        <time>2021-06-21T14:18:22Z</time>
      </trkpt>
      <trkpt lat="44.38512" lon="6.767">
        <ele>1792.4</ele>
        <time>2021-06-21T14:19:14Z</time>
      </trkpt>
      <trkpt lat="44.38511" lon="6.76703">
        <ele>1794</ele>
        <time>2021-06-21T14:19:18Z</time>
      </trkpt>
      <trkpt lat="44.38511" lon="6.76714">
        <ele>1798</ele>
        <time>2021-06-21T14:19:22Z</time>
      </trkpt>
      <trkpt lat="44.38516" lon="6.76727">
        <ele>1800.8</ele>
        <time>2021-06-21T14:19:26Z</time>
      </trkpt>
      <trkpt lat="44.38534" lon="6.76729">
        <ele>1794</ele>
        <time>2021-06-21T14:19:30Z</time>
      </trkpt>
      <trkpt lat="44.38552" lon="6.76735">
        <ele>1788.7</ele>
        <time>2021-06-21T14:19:34Z</time>
      </trkpt>
      <trkpt lat="44.3857" lon="6.76737">
        <ele>1781.9</ele>
        <time>2021-06-21T14:19:38Z</time>
      </trkpt>
      <trkpt lat="44.38593" lon="6.76745">
        <ele>1776.4</ele>
        <time>2021-06-21T14:19:42Z</time>
      </trkpt>
      <trkpt lat="44.38609" lon="6.7676">
        <ele>1779.3</ele>
        <time>2021-06-21T14:19:46Z</time>
      </trkpt>
      <trkpt lat="44.38625" lon="6.76765">
        <ele>1777.7</ele>
        <time>2021-06-21T14:19:50Z</time>
      </trkpt>
      <trkpt lat="44.38631" lon="6.7677">
        <ele>1779</ele>
        <time>2021-06-21T14:19:54Z</time>
      </trkpt>
      <trkpt lat="44.38623" lon="6.76764">
        <ele>1777.7</ele>
        <time>2021-06-21T14:19:58Z</time>
      </trkpt>
      <trkpt lat="44.38614" lon="6.76759">
        <ele>1777.3</ele>
        <time>2021-06-21T14:20:02Z</time>
      </trkpt>
      <trkpt lat="44.38607" lon="6.76746">
        <ele>1772.7</ele>
        <time>2021-06-21T14:20:06Z</time>
      </trkpt>
      <trkpt lat="44.38596" lon="6.76734">
        <ele>1771.5</ele>
        <time>2021-06-21T14:20:10Z</time>
      </trkpt>
      <trkpt lat="44.38578" lon="6.76699">
        <ele>1764.8</ele>
        <time>2021-06-21T14:20:14Z</time>
      </trkpt>
      <trkpt lat="44.38581" lon="6.7667">
        <ele>1753.2</ele>
        <time>2021-06-21T14:20:18Z</time>
      </trkpt>
      <trkpt lat="44.38567" lon="6.76655">
        <ele>1754.8</ele>
        <time>2021-06-21T14:20:22Z</time>
      </trkpt>
      <trkpt lat="44.38552" lon="6.76648">
        <ele>1758.8</ele>
        <time>2021-06-21T14:20:26Z</time>
      </trkpt>
      <trkpt lat="44.38549" lon="6.76643">
        <ele>1758.6</ele>
        <time>2021-06-21T14:20:34Z</time>
      </trkpt>
      <trkpt lat="44.38551" lon="6.76639">
        <ele>1756.7</ele>
        <time>2021-06-21T14:20:38Z</time>
      </trkpt>
      <trkpt lat="44.38556" lon="6.76627">
        <ele>1751.7</ele>
        <time>2021-06-21T14:20:42Z</time>
      </trkpt>
      <trkpt lat="44.38564" lon="6.76602">
        <ele>1742.5</ele>
        <time>2021-06-21T14:20:46Z</time>
      </trkpt>
      <trkpt lat="44.3856" lon="6.76572">
        <ele>1735.3</ele>
        <time>2021-06-21T14:20:50Z</time>
      </trkpt>
      <trkpt lat="44.38556" lon="6.76548">
        <ele>1728.4</ele>
        <time>2021-06-21T14:20:54Z</time>
      </trkpt>
      <trkpt lat="44.38546" lon="6.76525">
        <ele>1722.6</ele>
        <time>2021-06-21T14:20:58Z</time>
      </trkpt>
      <trkpt lat="44.38532" lon="6.76531">
        <ele>1727.7</ele>
        <time>2021-06-21T14:21:02Z</time>
      </trkpt>
      <trkpt lat="44.38518" lon="6.76533">
        <ele>1731.4</ele>
        <time>2021-06-21T14:21:06Z</time>
      </trkpt>
      <trkpt lat="44.38507" lon="6.76532">
        <ele>1733.3</ele>
        <time>2021-06-21T14:21:10Z</time>
      </trkpt>
      <trkpt lat="44.38503" lon="6.76531">
        <ele>1733.8</ele>
        <time>2021-06-21T14:21:14Z</time>
      </trkpt>
      <trkpt lat="44.38497" lon="6.76525">
        <ele>1732.8</ele>
        <time>2021-06-21T14:21:26Z</time>
      </trkpt>
      <trkpt lat="44.38496" lon="6.76517">
        <ele>1729.6</ele>
        <time>2021-06-21T14:21:30Z</time>
      </trkpt>
      <trkpt lat="44.38493" lon="6.76507">
        <ele>1726.1</ele>
        <time>2021-06-21T14:21:34Z</time>
      </trkpt>
      <trkpt lat="44.38479" lon="6.76488">
        <ele>1724.8</ele>
        <time>2021-06-21T14:21:38Z</time>
      </trkpt>
      <trkpt lat="44.38466" lon="6.7647">
        <ele>1725.6</ele>
        <time>2021-06-21T14:21:42Z</time>
      </trkpt>
      <trkpt lat="44.38461" lon="6.76456">
        <ele>1725</ele>
        <time>2021-06-21T14:21:46Z</time>
      </trkpt>
      <trkpt lat="44.38462" lon="6.76447">
        <ele>1723.1</ele>
        <time>2021-06-21T14:21:54Z</time>
      </trkpt>
      <trkpt lat="44.38468" lon="6.76446">
        <ele>1720.8</ele>
        <time>2021-06-21T14:21:58Z</time>
      </trkpt>
      <trkpt lat="44.38481" lon="6.76445">
        <ele>1715.9</ele>
        <time>2021-06-21T14:22:02Z</time>
      </trkpt>
      <trkpt lat="44.38484" lon="6.76445">
        <ele>1714.9</ele>
        <time>2021-06-21T14:22:06Z</time>
      </trkpt>
      <trkpt lat="44.3849" lon="6.76442">
        <ele>1712.1</ele>
        <time>2021-06-21T14:22:10Z</time>
      </trkpt>
      <trkpt lat="44.38498" lon="6.76437">
        <ele>1708.1</ele>
        <time>2021-06-21T14:22:14Z</time>
      </trkpt>
      <trkpt lat="44.385" lon="6.76433">
        <ele>1706.5</ele>
        <time>2021-06-21T14:22:22Z</time>
      </trkpt>
      <trkpt lat="44.38497" lon="6.76423">
        <ele>1705.5</ele>
        <time>2021-06-21T14:23:46Z</time>
      </trkpt>
      <trkpt lat="44.38498" lon="6.76422">
        <ele>1704.9</ele>
        <time>2021-06-21T14:23:50Z</time>
      </trkpt>
      <trkpt lat="44.38502" lon="6.76422">
        <ele>1703.7</ele>
        <time>2021-06-21T14:23:54Z</time>
      </trkpt>
      <trkpt lat="44.38506" lon="6.76421">
        <ele>1702.5</ele>
        <time>2021-06-21T14:23:58Z</time>
      </trkpt>
      <trkpt lat="44.38506" lon="6.76424">
        <ele>1703.1</ele>
        <time>2021-06-21T14:24:02Z</time>
      </trkpt>
      <trkpt lat="44.38503" lon="6.76425">
        <ele>1704.1</ele>
        <time>2021-06-21T14:24:06Z</time>
      </trkpt>
      <trkpt lat="44.38501" lon="6.76427">
        <ele>1705</ele>
        <time>2021-06-21T14:24:10Z</time>
      </trkpt>
      <trkpt lat="44.38497" lon="6.76429">
        <ele>1706.8</ele>
        <time>2021-06-21T14:24:14Z</time>
      </trkpt>
      <trkpt lat="44.38495" lon="6.76429">
        <ele>1707.6</ele>
        <time>2021-06-21T14:24:18Z</time>
      </trkpt>
      <trkpt lat="44.38493" lon="6.76428">
        <ele>1708.1</ele>
        <time>2021-06-21T14:24:22Z</time>
      </trkpt>
      <trkpt lat="44.38493" lon="6.76427">
        <ele>1707.9</ele>
        <time>2021-06-21T14:24:26Z</time>
      </trkpt>
      <trkpt lat="44.38491" lon="6.76425">
        <ele>1708.3</ele>
        <time>2021-06-21T14:24:34Z</time>
      </trkpt>
      <trkpt lat="44.38489" lon="6.76422">
        <ele>1708.4</ele>
        <time>2021-06-21T14:24:38Z</time>
      </trkpt>
      <trkpt lat="44.38487" lon="6.76421">
        <ele>1709</ele>
        <time>2021-06-21T14:24:42Z</time>
      </trkpt>
      <trkpt lat="44.38484" lon="6.76419">
        <ele>1709.8</ele>
        <time>2021-06-21T14:24:46Z</time>
      </trkpt>
      <trkpt lat="44.38481" lon="6.76417">
        <ele>1710.6</ele>
        <time>2021-06-21T14:24:50Z</time>
      </trkpt>
      <trkpt lat="44.3848" lon="6.76416">
        <ele>1711.1</ele>
        <time>2021-06-21T14:24:54Z</time>
      </trkpt>
      <trkpt lat="44.38478" lon="6.76413">
        <ele>1712.6</ele>
        <time>2021-06-21T14:25:02Z</time>
      </trkpt>
      <trkpt lat="44.38479" lon="6.76408">
        <ele>1713.4</ele>
        <time>2021-06-21T14:25:10Z</time>
      </trkpt>
      <trkpt lat="44.38482" lon="6.76408">
        <ele>1712.2</ele>
        <time>2021-06-21T14:25:14Z</time>
      </trkpt>
      <trkpt lat="44.38485" lon="6.76408">
        <ele>1711</ele>
        <time>2021-06-21T14:25:18Z</time>
      </trkpt>
      <trkpt lat="44.38488" lon="6.76408">
        <ele>1709.8</ele>
        <time>2021-06-21T14:25:22Z</time>
      </trkpt>
      <trkpt lat="44.38491" lon="6.76407">
        <ele>1708.8</ele>
        <time>2021-06-21T14:25:26Z</time>
      </trkpt>
      <trkpt lat="44.38494" lon="6.76407">
        <ele>1707.6</ele>
        <time>2021-06-21T14:25:30Z</time>
      </trkpt>
      <trkpt lat="44.38498" lon="6.76405">
        <ele>1706.5</ele>
        <time>2021-06-21T14:25:34Z</time>
      </trkpt>
      <trkpt lat="44.38501" lon="6.76402">
        <ele>1706.1</ele>
        <time>2021-06-21T14:25:38Z</time>
      </trkpt>
      <trkpt lat="44.38503" lon="6.76399">
        <ele>1706.3</ele>
        <time>2021-06-21T14:25:42Z</time>
      </trkpt>
      <trkpt lat="44.38505" lon="6.76395">
        <ele>1706.8</ele>
        <time>2021-06-21T14:25:46Z</time>
      </trkpt>
      <trkpt lat="44.38506" lon="6.76389">
        <ele>1708</ele>
        <time>2021-06-21T14:25:50Z</time>
      </trkpt>
      <trkpt lat="44.38506" lon="6.76384">
        <ele>1709.2</ele>
        <time>2021-06-21T14:25:54Z</time>
      </trkpt>
      <trkpt lat="44.38507" lon="6.7638">
        <ele>1709.9</ele>
        <time>2021-06-21T14:26:06Z</time>
      </trkpt>
      <trkpt lat="44.3851" lon="6.76377">
        <ele>1710</ele>
        <time>2021-06-21T14:26:14Z</time>
      </trkpt>
      <trkpt lat="44.38519" lon="6.76372">
        <ele>1709.4</ele>
        <time>2021-06-21T14:26:18Z</time>
      </trkpt>
      <trkpt lat="44.38528" lon="6.76364">
        <ele>1709.7</ele>
        <time>2021-06-21T14:26:22Z</time>
      </trkpt>
      <trkpt lat="44.38535" lon="6.76358">
        <ele>1709.9</ele>
        <time>2021-06-21T14:26:26Z</time>
      </trkpt>
      <trkpt lat="44.38545" lon="6.76347">
        <ele>1711.2</ele>
        <time>2021-06-21T14:26:30Z</time>
      </trkpt>
      <trkpt lat="44.38552" lon="6.76341">
        <ele>1711.7</ele>
        <time>2021-06-21T14:26:34Z</time>
      </trkpt>
      <trkpt lat="44.38554" lon="6.76339">
        <ele>1711.9</ele>
        <time>2021-06-21T14:26:38Z</time>
      </trkpt>
      <trkpt lat="44.38558" lon="6.76338">
        <ele>1711.6</ele>
        <time>2021-06-21T14:26:42Z</time>
      </trkpt>
      <trkpt lat="44.38562" lon="6.7634">
        <ele>1710.3</ele>
        <time>2021-06-21T14:26:46Z</time>
      </trkpt>
      <trkpt lat="44.38565" lon="6.76341">
        <ele>1709.5</ele>
        <time>2021-06-21T14:26:50Z</time>
      </trkpt>
      <trkpt lat="44.38568" lon="6.7634">
        <ele>1709.3</ele>
        <time>2021-06-21T14:26:54Z</time>
      </trkpt>
      <trkpt lat="44.38572" lon="6.7634">
        <ele>1708.7</ele>
        <time>2021-06-21T14:26:58Z</time>
      </trkpt>
      <trkpt lat="44.38578" lon="6.76339">
        <ele>1708</ele>
        <time>2021-06-21T14:27:02Z</time>
      </trkpt>
      <trkpt lat="44.38587" lon="6.76339">
        <ele>1706.7</ele>
        <time>2021-06-21T14:27:06Z</time>
      </trkpt>
      <trkpt lat="44.386" lon="6.76338">
        <ele>1705.6</ele>
        <time>2021-06-21T14:27:10Z</time>
      </trkpt>
      <trkpt lat="44.38612" lon="6.76335">
        <ele>1705.3</ele>
        <time>2021-06-21T14:27:14Z</time>
      </trkpt>
      <trkpt lat="44.38624" lon="6.7634">
        <ele>1702</ele>
        <time>2021-06-21T14:27:18Z</time>
      </trkpt>
      <trkpt lat="44.38629" lon="6.76342">
        <ele>1700.6</ele>
        <time>2021-06-21T14:27:22Z</time>
      </trkpt>
      <trkpt lat="44.38631" lon="6.76344">
        <ele>1699.6</ele>
        <time>2021-06-21T14:27:26Z</time>
      </trkpt>
      <trkpt lat="44.38633" lon="6.76347">
        <ele>1698.1</ele>
        <time>2021-06-21T14:28:02Z</time>
      </trkpt>
      <trkpt lat="44.3864" lon="6.7635">
        <ele>1696</ele>
        <time>2021-06-21T14:28:06Z</time>
      </trkpt>
      <trkpt lat="44.38646" lon="6.76349">
        <ele>1695.6</ele>
        <time>2021-06-21T14:28:14Z</time>
      </trkpt>
      <trkpt lat="44.38648" lon="6.76346">
        <ele>1696.6</ele>
        <time>2021-06-21T14:28:18Z</time>
      </trkpt>
      <trkpt lat="44.38652" lon="6.76346">
        <ele>1696.1</ele>
        <time>2021-06-21T14:28:22Z</time>
      </trkpt>
      <trkpt lat="44.38655" lon="6.76346">
        <ele>1695.7</ele>
        <time>2021-06-21T14:28:26Z</time>
      </trkpt>
      <trkpt lat="44.38659" lon="6.76345">
        <ele>1695.6</ele>
        <time>2021-06-21T14:28:30Z</time>
      </trkpt>
      <trkpt lat="44.38661" lon="6.76343">
        <ele>1696.3</ele>
        <time>2021-06-21T14:28:34Z</time>
      </trkpt>
      <trkpt lat="44.38663" lon="6.76342">
        <ele>1696.5</ele>
        <time>2021-06-21T14:28:38Z</time>
      </trkpt>
      <trkpt lat="44.38665" lon="6.76343">
        <ele>1695.8</ele>
        <time>2021-06-21T14:28:46Z</time>
      </trkpt>
      <trkpt lat="44.38668" lon="6.76343">
        <ele>1695.2</ele>
        <time>2021-06-21T14:28:50Z</time>
      </trkpt>
      <trkpt lat="44.38671" lon="6.76344">
        <ele>1693.8</ele>
        <time>2021-06-21T14:28:58Z</time>
      </trkpt>
      <trkpt lat="44.38673" lon="6.76344">
        <ele>1693.2</ele>
        <time>2021-06-21T14:29:02Z</time>
      </trkpt>
      <trkpt lat="44.38675" lon="6.76344">
        <ele>1692.6</ele>
        <time>2021-06-21T14:29:06Z</time>
      </trkpt>
      <trkpt lat="44.38677" lon="6.76343">
        <ele>1692.5</ele>
        <time>2021-06-21T14:29:10Z</time>
      </trkpt>
      <trkpt lat="44.38681" lon="6.76342">
        <ele>1691.8</ele>
        <time>2021-06-21T14:29:14Z</time>
      </trkpt>
      <trkpt lat="44.38684" lon="6.76343">
        <ele>1690.4</ele>
        <time>2021-06-21T14:29:18Z</time>
      </trkpt>
      <trkpt lat="44.38687" lon="6.76341">
        <ele>1690.4</ele>
        <time>2021-06-21T14:29:22Z</time>
      </trkpt>
      <trkpt lat="44.3869" lon="6.76338">
        <ele>1690.9</ele>
        <time>2021-06-21T14:29:26Z</time>
      </trkpt>
      <trkpt lat="44.38694" lon="6.76336">
        <ele>1690.6</ele>
        <time>2021-06-21T14:29:30Z</time>
      </trkpt>
      <trkpt lat="44.38697" lon="6.76335">
        <ele>1690.1</ele>
        <time>2021-06-21T14:29:34Z</time>
      </trkpt>
      <trkpt lat="44.38701" lon="6.76335">
        <ele>1688.9</ele>
        <time>2021-06-21T14:29:38Z</time>
      </trkpt>
      <trkpt lat="44.38704" lon="6.76335">
        <ele>1688</ele>
        <time>2021-06-21T14:29:42Z</time>
      </trkpt>
      <trkpt lat="44.38706" lon="6.76336">
        <ele>1687</ele>
        <time>2021-06-21T14:29:46Z</time>
      </trkpt>
      <trkpt lat="44.38709" lon="6.76339">
        <ele>1684.8</ele>
        <time>2021-06-21T14:29:50Z</time>
      </trkpt>
      <trkpt lat="44.38712" lon="6.76344">
        <ele>1681.6</ele>
        <time>2021-06-21T14:30:02Z</time>
      </trkpt>
      <trkpt lat="44.38714" lon="6.76346">
        <ele>1680.1</ele>
        <time>2021-06-21T14:30:06Z</time>
      </trkpt>
      <trkpt lat="44.38717" lon="6.76348">
        <ele>1678.3</ele>
        <time>2021-06-21T14:30:10Z</time>
      </trkpt>
      <trkpt lat="44.3872" lon="6.76352">
        <ele>1675.6</ele>
        <time>2021-06-21T14:30:18Z</time>
      </trkpt>
      <trkpt lat="44.38723" lon="6.76352">
        <ele>1674.7</ele>
        <time>2021-06-21T14:30:22Z</time>
      </trkpt>
      <trkpt lat="44.38726" lon="6.76351">
        <ele>1674.3</ele>
        <time>2021-06-21T14:30:26Z</time>
      </trkpt>
      <trkpt lat="44.38728" lon="6.76349">
        <ele>1674.6</ele>
        <time>2021-06-21T14:30:30Z</time>
      </trkpt>
      <trkpt lat="44.38731" lon="6.76347">
        <ele>1674.6</ele>
        <time>2021-06-21T14:30:34Z</time>
      </trkpt>
      <trkpt lat="44.38734" lon="6.76347">
        <ele>1673.7</ele>
        <time>2021-06-21T14:30:38Z</time>
      </trkpt>
      <trkpt lat="44.38737" lon="6.76346">
        <ele>1673.3</ele>
        <time>2021-06-21T14:30:42Z</time>
      </trkpt>
      <trkpt lat="44.3874" lon="6.76346">
        <ele>1672.4</ele>
        <time>2021-06-21T14:30:46Z</time>
      </trkpt>
      <trkpt lat="44.38743" lon="6.76347">
        <ele>1671</ele>
        <time>2021-06-21T14:30:50Z</time>
      </trkpt>
      <trkpt lat="44.38747" lon="6.76349">
        <ele>1668.9</ele>
        <time>2021-06-21T14:30:54Z</time>
      </trkpt>
      <trkpt lat="44.38751" lon="6.7635">
        <ele>1667.3</ele>
        <time>2021-06-21T14:30:58Z</time>
      </trkpt>
      <trkpt lat="44.38754" lon="6.76351">
        <ele>1666</ele>
        <time>2021-06-21T14:31:02Z</time>
      </trkpt>
      <trkpt lat="44.38757" lon="6.76351">
        <ele>1665.2</ele>
        <time>2021-06-21T14:31:06Z</time>
      </trkpt>
      <trkpt lat="44.38761" lon="6.7635">
        <ele>1664.5</ele>
        <time>2021-06-21T14:31:10Z</time>
      </trkpt>
      <trkpt lat="44.38763" lon="6.76351">
        <ele>1663.6</ele>
        <time>2021-06-21T14:31:14Z</time>
      </trkpt>
      <trkpt lat="44.38767" lon="6.76352">
        <ele>1662</ele>
        <time>2021-06-21T14:31:18Z</time>
      </trkpt>
      <trkpt lat="44.38771" lon="6.76353">
        <ele>1660.5</ele>
        <time>2021-06-21T14:31:22Z</time>
      </trkpt>
      <trkpt lat="44.38775" lon="6.76352">
        <ele>1659.8</ele>
        <time>2021-06-21T14:31:26Z</time>
      </trkpt>
      <trkpt lat="44.38778" lon="6.76351">
        <ele>1659.4</ele>
        <time>2021-06-21T14:31:30Z</time>
      </trkpt>
      <trkpt lat="44.38779" lon="6.76351">
        <ele>1659.1</ele>
        <time>2021-06-21T14:31:34Z</time>
      </trkpt>
      <trkpt lat="44.38782" lon="6.76349">
        <ele>1659.1</ele>
        <time>2021-06-21T14:31:38Z</time>
      </trkpt>
      <trkpt lat="44.38785" lon="6.76348">
        <ele>1658.7</ele>
        <time>2021-06-21T14:31:42Z</time>
      </trkpt>
      <trkpt lat="44.38791" lon="6.76345">
        <ele>1658.1</ele>
        <time>2021-06-21T14:31:46Z</time>
      </trkpt>
      <trkpt lat="44.38796" lon="6.76342">
        <ele>1657.9</ele>
        <time>2021-06-21T14:31:50Z</time>
      </trkpt>
      <trkpt lat="44.38798" lon="6.76341">
        <ele>1657.7</ele>
        <time>2021-06-21T14:31:58Z</time>
      </trkpt>
      <trkpt lat="44.38801" lon="6.76339">
        <ele>1657.6</ele>
        <time>2021-06-21T14:32:02Z</time>
      </trkpt>
      <trkpt lat="44.38806" lon="6.76338">
        <ele>1656.5</ele>
        <time>2021-06-21T14:32:06Z</time>
      </trkpt>
      <trkpt lat="44.38808" lon="6.76337">
        <ele>1656.2</ele>
        <time>2021-06-21T14:32:10Z</time>
      </trkpt>
      <trkpt lat="44.38811" lon="6.76337">
        <ele>1655.4</ele>
        <time>2021-06-21T14:32:14Z</time>
      </trkpt>
      <trkpt lat="44.38815" lon="6.76334">
        <ele>1655.3</ele>
        <time>2021-06-21T14:32:18Z</time>
      </trkpt>
      <trkpt lat="44.38818" lon="6.76332">
        <ele>1655.3</ele>
        <time>2021-06-21T14:32:22Z</time>
      </trkpt>
      <trkpt lat="44.3882" lon="6.76332">
        <ele>1654.7</ele>
        <time>2021-06-21T14:32:26Z</time>
      </trkpt>
      <trkpt lat="44.38823" lon="6.76326">
        <ele>1656.7</ele>
        <time>2021-06-21T14:32:30Z</time>
      </trkpt>
      <trkpt lat="44.38826" lon="6.76321">
        <ele>1658.1</ele>
        <time>2021-06-21T14:32:38Z</time>
      </trkpt>
      <trkpt lat="44.38829" lon="6.7632">
        <ele>1657.5</ele>
        <time>2021-06-21T14:32:42Z</time>
      </trkpt>
      <trkpt lat="44.38833" lon="6.76321">
        <ele>1655.6</ele>
        <time>2021-06-21T14:32:46Z</time>
      </trkpt>
      <trkpt lat="44.38837" lon="6.76316">
        <ele>1656.8</ele>
        <time>2021-06-21T14:32:50Z</time>
      </trkpt>
      <trkpt lat="44.38839" lon="6.76308">
        <ele>1659.7</ele>
        <time>2021-06-21T14:32:54Z</time>
      </trkpt>
      <trkpt lat="44.38841" lon="6.76301">
        <ele>1662.2</ele>
        <time>2021-06-21T14:32:58Z</time>
      </trkpt>
      <trkpt lat="44.38844" lon="6.76296">
        <ele>1663.5</ele>
        <time>2021-06-21T14:33:02Z</time>
      </trkpt>
      <trkpt lat="44.38846" lon="6.76292">
        <ele>1664.6</ele>
        <time>2021-06-21T14:33:06Z</time>
      </trkpt>
      <trkpt lat="44.38848" lon="6.7629">
        <ele>1664.9</ele>
        <time>2021-06-21T14:33:14Z</time>
      </trkpt>
      <trkpt lat="44.3885" lon="6.76288">
        <ele>1665.1</ele>
        <time>2021-06-21T14:33:18Z</time>
      </trkpt>
      <trkpt lat="44.38852" lon="6.76287">
        <ele>1664.9</ele>
        <time>2021-06-21T14:33:22Z</time>
      </trkpt>
      <trkpt lat="44.38855" lon="6.76284">
        <ele>1665.3</ele>
        <time>2021-06-21T14:33:30Z</time>
      </trkpt>
      <trkpt lat="44.38857" lon="6.76281">
        <ele>1665.9</ele>
        <time>2021-06-21T14:33:34Z</time>
      </trkpt>
      <trkpt lat="44.3886" lon="6.7628">
        <ele>1665.3</ele>
        <time>2021-06-21T14:33:38Z</time>
      </trkpt>
      <trkpt lat="44.38863" lon="6.76281">
        <ele>1664</ele>
        <time>2021-06-21T14:33:42Z</time>
      </trkpt>
      <trkpt lat="44.38867" lon="6.76275">
        <ele>1665.1</ele>
        <time>2021-06-21T14:33:46Z</time>
      </trkpt>
      <trkpt lat="44.3887" lon="6.76269">
        <ele>1666.5</ele>
        <time>2021-06-21T14:33:50Z</time>
      </trkpt>
      <trkpt lat="44.38874" lon="6.76263">
        <ele>1667.4</ele>
        <time>2021-06-21T14:33:54Z</time>
      </trkpt>
      <trkpt lat="44.38877" lon="6.76257">
        <ele>1668.7</ele>
        <time>2021-06-21T14:33:58Z</time>
      </trkpt>
      <trkpt lat="44.38881" lon="6.76253">
        <ele>1668.7</ele>
        <time>2021-06-21T14:34:02Z</time>
      </trkpt>
      <trkpt lat="44.38883" lon="6.76248">
        <ele>1669.7</ele>
        <time>2021-06-21T14:34:06Z</time>
      </trkpt>
      <trkpt lat="44.38886" lon="6.76244">
        <ele>1669.9</ele>
        <time>2021-06-21T14:34:10Z</time>
      </trkpt>
      <trkpt lat="44.38888" lon="6.76241">
        <ele>1670.1</ele>
        <time>2021-06-21T14:34:14Z</time>
      </trkpt>
      <trkpt lat="44.38892" lon="6.76239">
        <ele>1669.3</ele>
        <time>2021-06-21T14:34:18Z</time>
      </trkpt>
      <trkpt lat="44.38894" lon="6.76236">
        <ele>1669.5</ele>
        <time>2021-06-21T14:34:22Z</time>
      </trkpt>
      <trkpt lat="44.38898" lon="6.76234">
        <ele>1668.6</ele>
        <time>2021-06-21T14:34:26Z</time>
      </trkpt>
      <trkpt lat="44.389" lon="6.7623">
        <ele>1669.1</ele>
        <time>2021-06-21T14:34:30Z</time>
      </trkpt>
      <trkpt lat="44.38901" lon="6.76227">
        <ele>1669.7</ele>
        <time>2021-06-21T14:34:34Z</time>
      </trkpt>
      <trkpt lat="44.38904" lon="6.76223">
        <ele>1669.8</ele>
        <time>2021-06-21T14:34:46Z</time>
      </trkpt>
      <trkpt lat="44.3891" lon="6.76217">
        <ele>1669.4</ele>
        <time>2021-06-21T14:34:50Z</time>
      </trkpt>
      <trkpt lat="44.38922" lon="6.76205">
        <ele>1668.8</ele>
        <time>2021-06-21T14:34:54Z</time>
      </trkpt>
      <trkpt lat="44.3893" lon="6.76198">
        <ele>1668.2</ele>
        <time>2021-06-21T14:34:58Z</time>
      </trkpt>
      <trkpt lat="44.38936" lon="6.76196">
        <ele>1666.8</ele>
        <time>2021-06-21T14:35:02Z</time>
      </trkpt>
      <trkpt lat="44.38946" lon="6.76186">
        <ele>1666.1</ele>
        <time>2021-06-21T14:35:06Z</time>
      </trkpt>
      <trkpt lat="44.3896" lon="6.76174">
        <ele>1664.1</ele>
        <time>2021-06-21T14:35:10Z</time>
      </trkpt>
      <trkpt lat="44.38977" lon="6.76159">
        <ele>1658.8</ele>
        <time>2021-06-21T14:35:14Z</time>
      </trkpt>
      <trkpt lat="44.38993" lon="6.76138">
        <ele>1650.9</ele>
        <time>2021-06-21T14:35:34Z</time>
      </trkpt>
      <trkpt lat="44.38988" lon="6.76131">
        <ele>1652</ele>
        <time>2021-06-21T14:35:38Z</time>
      </trkpt>
      <trkpt lat="44.38976" lon="6.76116">
        <ele>1655.1</ele>
        <time>2021-06-21T14:35:42Z</time>
      </trkpt>
      <trkpt lat="44.38961" lon="6.76096">
        <ele>1658.7</ele>
        <time>2021-06-21T14:35:46Z</time>
      </trkpt>
      <trkpt lat="44.38951" lon="6.76071">
        <ele>1659</ele>
        <time>2021-06-21T14:35:50Z</time>
      </trkpt>
      <trkpt lat="44.38945" lon="6.7606">
        <ele>1659.3</ele>
        <time>2021-06-21T14:35:54Z</time>
      </trkpt>
      <trkpt lat="44.38943" lon="6.76044">
        <ele>1657.1</ele>
        <time>2021-06-21T14:35:58Z</time>
      </trkpt>
      <trkpt lat="44.38945" lon="6.76021">
        <ele>1652.3</ele>
        <time>2021-06-21T14:36:02Z</time>
      </trkpt>
      <trkpt lat="44.38945" lon="6.76002">
        <ele>1648.8</ele>
        <time>2021-06-21T14:36:06Z</time>
      </trkpt>
      <trkpt lat="44.38943" lon="6.7599">
        <ele>1650</ele>
        <time>2021-06-21T14:36:10Z</time>
      </trkpt>
      <trkpt lat="44.38945" lon="6.75978">
        <ele>1650.4</ele>
        <time>2021-06-21T14:36:14Z</time>
      </trkpt>
      <trkpt lat="44.38956" lon="6.75962">
        <ele>1647.8</ele>
        <time>2021-06-21T14:36:18Z</time>
      </trkpt>
      <trkpt lat="44.38954" lon="6.75937">
        <ele>1650.6</ele>
        <time>2021-06-21T14:36:22Z</time>
      </trkpt>
      <trkpt lat="44.38956" lon="6.75919">
        <ele>1651.2</ele>
        <time>2021-06-21T14:36:26Z</time>
      </trkpt>
      <trkpt lat="44.38958" lon="6.75906">
        <ele>1651.6</ele>
        <time>2021-06-21T14:36:30Z</time>
      </trkpt>
      <trkpt lat="44.38959" lon="6.75895">
        <ele>1652.2</ele>
        <time>2021-06-21T14:36:34Z</time>
      </trkpt>
      <trkpt lat="44.38962" lon="6.75884">
        <ele>1652.1</ele>
        <time>2021-06-21T14:36:38Z</time>
      </trkpt>
      <trkpt lat="44.38971" lon="6.75866">
        <ele>1650.9</ele>
        <time>2021-06-21T14:37:18Z</time>
      </trkpt>
      <trkpt lat="44.38972" lon="6.75864">
        <ele>1650.8</ele>
        <time>2021-06-21T14:37:22Z</time>
      </trkpt>
      <trkpt lat="44.38975" lon="6.75863">
        <ele>1649.9</ele>
        <time>2021-06-21T14:37:26Z</time>
      </trkpt>
      <trkpt lat="44.38977" lon="6.75862">
        <ele>1649.4</ele>
        <time>2021-06-21T14:37:30Z</time>
      </trkpt>
      <trkpt lat="44.38977" lon="6.75859">
        <ele>1649.7</ele>
        <time>2021-06-21T14:37:38Z</time>
      </trkpt>
      <trkpt lat="44.38977" lon="6.75855">
        <ele>1650.1</ele>
        <time>2021-06-21T14:37:42Z</time>
      </trkpt>
      <trkpt lat="44.38978" lon="6.75852">
        <ele>1650.2</ele>
        <time>2021-06-21T14:37:46Z</time>
      </trkpt>
      <trkpt lat="44.38982" lon="6.7585">
        <ele>1649.2</ele>
        <time>2021-06-21T14:37:50Z</time>
      </trkpt>
      <trkpt lat="44.38985" lon="6.75852">
        <ele>1648</ele>
        <time>2021-06-21T14:37:58Z</time>
      </trkpt>
      <trkpt lat="44.38987" lon="6.75853">
        <ele>1647.2</ele>
        <time>2021-06-21T14:38:02Z</time>
      </trkpt>
      <trkpt lat="44.3899" lon="6.75853">
        <ele>1646.3</ele>
        <time>2021-06-21T14:38:06Z</time>
      </trkpt>
      <trkpt lat="44.38996" lon="6.75844">
        <ele>1645.7</ele>
        <time>2021-06-21T14:38:10Z</time>
      </trkpt>
      <trkpt lat="44.39005" lon="6.75838">
        <ele>1644.4</ele>
        <time>2021-06-21T14:38:14Z</time>
      </trkpt>
      <trkpt lat="44.39015" lon="6.75828">
        <ele>1644.6</ele>
        <time>2021-06-21T14:38:18Z</time>
      </trkpt>
      <trkpt lat="44.39018" lon="6.75819">
        <ele>1646.1</ele>
        <time>2021-06-21T14:38:22Z</time>
      </trkpt>
      <trkpt lat="44.39021" lon="6.75817">
        <ele>1645.9</ele>
        <time>2021-06-21T14:39:50Z</time>
      </trkpt>
      <trkpt lat="44.39023" lon="6.75813">
        <ele>1646.4</ele>
        <time>2021-06-21T14:39:54Z</time>
      </trkpt>
      <trkpt lat="44.39029" lon="6.75809">
        <ele>1645.9</ele>
        <time>2021-06-21T14:39:58Z</time>
      </trkpt>
      <trkpt lat="44.39037" lon="6.75807">
        <ele>1644.5</ele>
        <time>2021-06-21T14:40:02Z</time>
      </trkpt>
      <trkpt lat="44.39044" lon="6.75806">
        <ele>1643</ele>
        <time>2021-06-21T14:40:06Z</time>
      </trkpt>
      <trkpt lat="44.39052" lon="6.75806">
        <ele>1641.2</ele>
        <time>2021-06-21T14:40:10Z</time>
      </trkpt>
      <trkpt lat="44.3906" lon="6.75803">
        <ele>1639.8</ele>
        <time>2021-06-21T14:40:14Z</time>
      </trkpt>
      <trkpt lat="44.39063" lon="6.75797">
        <ele>1640</ele>
        <time>2021-06-21T14:40:18Z</time>
      </trkpt>
      <trkpt lat="44.39063" lon="6.7579">
        <ele>1641</ele>
        <time>2021-06-21T14:40:22Z</time>
      </trkpt>
      <trkpt lat="44.39061" lon="6.75785">
        <ele>1642.3</ele>
        <time>2021-06-21T14:40:26Z</time>
      </trkpt>
      <trkpt lat="44.39059" lon="6.75779">
        <ele>1643.7</ele>
        <time>2021-06-21T14:40:30Z</time>
      </trkpt>
      <trkpt lat="44.39056" lon="6.75776">
        <ele>1645</ele>
        <time>2021-06-21T14:40:34Z</time>
      </trkpt>
      <trkpt lat="44.39055" lon="6.75772">
        <ele>1646</ele>
        <time>2021-06-21T14:40:38Z</time>
      </trkpt>
      <trkpt lat="44.39053" lon="6.75765">
        <ele>1647.7</ele>
        <time>2021-06-21T14:40:42Z</time>
      </trkpt>
      <trkpt lat="44.39053" lon="6.75758">
        <ele>1648.9</ele>
        <time>2021-06-21T14:40:46Z</time>
      </trkpt>
      <trkpt lat="44.39054" lon="6.7575">
        <ele>1649.9</ele>
        <time>2021-06-21T14:40:50Z</time>
      </trkpt>
      <trkpt lat="44.39056" lon="6.75744">
        <ele>1649.4</ele>
        <time>2021-06-21T14:40:54Z</time>
      </trkpt>
      <trkpt lat="44.39055" lon="6.75738">
        <ele>1649.9</ele>
        <time>2021-06-21T14:40:58Z</time>
      </trkpt>
      <trkpt lat="44.39052" lon="6.75732">
        <ele>1651.2</ele>
        <time>2021-06-21T14:41:02Z</time>
      </trkpt>
      <trkpt lat="44.39053" lon="6.75726">
        <ele>1651</ele>
        <time>2021-06-21T14:41:06Z</time>
      </trkpt>
      <trkpt lat="44.39055" lon="6.7572">
        <ele>1650.5</ele>
        <time>2021-06-21T14:41:10Z</time>
      </trkpt>
      <trkpt lat="44.39056" lon="6.75714">
        <ele>1650.3</ele>
        <time>2021-06-21T14:41:14Z</time>
      </trkpt>
      <trkpt lat="44.39055" lon="6.75709">
        <ele>1650.9</ele>
        <time>2021-06-21T14:41:18Z</time>
      </trkpt>
      <trkpt lat="44.39054" lon="6.75703">
        <ele>1651.4</ele>
        <time>2021-06-21T14:41:22Z</time>
      </trkpt>
      <trkpt lat="44.39053" lon="6.75698">
        <ele>1652</ele>
        <time>2021-06-21T14:41:26Z</time>
      </trkpt>
      <trkpt lat="44.3905" lon="6.75692">
        <ele>1653.4</ele>
        <time>2021-06-21T14:41:30Z</time>
      </trkpt>
      <trkpt lat="44.39047" lon="6.75685">
        <ele>1654.9</ele>
        <time>2021-06-21T14:41:34Z</time>
      </trkpt>
      <trkpt lat="44.39044" lon="6.7568">
        <ele>1656.4</ele>
        <time>2021-06-21T14:41:38Z</time>
      </trkpt>
      <trkpt lat="44.3904" lon="6.75673">
        <ele>1658.4</ele>
        <time>2021-06-21T14:41:42Z</time>
      </trkpt>
      <trkpt lat="44.39036" lon="6.75667">
        <ele>1660.4</ele>
        <time>2021-06-21T14:41:46Z</time>
      </trkpt>
      <trkpt lat="44.39033" lon="6.75661">
        <ele>1661.6</ele>
        <time>2021-06-21T14:41:50Z</time>
      </trkpt>
      <trkpt lat="44.39029" lon="6.75655">
        <ele>1663.2</ele>
        <time>2021-06-21T14:41:54Z</time>
      </trkpt>
      <trkpt lat="44.39027" lon="6.75649">
        <ele>1664</ele>
        <time>2021-06-21T14:41:58Z</time>
      </trkpt>
      <trkpt lat="44.39026" lon="6.75641">
        <ele>1664.3</ele>
        <time>2021-06-21T14:42:02Z</time>
      </trkpt>
      <trkpt lat="44.39027" lon="6.75632">
        <ele>1663.7</ele>
        <time>2021-06-21T14:42:06Z</time>
      </trkpt>
      <trkpt lat="44.39026" lon="6.75622">
        <ele>1663.9</ele>
        <time>2021-06-21T14:42:10Z</time>
      </trkpt>
      <trkpt lat="44.39027" lon="6.75612">
        <ele>1663.3</ele>
        <time>2021-06-21T14:42:14Z</time>
      </trkpt>
      <trkpt lat="44.39026" lon="6.75603">
        <ele>1663.5</ele>
        <time>2021-06-21T14:42:18Z</time>
      </trkpt>
      <trkpt lat="44.39025" lon="6.75595">
        <ele>1663.8</ele>
        <time>2021-06-21T14:42:22Z</time>
      </trkpt>
      <trkpt lat="44.39026" lon="6.75589">
        <ele>1663.3</ele>
        <time>2021-06-21T14:42:26Z</time>
      </trkpt>
      <trkpt lat="44.39025" lon="6.75576">
        <ele>1663.9</ele>
        <time>2021-06-21T14:42:30Z</time>
      </trkpt>
      <trkpt lat="44.39023" lon="6.75565">
        <ele>1665.3</ele>
        <time>2021-06-21T14:42:34Z</time>
      </trkpt>
      <trkpt lat="44.39021" lon="6.75555">
        <ele>1666.6</ele>
        <time>2021-06-21T14:42:38Z</time>
      </trkpt>
      <trkpt lat="44.39022" lon="6.75546">
        <ele>1666.5</ele>
        <time>2021-06-21T14:42:42Z</time>
      </trkpt>
      <trkpt lat="44.39024" lon="6.7554">
        <ele>1665.9</ele>
        <time>2021-06-21T14:42:46Z</time>
      </trkpt>
      <trkpt lat="44.39022" lon="6.75535">
        <ele>1667</ele>
        <time>2021-06-21T14:42:50Z</time>
      </trkpt>
      <trkpt lat="44.39021" lon="6.7553">
        <ele>1667.7</ele>
        <time>2021-06-21T14:42:54Z</time>
      </trkpt>
      <trkpt lat="44.39019" lon="6.75524">
        <ele>1668.8</ele>
        <time>2021-06-21T14:42:58Z</time>
      </trkpt>
      <trkpt lat="44.39016" lon="6.75517">
        <ele>1670.4</ele>
        <time>2021-06-21T14:43:02Z</time>
      </trkpt>
      <trkpt lat="44.39016" lon="6.7551">
        <ele>1670.7</ele>
        <time>2021-06-21T14:43:06Z</time>
      </trkpt>
      <trkpt lat="44.39017" lon="6.75502">
        <ele>1670.6</ele>
        <time>2021-06-21T14:43:10Z</time>
      </trkpt>
      <trkpt lat="44.39019" lon="6.75497">
        <ele>1669.8</ele>
        <time>2021-06-21T14:43:14Z</time>
      </trkpt>
      <trkpt lat="44.39019" lon="6.7549">
        <ele>1669.8</ele>
        <time>2021-06-21T14:43:18Z</time>
      </trkpt>
      <trkpt lat="44.39018" lon="6.75482">
        <ele>1670.2</ele>
        <time>2021-06-21T14:43:22Z</time>
      </trkpt>
      <trkpt lat="44.39016" lon="6.75475">
        <ele>1671.1</ele>
        <time>2021-06-21T14:43:26Z</time>
      </trkpt>
      <trkpt lat="44.39013" lon="6.75469">
        <ele>1672.3</ele>
        <time>2021-06-21T14:43:30Z</time>
      </trkpt>
      <trkpt lat="44.3901" lon="6.75464">
        <ele>1673.5</ele>
        <time>2021-06-21T14:43:34Z</time>
      </trkpt>
      <trkpt lat="44.39006" lon="6.75459">
        <ele>1675.1</ele>
        <time>2021-06-21T14:43:38Z</time>
      </trkpt>
      <trkpt lat="44.39" lon="6.75454">
        <ele>1677.4</ele>
        <time>2021-06-21T14:43:42Z</time>
      </trkpt>
      <trkpt lat="44.38996" lon="6.75447">
        <ele>1678.2</ele>
        <time>2021-06-21T14:43:46Z</time>
      </trkpt>
      <trkpt lat="44.38992" lon="6.7544">
        <ele>1679</ele>
        <time>2021-06-21T14:43:50Z</time>
      </trkpt>
      <trkpt lat="44.38989" lon="6.75435">
        <ele>1679.6</ele>
        <time>2021-06-21T14:43:54Z</time>
      </trkpt>
      <trkpt lat="44.38987" lon="6.75429">
        <ele>1679.9</ele>
        <time>2021-06-21T14:43:58Z</time>
      </trkpt>
      <trkpt lat="44.38985" lon="6.75421">
        <ele>1680.1</ele>
        <time>2021-06-21T14:44:06Z</time>
      </trkpt>
      <trkpt lat="44.38985" lon="6.75415">
        <ele>1680.2</ele>
        <time>2021-06-21T14:44:10Z</time>
      </trkpt>
      <trkpt lat="44.38983" lon="6.75406">
        <ele>1681.2</ele>
        <time>2021-06-21T14:44:14Z</time>
      </trkpt>
      <trkpt lat="44.38983" lon="6.75397">
        <ele>1681.7</ele>
        <time>2021-06-21T14:44:18Z</time>
      </trkpt>
      <trkpt lat="44.38982" lon="6.7539">
        <ele>1682.4</ele>
        <time>2021-06-21T14:44:22Z</time>
      </trkpt>
      <trkpt lat="44.38981" lon="6.75382">
        <ele>1683.1</ele>
        <time>2021-06-21T14:44:26Z</time>
      </trkpt>
      <trkpt lat="44.38977" lon="6.75374">
        <ele>1684.5</ele>
        <time>2021-06-21T14:44:30Z</time>
      </trkpt>
      <trkpt lat="44.38975" lon="6.75367">
        <ele>1685.4</ele>
        <time>2021-06-21T14:44:34Z</time>
      </trkpt>
      <trkpt lat="44.38973" lon="6.75362">
        <ele>1686.2</ele>
        <time>2021-06-21T14:44:38Z</time>
      </trkpt>
      <trkpt lat="44.38973" lon="6.75356">
        <ele>1686.6</ele>
        <time>2021-06-21T14:44:42Z</time>
      </trkpt>
      <trkpt lat="44.38973" lon="6.75349">
        <ele>1687.1</ele>
        <time>2021-06-21T14:44:46Z</time>
      </trkpt>
      <trkpt lat="44.38974" lon="6.75339">
        <ele>1687.5</ele>
        <time>2021-06-21T14:44:50Z</time>
      </trkpt>
      <trkpt lat="44.38977" lon="6.75332">
        <ele>1687.4</ele>
        <time>2021-06-21T14:44:54Z</time>
      </trkpt>
      <trkpt lat="44.3898" lon="6.75322">
        <ele>1688.1</ele>
        <time>2021-06-21T14:44:58Z</time>
      </trkpt>
      <trkpt lat="44.38985" lon="6.75316">
        <ele>1687.8</ele>
        <time>2021-06-21T14:45:02Z</time>
      </trkpt>
      <trkpt lat="44.3899" lon="6.7531">
        <ele>1687.4</ele>
        <time>2021-06-21T14:45:06Z</time>
      </trkpt>
      <trkpt lat="44.38995" lon="6.75305">
        <ele>1686.9</ele>
        <time>2021-06-21T14:45:10Z</time>
      </trkpt>
      <trkpt lat="44.38999" lon="6.75298">
        <ele>1686.9</ele>
        <time>2021-06-21T14:45:14Z</time>
      </trkpt>
      <trkpt lat="44.39002" lon="6.75292">
        <ele>1686.8</ele>
        <time>2021-06-21T14:45:18Z</time>
      </trkpt>
      <trkpt lat="44.39005" lon="6.75285">
        <ele>1686.8</ele>
        <time>2021-06-21T14:45:22Z</time>
      </trkpt>
      <trkpt lat="44.39008" lon="6.75279">
        <ele>1686.7</ele>
        <time>2021-06-21T14:45:26Z</time>
      </trkpt>
      <trkpt lat="44.3901" lon="6.75273">
        <ele>1686.9</ele>
        <time>2021-06-21T14:45:30Z</time>
      </trkpt>
      <trkpt lat="44.39011" lon="6.75265">
        <ele>1687.6</ele>
        <time>2021-06-21T14:45:34Z</time>
      </trkpt>
      <trkpt lat="44.39013" lon="6.75258">
        <ele>1687.9</ele>
        <time>2021-06-21T14:45:38Z</time>
      </trkpt>
      <trkpt lat="44.39015" lon="6.75251">
        <ele>1688.2</ele>
        <time>2021-06-21T14:45:42Z</time>
      </trkpt>
      <trkpt lat="44.39015" lon="6.75245">
        <ele>1689.3</ele>
        <time>2021-06-21T14:45:46Z</time>
      </trkpt>
      <trkpt lat="44.39015" lon="6.75237">
        <ele>1690.8</ele>
        <time>2021-06-21T14:45:50Z</time>
      </trkpt>
      <trkpt lat="44.39015" lon="6.75232">
        <ele>1691.8</ele>
        <time>2021-06-21T14:45:54Z</time>
      </trkpt>
      <trkpt lat="44.39017" lon="6.75225">
        <ele>1692.6</ele>
        <time>2021-06-21T14:45:58Z</time>
      </trkpt>
      <trkpt lat="44.39017" lon="6.75216">
        <ele>1694.3</ele>
        <time>2021-06-21T14:46:02Z</time>
      </trkpt>
      <trkpt lat="44.39017" lon="6.75208">
        <ele>1695.9</ele>
        <time>2021-06-21T14:46:06Z</time>
      </trkpt>
      <trkpt lat="44.39017" lon="6.752">
        <ele>1697.4</ele>
        <time>2021-06-21T14:46:10Z</time>
      </trkpt>
      <trkpt lat="44.39017" lon="6.75193">
        <ele>1698.8</ele>
        <time>2021-06-21T14:46:14Z</time>
      </trkpt>
      <trkpt lat="44.39019" lon="6.75185">
        <ele>1699.8</ele>
        <time>2021-06-21T14:46:18Z</time>
      </trkpt>
      <trkpt lat="44.39022" lon="6.75174">
        <ele>1701.3</ele>
        <time>2021-06-21T14:46:22Z</time>
      </trkpt>
      <trkpt lat="44.39025" lon="6.75164">
        <ele>1702.3</ele>
        <time>2021-06-21T14:46:26Z</time>
      </trkpt>
      <trkpt lat="44.39029" lon="6.75157">
        <ele>1702.1</ele>
        <time>2021-06-21T14:46:30Z</time>
      </trkpt>
      <trkpt lat="44.39033" lon="6.75152">
        <ele>1701.8</ele>
        <time>2021-06-21T14:46:34Z</time>
      </trkpt>
      <trkpt lat="44.39037" lon="6.75145">
        <ele>1701.8</ele>
        <time>2021-06-21T14:46:38Z</time>
      </trkpt>
      <trkpt lat="44.39042" lon="6.75138">
        <ele>1701.7</ele>
        <time>2021-06-21T14:46:42Z</time>
      </trkpt>
      <trkpt lat="44.39046" lon="6.75131">
        <ele>1701.9</ele>
        <time>2021-06-21T14:46:46Z</time>
      </trkpt>
      <trkpt lat="44.39049" lon="6.75123">
        <ele>1702.5</ele>
        <time>2021-06-21T14:46:50Z</time>
      </trkpt>
      <trkpt lat="44.39052" lon="6.75116">
        <ele>1703</ele>
        <time>2021-06-21T14:46:54Z</time>
      </trkpt>
      <trkpt lat="44.39054" lon="6.75109">
        <ele>1703.7</ele>
        <time>2021-06-21T14:46:58Z</time>
      </trkpt>
      <trkpt lat="44.39054" lon="6.75102">
        <ele>1704.7</ele>
        <time>2021-06-21T14:47:02Z</time>
      </trkpt>
      <trkpt lat="44.39054" lon="6.75094">
        <ele>1705.9</ele>
        <time>2021-06-21T14:47:06Z</time>
      </trkpt>
      <trkpt lat="44.39051" lon="6.75087">
        <ele>1707.3</ele>
        <time>2021-06-21T14:47:10Z</time>
      </trkpt>
      <trkpt lat="44.3905" lon="6.7508">
        <ele>1708</ele>
        <time>2021-06-21T14:47:14Z</time>
      </trkpt>
      <trkpt lat="44.39048" lon="6.75072">
        <ele>1708.2</ele>
        <time>2021-06-21T14:47:18Z</time>
      </trkpt>
      <trkpt lat="44.39048" lon="6.75064">
        <ele>1708.2</ele>
        <time>2021-06-21T14:47:22Z</time>
      </trkpt>
      <trkpt lat="44.39046" lon="6.75053">
        <ele>1708.4</ele>
        <time>2021-06-21T14:47:26Z</time>
      </trkpt>
      <trkpt lat="44.39044" lon="6.75045">
        <ele>1708.7</ele>
        <time>2021-06-21T14:47:30Z</time>
      </trkpt>
      <trkpt lat="44.39039" lon="6.75036">
        <ele>1709.4</ele>
        <time>2021-06-21T14:47:34Z</time>
      </trkpt>
      <trkpt lat="44.39035" lon="6.7503">
        <ele>1709.9</ele>
        <time>2021-06-21T14:47:38Z</time>
      </trkpt>
      <trkpt lat="44.39033" lon="6.75025">
        <ele>1710.2</ele>
        <time>2021-06-21T14:47:42Z</time>
      </trkpt>
      <trkpt lat="44.39029" lon="6.75017">
        <ele>1710.8</ele>
        <time>2021-06-21T14:47:46Z</time>
      </trkpt>
      <trkpt lat="44.39026" lon="6.75008">
        <ele>1711.2</ele>
        <time>2021-06-21T14:47:50Z</time>
      </trkpt>
      <trkpt lat="44.39021" lon="6.75">
        <ele>1712</ele>
        <time>2021-06-21T14:47:54Z</time>
      </trkpt>
      <trkpt lat="44.39016" lon="6.74996">
        <ele>1712.5</ele>
        <time>2021-06-21T14:47:58Z</time>
      </trkpt>
      <trkpt lat="44.39011" lon="6.74989">
        <ele>1713</ele>
        <time>2021-06-21T14:48:02Z</time>
      </trkpt>
      <trkpt lat="44.39007" lon="6.74984">
        <ele>1713.4</ele>
        <time>2021-06-21T14:48:06Z</time>
      </trkpt>
      <trkpt lat="44.39002" lon="6.74969">
        <ele>1713.6</ele>
        <time>2021-06-21T14:49:02Z</time>
      </trkpt>
      <trkpt lat="44.39007" lon="6.74959">
        <ele>1712.4</ele>
        <time>2021-06-21T14:49:06Z</time>
      </trkpt>
      <trkpt lat="44.39015" lon="6.74947">
        <ele>1710.7</ele>
        <time>2021-06-21T14:49:10Z</time>
      </trkpt>
      <trkpt lat="44.39024" lon="6.74933">
        <ele>1708.7</ele>
        <time>2021-06-21T14:49:14Z</time>
      </trkpt>
      <trkpt lat="44.39039" lon="6.74927">
        <ele>1705.9</ele>
        <time>2021-06-21T14:49:18Z</time>
      </trkpt>
      <trkpt lat="44.39056" lon="6.74927">
        <ele>1703.1</ele>
        <time>2021-06-21T14:49:22Z</time>
      </trkpt>
      <trkpt lat="44.39075" lon="6.74927">
        <ele>1700</ele>
        <time>2021-06-21T14:49:26Z</time>
      </trkpt>
      <trkpt lat="44.39103" lon="6.74921">
        <ele>1695.6</ele>
        <time>2021-06-21T14:49:30Z</time>
      </trkpt>
      <trkpt lat="44.3913" lon="6.74921">
        <ele>1691.9</ele>
        <time>2021-06-21T14:49:34Z</time>
      </trkpt>
      <trkpt lat="44.39139" lon="6.74903">
        <ele>1688.7</ele>
        <time>2021-06-21T14:49:38Z</time>
      </trkpt>
      <trkpt lat="44.39154" lon="6.74867">
        <ele>1682.2</ele>
        <time>2021-06-21T14:49:42Z</time>
      </trkpt>
      <trkpt lat="44.39164" lon="6.74838">
        <ele>1677.7</ele>
        <time>2021-06-21T14:49:46Z</time>
      </trkpt>
      <trkpt lat="44.39181" lon="6.74833">
        <ele>1674.4</ele>
        <time>2021-06-21T14:49:50Z</time>
      </trkpt>
      <trkpt lat="44.39198" lon="6.74862">
        <ele>1673.6</ele>
        <time>2021-06-21T14:49:54Z</time>
      </trkpt>
      <trkpt lat="44.39218" lon="6.74895">
        <ele>1671.1</ele>
        <time>2021-06-21T14:49:58Z</time>
      </trkpt>
      <trkpt lat="44.39235" lon="6.74927">
        <ele>1667.3</ele>
        <time>2021-06-21T14:50:02Z</time>
      </trkpt>
      <trkpt lat="44.39256" lon="6.74971">
        <ele>1661.7</ele>
        <time>2021-06-21T14:50:06Z</time>
      </trkpt>
      <trkpt lat="44.39266" lon="6.75009">
        <ele>1659.7</ele>
        <time>2021-06-21T14:50:10Z</time>
      </trkpt>
      <trkpt lat="44.39275" lon="6.75011">
        <ele>1657.9</ele>
        <time>2021-06-21T14:50:14Z</time>
      </trkpt>
      <trkpt lat="44.39287" lon="6.75001">
        <ele>1655.5</ele>
        <time>2021-06-21T14:50:18Z</time>
      </trkpt>
      <trkpt lat="44.39309" lon="6.74981">
        <ele>1650.3</ele>
        <time>2021-06-21T14:50:22Z</time>
      </trkpt>
      <trkpt lat="44.3933" lon="6.74967">
        <ele>1645.2</ele>
        <time>2021-06-21T14:50:26Z</time>
      </trkpt>
      <trkpt lat="44.39348" lon="6.74937">
        <ele>1640.3</ele>
        <time>2021-06-21T14:50:30Z</time>
      </trkpt>
      <trkpt lat="44.39361" lon="6.74922">
        <ele>1637.5</ele>
        <time>2021-06-21T14:50:34Z</time>
      </trkpt>
      <trkpt lat="44.39372" lon="6.74908">
        <ele>1635.4</ele>
        <time>2021-06-21T14:50:38Z</time>
      </trkpt>
      <trkpt lat="44.39375" lon="6.74896">
        <ele>1634.9</ele>
        <time>2021-06-21T14:50:42Z</time>
      </trkpt>
      <trkpt lat="44.39381" lon="6.74881">
        <ele>1633.9</ele>
        <time>2021-06-21T14:50:46Z</time>
      </trkpt>
      <trkpt lat="44.39392" lon="6.74866">
        <ele>1632.5</ele>
        <time>2021-06-21T14:50:50Z</time>
      </trkpt>
      <trkpt lat="44.39412" lon="6.7485">
        <ele>1630.2</ele>
        <time>2021-06-21T14:50:54Z</time>
      </trkpt>
      <trkpt lat="44.39437" lon="6.7483">
        <ele>1626.1</ele>
        <time>2021-06-21T14:50:58Z</time>
      </trkpt>
      <trkpt lat="44.39466" lon="6.74815">
        <ele>1619.2</ele>
        <time>2021-06-21T14:51:02Z</time>
      </trkpt>
      <trkpt lat="44.39486" lon="6.74793">
        <ele>1613.2</ele>
        <time>2021-06-21T14:51:06Z</time>
      </trkpt>
      <trkpt lat="44.3951" lon="6.74776">
        <ele>1607.4</ele>
        <time>2021-06-21T14:51:10Z</time>
      </trkpt>
      <trkpt lat="44.39536" lon="6.74771">
        <ele>1602.5</ele>
        <time>2021-06-21T14:51:14Z</time>
      </trkpt>
      <trkpt lat="44.39565" lon="6.74757">
        <ele>1597</ele>
        <time>2021-06-21T14:51:18Z</time>
      </trkpt>
      <trkpt lat="44.39589" lon="6.74746">
        <ele>1591.7</ele>
        <time>2021-06-21T14:51:22Z</time>
      </trkpt>
      <trkpt lat="44.39618" lon="6.74721">
        <ele>1581</ele>
        <time>2021-06-21T14:51:26Z</time>
      </trkpt>
      <trkpt lat="44.39644" lon="6.74693">
        <ele>1573.4</ele>
        <time>2021-06-21T14:51:30Z</time>
      </trkpt>
      <trkpt lat="44.39671" lon="6.74672">
        <ele>1567.3</ele>
        <time>2021-06-21T14:51:34Z</time>
      </trkpt>
      <trkpt lat="44.39694" lon="6.74652">
        <ele>1557.8</ele>
        <time>2021-06-21T14:51:38Z</time>
      </trkpt>
      <trkpt lat="44.39722" lon="6.7463">
        <ele>1547.2</ele>
        <time>2021-06-21T14:51:42Z</time>
      </trkpt>
      <trkpt lat="44.39754" lon="6.74619">
        <ele>1538.5</ele>
        <time>2021-06-21T14:51:46Z</time>
      </trkpt>
      <trkpt lat="44.39793" lon="6.74618">
        <ele>1531.3</ele>
        <time>2021-06-21T14:51:50Z</time>
      </trkpt>
      <trkpt lat="44.39835" lon="6.74604">
        <ele>1524</ele>
        <time>2021-06-21T14:51:54Z</time>
      </trkpt>
      <trkpt lat="44.39873" lon="6.74591">
        <ele>1518.2</ele>
        <time>2021-06-21T14:51:58Z</time>
      </trkpt>
      <trkpt lat="44.39875" lon="6.74599">
        <ele>1517.3</ele>
        <time>2021-06-21T14:52:02Z</time>
      </trkpt>
      <trkpt lat="44.39857" lon="6.74623">
        <ele>1518.9</ele>
        <time>2021-06-21T14:52:06Z</time>
      </trkpt>
      <trkpt lat="44.39843" lon="6.74647">
        <ele>1520.6</ele>
        <time>2021-06-21T14:52:10Z</time>
      </trkpt>
      <trkpt lat="44.39824" lon="6.74667">
        <ele>1524.1</ele>
        <time>2021-06-21T14:52:14Z</time>
      </trkpt>
      <trkpt lat="44.39829" lon="6.74687">
        <ele>1519.9</ele>
        <time>2021-06-21T14:52:18Z</time>
      </trkpt>
      <trkpt lat="44.39833" lon="6.7472">
        <ele>1513.8</ele>
        <time>2021-06-21T14:52:22Z</time>
      </trkpt>
      <trkpt lat="44.39838" lon="6.7476">
        <ele>1506.2</ele>
        <time>2021-06-21T14:52:26Z</time>
      </trkpt>
      <trkpt lat="44.39835" lon="6.74786">
        <ele>1503.7</ele>
        <time>2021-06-21T14:52:30Z</time>
      </trkpt>
      <trkpt lat="44.39843" lon="6.7479">
        <ele>1500.8</ele>
        <time>2021-06-21T14:52:34Z</time>
      </trkpt>
      <trkpt lat="44.3985" lon="6.74785">
        <ele>1499.3</ele>
        <time>2021-06-21T14:52:38Z</time>
      </trkpt>
      <trkpt lat="44.39867" lon="6.74771">
        <ele>1495.8</ele>
        <time>2021-06-21T14:52:42Z</time>
      </trkpt>
      <trkpt lat="44.39886" lon="6.74745">
        <ele>1493.6</ele>
        <time>2021-06-21T14:52:46Z</time>
      </trkpt>
      <trkpt lat="44.39911" lon="6.74721">
        <ele>1491.2</ele>
        <time>2021-06-21T14:52:50Z</time>
      </trkpt>
      <trkpt lat="44.39939" lon="6.74709">
        <ele>1485.7</ele>
        <time>2021-06-21T14:52:54Z</time>
      </trkpt>
      <trkpt lat="44.39963" lon="6.74692">
        <ele>1481.9</ele>
        <time>2021-06-21T14:52:58Z</time>
      </trkpt>
      <trkpt lat="44.39994" lon="6.74697">
        <ele>1471.4</ele>
        <time>2021-06-21T14:53:02Z</time>
      </trkpt>
      <trkpt lat="44.40021" lon="6.74691">
        <ele>1463.9</ele>
        <time>2021-06-21T14:53:06Z</time>
      </trkpt>
      <trkpt lat="44.40029" lon="6.74661">
        <ele>1467</ele>
        <time>2021-06-21T14:53:10Z</time>
      </trkpt>
      <trkpt lat="44.4003" lon="6.74629">
        <ele>1474.4</ele>
        <time>2021-06-21T14:53:14Z</time>
      </trkpt>
      <trkpt lat="44.40052" lon="6.74618">
        <ele>1470.3</ele>
        <time>2021-06-21T14:53:18Z</time>
      </trkpt>
      <trkpt lat="44.40085" lon="6.7462">
        <ele>1459.8</ele>
        <time>2021-06-21T14:53:22Z</time>
      </trkpt>
      <trkpt lat="44.40122" lon="6.74608">
        <ele>1452.5</ele>
        <time>2021-06-21T14:53:26Z</time>
      </trkpt>
      <trkpt lat="44.40151" lon="6.74602">
        <ele>1445.8</ele>
        <time>2021-06-21T14:53:30Z</time>
      </trkpt>
      <trkpt lat="44.40171" lon="6.74574">
        <ele>1446.2</ele>
        <time>2021-06-21T14:53:34Z</time>
      </trkpt>
      <trkpt lat="44.40193" lon="6.74548">
        <ele>1442.4</ele>
        <time>2021-06-21T14:53:38Z</time>
      </trkpt>
      <trkpt lat="44.40211" lon="6.74517">
        <ele>1441.3</ele>
        <time>2021-06-21T14:53:43Z</time>
      </trkpt>
      <trkpt lat="44.40234" lon="6.7451">
        <ele>1432.8</ele>
        <time>2021-06-21T14:53:46Z</time>
      </trkpt>
      <trkpt lat="44.40241" lon="6.74508">
        <ele>1430.2</ele>
        <time>2021-06-21T14:54:02Z</time>
      </trkpt>
      <trkpt lat="44.40247" lon="6.74493">
        <ele>1429.9</ele>
        <time>2021-06-21T14:54:06Z</time>
      </trkpt>
      <trkpt lat="44.4026" lon="6.74465">
        <ele>1426.9</ele>
        <time>2021-06-21T14:54:10Z</time>
      </trkpt>
      <trkpt lat="44.40283" lon="6.74442">
        <ele>1420</ele>
        <time>2021-06-21T14:54:14Z</time>
      </trkpt>
      <trkpt lat="44.40301" lon="6.74405">
        <ele>1414.7</ele>
        <time>2021-06-21T14:54:18Z</time>
      </trkpt>
      <trkpt lat="44.40318" lon="6.74378">
        <ele>1406.7</ele>
        <time>2021-06-21T14:54:22Z</time>
      </trkpt>
      <trkpt lat="44.40324" lon="6.74369">
        <ele>1404.3</ele>
        <time>2021-06-21T14:54:26Z</time>
      </trkpt>
      <trkpt lat="44.40325" lon="6.74369">
        <ele>1404</ele>
        <time>2021-06-21T14:54:34Z</time>
      </trkpt>
      <trkpt lat="44.40321" lon="6.74359">
        <ele>1404.4</ele>
        <time>2021-06-21T14:54:38Z</time>
      </trkpt>
      <trkpt lat="44.40308" lon="6.74346">
        <ele>1406.4</ele>
        <time>2021-06-21T14:54:42Z</time>
      </trkpt>
      <trkpt lat="44.40283" lon="6.74335">
        <ele>1410.5</ele>
        <time>2021-06-21T14:54:46Z</time>
      </trkpt>
      <trkpt lat="44.40257" lon="6.74315">
        <ele>1411.4</ele>
        <time>2021-06-21T14:54:50Z</time>
      </trkpt>
      <trkpt lat="44.40246" lon="6.74302">
        <ele>1410.9</ele>
        <time>2021-06-21T14:54:54Z</time>
      </trkpt>
      <trkpt lat="44.40253" lon="6.74296">
        <ele>1407.9</ele>
        <time>2021-06-21T14:54:58Z</time>
      </trkpt>
      <trkpt lat="44.40274" lon="6.74297">
        <ele>1403.7</ele>
        <time>2021-06-21T14:55:02Z</time>
      </trkpt>
      <trkpt lat="44.40307" lon="6.74296">
        <ele>1396.6</ele>
        <time>2021-06-21T14:55:06Z</time>
      </trkpt>
      <trkpt lat="44.4035" lon="6.74294">
        <ele>1386.1</ele>
        <time>2021-06-21T14:55:10Z</time>
      </trkpt>
      <trkpt lat="44.40384" lon="6.743">
        <ele>1378.1</ele>
        <time>2021-06-21T14:55:14Z</time>
      </trkpt>
      <trkpt lat="44.40405" lon="6.74327">
        <ele>1376.6</ele>
        <time>2021-06-21T14:55:18Z</time>
      </trkpt>
      <trkpt lat="44.40422" lon="6.74312">
        <ele>1369.1</ele>
        <time>2021-06-21T14:55:22Z</time>
      </trkpt>
      <trkpt lat="44.40413" lon="6.74275">
        <ele>1366.5</ele>
        <time>2021-06-21T14:55:26Z</time>
      </trkpt>
      <trkpt lat="44.40389" lon="6.74261">
        <ele>1369.9</ele>
        <time>2021-06-21T14:55:30Z</time>
      </trkpt>
      <trkpt lat="44.40396" lon="6.74247">
        <ele>1365.9</ele>
        <time>2021-06-21T14:55:34Z</time>
      </trkpt>
      <trkpt lat="44.40423" lon="6.7425">
        <ele>1359.9</ele>
        <time>2021-06-21T14:55:38Z</time>
      </trkpt>
      <trkpt lat="44.40448" lon="6.74274">
        <ele>1355.1</ele>
        <time>2021-06-21T14:55:42Z</time>
      </trkpt>
      <trkpt lat="44.40466" lon="6.74309">
        <ele>1353.7</ele>
        <time>2021-06-21T14:55:46Z</time>
      </trkpt>
      <trkpt lat="44.40486" lon="6.74335">
        <ele>1350.1</ele>
        <time>2021-06-21T14:55:50Z</time>
      </trkpt>
      <trkpt lat="44.40499" lon="6.74349">
        <ele>1347.8</ele>
        <time>2021-06-21T14:55:54Z</time>
      </trkpt>
      <trkpt lat="44.40509" lon="6.74359">
        <ele>1347</ele>
        <time>2021-06-21T14:55:58Z</time>
      </trkpt>
      <trkpt lat="44.40518" lon="6.74362">
        <ele>1345.5</ele>
        <time>2021-06-21T14:56:02Z</time>
      </trkpt>
      <trkpt lat="44.40527" lon="6.74364">
        <ele>1343.8</ele>
        <time>2021-06-21T14:56:06Z</time>
      </trkpt>
      <trkpt lat="44.40543" lon="6.74372">
        <ele>1341.1</ele>
        <time>2021-06-21T14:56:10Z</time>
      </trkpt>
      <trkpt lat="44.40561" lon="6.74383">
        <ele>1338</ele>
        <time>2021-06-21T14:56:14Z</time>
      </trkpt>
      <trkpt lat="44.40572" lon="6.74391">
        <ele>1336</ele>
        <time>2021-06-21T14:56:18Z</time>
      </trkpt>
      <trkpt lat="44.40572" lon="6.74402">
        <ele>1336.9</ele>
        <time>2021-06-21T14:56:26Z</time>
      </trkpt>
      <trkpt lat="44.40574" lon="6.74397">
        <ele>1336</ele>
        <time>2021-06-21T14:56:30Z</time>
      </trkpt>
      <trkpt lat="44.40576" lon="6.74392">
        <ele>1335.1</ele>
        <time>2021-06-21T14:56:34Z</time>
      </trkpt>
      <trkpt lat="44.40571" lon="6.7438">
        <ele>1335.3</ele>
        <time>2021-06-21T14:56:38Z</time>
      </trkpt>
      <trkpt lat="44.40556" lon="6.74362">
        <ele>1337.1</ele>
        <time>2021-06-21T14:56:42Z</time>
      </trkpt>
      <trkpt lat="44.4054" lon="6.74354">
        <ele>1339.7</ele>
        <time>2021-06-21T14:56:46Z</time>
      </trkpt>
      <trkpt lat="44.40529" lon="6.74345">
        <ele>1340.9</ele>
        <time>2021-06-21T14:56:50Z</time>
      </trkpt>
      <trkpt lat="44.40518" lon="6.74334">
        <ele>1341.6</ele>
        <time>2021-06-21T14:56:54Z</time>
      </trkpt>
      <trkpt lat="44.40504" lon="6.74317">
        <ele>1342.3</ele>
        <time>2021-06-21T14:56:58Z</time>
      </trkpt>
      <trkpt lat="44.40495" lon="6.74298">
        <ele>1342.4</ele>
        <time>2021-06-21T14:57:02Z</time>
      </trkpt>
      <trkpt lat="44.40489" lon="6.7428">
        <ele>1342.3</ele>
        <time>2021-06-21T14:57:06Z</time>
      </trkpt>
      <trkpt lat="44.40485" lon="6.74249">
        <ele>1339.8</ele>
        <time>2021-06-21T14:57:10Z</time>
      </trkpt>
      <trkpt lat="44.40484" lon="6.7421">
        <ele>1336.8</ele>
        <time>2021-06-21T14:57:14Z</time>
      </trkpt>
      <trkpt lat="44.4049" lon="6.74177">
        <ele>1332.7</ele>
        <time>2021-06-21T14:57:18Z</time>
      </trkpt>
      <trkpt lat="44.40497" lon="6.74143">
        <ele>1328</ele>
        <time>2021-06-21T14:57:22Z</time>
      </trkpt>
      <trkpt lat="44.40495" lon="6.74106">
        <ele>1324.3</ele>
        <time>2021-06-21T14:57:26Z</time>
      </trkpt>
      <trkpt lat="44.40495" lon="6.74075">
        <ele>1321.4</ele>
        <time>2021-06-21T14:57:30Z</time>
      </trkpt>
      <trkpt lat="44.40482" lon="6.7405">
        <ele>1322.2</ele>
        <time>2021-06-21T14:57:34Z</time>
      </trkpt>
      <trkpt lat="44.40465" lon="6.74028">
        <ele>1323.8</ele>
        <time>2021-06-21T14:57:38Z</time>
      </trkpt>
      <trkpt lat="44.40454" lon="6.74009">
        <ele>1324.6</ele>
        <time>2021-06-21T14:57:42Z</time>
      </trkpt>
      <trkpt lat="44.4047" lon="6.73994">
        <ele>1322</ele>
        <time>2021-06-21T14:57:46Z</time>
      </trkpt>
      <trkpt lat="44.40496" lon="6.73982">
        <ele>1318.1</ele>
        <time>2021-06-21T14:57:50Z</time>
      </trkpt>
      <trkpt lat="44.40527" lon="6.73961">
        <ele>1312.8</ele>
        <time>2021-06-21T14:57:54Z</time>
      </trkpt>
      <trkpt lat="44.40562" lon="6.73943">
        <ele>1305.9</ele>
        <time>2021-06-21T14:57:58Z</time>
      </trkpt>
      <trkpt lat="44.40596" lon="6.73921">
        <ele>1299.3</ele>
        <time>2021-06-21T14:58:02Z</time>
      </trkpt>
      <trkpt lat="44.40628" lon="6.73908">
        <ele>1294.9</ele>
        <time>2021-06-21T14:58:06Z</time>
      </trkpt>
      <trkpt lat="44.40651" lon="6.73894">
        <ele>1291.7</ele>
        <time>2021-06-21T14:58:10Z</time>
      </trkpt>
      <trkpt lat="44.4067" lon="6.7388">
        <ele>1289</ele>
        <time>2021-06-21T14:58:14Z</time>
      </trkpt>
      <trkpt lat="44.40684" lon="6.73873">
        <ele>1287.1</ele>
        <time>2021-06-21T14:58:18Z</time>
      </trkpt>
      <trkpt lat="44.40703" lon="6.73859">
        <ele>1284.4</ele>
        <time>2021-06-21T14:58:22Z</time>
      </trkpt>
      <trkpt lat="44.4073" lon="6.73835">
        <ele>1280.1</ele>
        <time>2021-06-21T14:58:26Z</time>
      </trkpt>
      <trkpt lat="44.40752" lon="6.73806">
        <ele>1276.4</ele>
        <time>2021-06-21T14:58:30Z</time>
      </trkpt>
      <trkpt lat="44.40781" lon="6.73785">
        <ele>1272.3</ele>
        <time>2021-06-21T14:58:34Z</time>
      </trkpt>
      <trkpt lat="44.40812" lon="6.73766">
        <ele>1268.8</ele>
        <time>2021-06-21T14:58:38Z</time>
      </trkpt>
      <trkpt lat="44.40844" lon="6.73758">
        <ele>1265.7</ele>
        <time>2021-06-21T14:58:42Z</time>
      </trkpt>
      <trkpt lat="44.4088" lon="6.73768">
        <ele>1262.1</ele>
        <time>2021-06-21T14:58:46Z</time>
      </trkpt>
      <trkpt lat="44.40915" lon="6.73782">
        <ele>1258.2</ele>
        <time>2021-06-21T14:58:50Z</time>
      </trkpt>
      <trkpt lat="44.4095" lon="6.73784">
        <ele>1253.6</ele>
        <time>2021-06-21T14:58:54Z</time>
      </trkpt>
      <trkpt lat="44.40982" lon="6.73787">
        <ele>1249.2</ele>
        <time>2021-06-21T14:58:58Z</time>
      </trkpt>
      <trkpt lat="44.41014" lon="6.73767">
        <ele>1245.9</ele>
        <time>2021-06-21T14:59:02Z</time>
      </trkpt>
      <trkpt lat="44.41037" lon="6.73741">
        <ele>1242.5</ele>
        <time>2021-06-21T14:59:06Z</time>
      </trkpt>
      <trkpt lat="44.41065" lon="6.73739">
        <ele>1237.8</ele>
        <time>2021-06-21T14:59:10Z</time>
      </trkpt>
      <trkpt lat="44.41091" lon="6.73746">
        <ele>1234.7</ele>
        <time>2021-06-21T14:59:14Z</time>
      </trkpt>
      <trkpt lat="44.4111" lon="6.73733">
        <ele>1234</ele>
        <time>2021-06-21T14:59:18Z</time>
      </trkpt>
      <trkpt lat="44.41118" lon="6.73696">
        <ele>1233.1</ele>
        <time>2021-06-21T14:59:22Z</time>
      </trkpt>
      <trkpt lat="44.41129" lon="6.73651">
        <ele>1232</ele>
        <time>2021-06-21T14:59:26Z</time>
      </trkpt>
      <trkpt lat="44.41136" lon="6.73602">
        <ele>1230.3</ele>
        <time>2021-06-21T14:59:30Z</time>
      </trkpt>
      <trkpt lat="44.41148" lon="6.73556">
        <ele>1228.6</ele>
        <time>2021-06-21T14:59:34Z</time>
      </trkpt>
      <trkpt lat="44.4116" lon="6.7351">
        <ele>1226.7</ele>
        <time>2021-06-21T14:59:38Z</time>
      </trkpt>
      <trkpt lat="44.41171" lon="6.73464">
        <ele>1225</ele>
        <time>2021-06-21T14:59:42Z</time>
      </trkpt>
      <trkpt lat="44.41183" lon="6.73421">
        <ele>1223.7</ele>
        <time>2021-06-21T14:59:46Z</time>
      </trkpt>
      <trkpt lat="44.41195" lon="6.73379">
        <ele>1221.7</ele>
        <time>2021-06-21T14:59:50Z</time>
      </trkpt>
      <trkpt lat="44.41211" lon="6.73343">
        <ele>1219.9</ele>
        <time>2021-06-21T14:59:54Z</time>
      </trkpt>
      <trkpt lat="44.41229" lon="6.73311">
        <ele>1218.9</ele>
        <time>2021-06-21T14:59:58Z</time>
      </trkpt>
      <trkpt lat="44.41248" lon="6.73282">
        <ele>1218.4</ele>
        <time>2021-06-21T15:00:02Z</time>
      </trkpt>
      <trkpt lat="44.41267" lon="6.7325">
        <ele>1218</ele>
        <time>2021-06-21T15:00:06Z</time>
      </trkpt>
      <trkpt lat="44.41284" lon="6.73217">
        <ele>1217.4</ele>
        <time>2021-06-21T15:00:10Z</time>
      </trkpt>
      <trkpt lat="44.41294" lon="6.73181">
        <ele>1216.8</ele>
        <time>2021-06-21T15:00:14Z</time>
      </trkpt>
      <trkpt lat="44.413" lon="6.73147">
        <ele>1216</ele>
        <time>2021-06-21T15:00:18Z</time>
      </trkpt>
      <trkpt lat="44.41306" lon="6.73115">
        <ele>1215.2</ele>
        <time>2021-06-21T15:00:22Z</time>
      </trkpt>
      <trkpt lat="44.41312" lon="6.73084">
        <ele>1214.5</ele>
        <time>2021-06-21T15:00:26Z</time>
      </trkpt>
      <trkpt lat="44.41318" lon="6.73055">
        <ele>1213.7</ele>
        <time>2021-06-21T15:00:30Z</time>
      </trkpt>
      <trkpt lat="44.41323" lon="6.73026">
        <ele>1212.9</ele>
        <time>2021-06-21T15:00:34Z</time>
      </trkpt>
      <trkpt lat="44.41325" lon="6.72996">
        <ele>1212.1</ele>
        <time>2021-06-21T15:00:38Z</time>
      </trkpt>
      <trkpt lat="44.41329" lon="6.72969">
        <ele>1213.1</ele>
        <time>2021-06-21T15:00:42Z</time>
      </trkpt>
      <trkpt lat="44.41335" lon="6.72949">
        <ele>1213.9</ele>
        <time>2021-06-21T15:00:46Z</time>
      </trkpt>
      <trkpt lat="44.4135" lon="6.72947">
        <ele>1214.2</ele>
        <time>2021-06-21T15:00:50Z</time>
      </trkpt>
      <trkpt lat="44.41365" lon="6.72957">
        <ele>1214.3</ele>
        <time>2021-06-21T15:00:54Z</time>
      </trkpt>
      <trkpt lat="44.41381" lon="6.7297">
        <ele>1214.5</ele>
        <time>2021-06-21T15:00:58Z</time>
      </trkpt>
      <trkpt lat="44.41395" lon="6.72982">
        <ele>1215</ele>
        <time>2021-06-21T15:01:02Z</time>
      </trkpt>
      <trkpt lat="44.41411" lon="6.72998">
        <ele>1215.7</ele>
        <time>2021-06-21T15:01:06Z</time>
      </trkpt>
      <trkpt lat="44.41426" lon="6.73011">
        <ele>1215.5</ele>
        <time>2021-06-21T15:01:10Z</time>
      </trkpt>
      <trkpt lat="44.4144" lon="6.73023">
        <ele>1215</ele>
        <time>2021-06-21T15:01:14Z</time>
      </trkpt>
      <trkpt lat="44.41452" lon="6.73029">
        <ele>1214.8</ele>
        <time>2021-06-21T15:01:18Z</time>
      </trkpt>
      <trkpt lat="44.41465" lon="6.73036">
        <ele>1214.5</ele>
        <time>2021-06-21T15:01:22Z</time>
      </trkpt>
      <trkpt lat="44.4148" lon="6.7305">
        <ele>1214.2</ele>
        <time>2021-06-21T15:01:26Z</time>
      </trkpt>
      <trkpt lat="44.41495" lon="6.73062">
        <ele>1214</ele>
        <time>2021-06-21T15:01:30Z</time>
      </trkpt>
      <trkpt lat="44.41511" lon="6.73079">
        <ele>1213.9</ele>
        <time>2021-06-21T15:01:34Z</time>
      </trkpt>
      <trkpt lat="44.41523" lon="6.73092">
        <ele>1213.9</ele>
        <time>2021-06-21T15:01:38Z</time>
      </trkpt>
      <trkpt lat="44.4154" lon="6.7311">
        <ele>1214.1</ele>
        <time>2021-06-21T15:01:42Z</time>
      </trkpt>
      <trkpt lat="44.41554" lon="6.73125">
        <ele>1214.5</ele>
        <time>2021-06-21T15:01:46Z</time>
      </trkpt>
      <trkpt lat="44.41568" lon="6.73139">
        <ele>1214.9</ele>
        <time>2021-06-21T15:01:50Z</time>
      </trkpt>
      <trkpt lat="44.41583" lon="6.73156">
        <ele>1215.6</ele>
        <time>2021-06-21T15:01:54Z</time>
      </trkpt>
      <trkpt lat="44.41596" lon="6.7317">
        <ele>1215.9</ele>
        <time>2021-06-21T15:01:58Z</time>
      </trkpt>
      <trkpt lat="44.4161" lon="6.73186">
        <ele>1216.3</ele>
        <time>2021-06-21T15:02:02Z</time>
      </trkpt>
    </trkseg>
  </trk>
</gpx>